<?xml version='1.0' encoding='UTF-8'?><gpx version="1.1" creator="JPX - https://github.com/jenetics/jpx" xmlns="http://www.topografix.com/GPX/1/1"><trk><trkseg><trkpt lat="45.77399713792009" lon="4.813093438350493"><ele>173.0</ele><time>2026-04-24T15:34:44Z</time></trkpt><trkpt lat="45.7740507402735" lon="4.813012669211481"><ele>173.0</ele><time>2026-04-24T15:35:04.001Z</time></trkpt><trkpt lat="45.774123365794935" lon="4.8129784584273025"><ele>173.0</ele><time>2026-04-24T15:35:27.001Z</time></trkpt><trkpt lat="45.77422155777454" lon="4.812954254979538"><ele>173.0</ele><time>2026-04-24T15:35:38.002Z</time></trkpt><trkpt lat="45.77437546869656" lon="4.812923669972994"><ele>173.0</ele><time>2026-04-24T15:35:46.001Z</time></trkpt><trkpt lat="45.77437172882755" lon="4.81282241323739"><ele>173.0</ele><time>2026-04-24T15:35:48.001Z</time></trkpt><trkpt lat="45.77431614304446" lon="4.812736826252537"><ele>173.0</ele><time>2026-04-24T15:35:50.001Z</time></trkpt><trkpt lat="45.774243212253204" lon="4.812708589664368"><ele>173.0</ele><time>2026-04-24T15:35:52.001Z</time></trkpt><trkpt lat="45.774159910268935" lon="4.812658193930207"><ele>173.0</ele><time>2026-04-24T15:35:55.001Z</time></trkpt><trkpt lat="45.774075888487516" lon="4.812564918916353"><ele>173.0</ele><time>2026-04-24T15:35:57.001Z</time></trkpt><trkpt lat="45.774002563607894" lon="4.812470672105776"><ele>172.60000000000002</ele><time>2026-04-24T15:35:59.001Z</time></trkpt><trkpt lat="45.77392534253387" lon="4.8123807616068905"><ele>172.20000000000002</ele><time>2026-04-24T15:36:01.001Z</time></trkpt><trkpt lat="45.77384411815939" lon="4.812296623064199"><ele>171.8</ele><time>2026-04-24T15:36:03Z</time></trkpt><trkpt lat="45.773768192936785" lon="4.812199984962543"><ele>171.4</ele><time>2026-04-24T15:36:05Z</time></trkpt><trkpt lat="45.77370636438966" lon="4.812092005354387"><ele>171.0</ele><time>2026-04-24T15:36:07Z</time></trkpt><trkpt lat="45.77379037406632" lon="4.811812940890355"><ele>170.8</ele><time>2026-04-24T15:36:11Z</time></trkpt><trkpt lat="45.77385677577322" lon="4.811684838176391"><ele>170.60000000000002</ele><time>2026-04-24T15:36:13Z</time></trkpt><trkpt lat="45.7739105316421" lon="4.8115611247651575"><ele>170.4</ele><time>2026-04-24T15:36:15Z</time></trkpt><trkpt lat="45.773976300205334" lon="4.811434467085382"><ele>170.2</ele><time>2026-04-24T15:36:17Z</time></trkpt><trkpt lat="45.774040051530775" lon="4.8113152540607125"><ele>170.0</ele><time>2026-04-24T15:36:19Z</time></trkpt><trkpt lat="45.7741117519095" lon="4.811194891407891"><ele>170.0</ele><time>2026-04-24T15:36:21Z</time></trkpt><trkpt lat="45.7741966030888" lon="4.811092772693457"><ele>170.0</ele><time>2026-04-24T15:36:23Z</time></trkpt><trkpt lat="45.77429650350507" lon="4.810986725083664"><ele>170.0</ele><time>2026-04-24T15:36:25Z</time></trkpt><trkpt lat="45.7743474881864" lon="4.8109279119714214"><ele>170.0</ele><time>2026-04-24T15:36:26Z</time></trkpt><trkpt lat="45.774404562548646" lon="4.8108822350895615"><ele>170.0</ele><time>2026-04-24T15:36:27Z</time></trkpt><trkpt lat="45.77446225976152" lon="4.8108356366942635"><ele>170.0</ele><time>2026-04-24T15:36:28Z</time></trkpt><trkpt lat="45.77452223229313" lon="4.81079108039152"><ele>170.0</ele><time>2026-04-24T15:36:29Z</time></trkpt><trkpt lat="45.774582022853906" lon="4.810740750449452"><ele>170.0</ele><time>2026-04-24T15:36:30Z</time></trkpt><trkpt lat="45.774647639788526" lon="4.81069384171924"><ele>170.0</ele><time>2026-04-24T15:36:31Z</time></trkpt><trkpt lat="45.774719061616686" lon="4.810665532087017"><ele>170.0</ele><time>2026-04-24T15:36:32Z</time></trkpt><trkpt lat="45.774782774156876" lon="4.810635986038765"><ele>170.0</ele><time>2026-04-24T15:36:33Z</time></trkpt><trkpt lat="45.77484443306328" lon="4.810605415768032"><ele>170.0</ele><time>2026-04-24T15:36:34Z</time></trkpt><trkpt lat="45.774945381790424" lon="4.810483095031073"><ele>170.0</ele><time>2026-04-24T15:36:36Z</time></trkpt><trkpt lat="45.775013388899616" lon="4.810486789394326"><ele>170.0</ele><time>2026-04-24T15:36:37Z</time></trkpt><trkpt lat="45.7751283801775" lon="4.810443785323277"><ele>170.0</ele><time>2026-04-24T15:36:39Z</time></trkpt><trkpt lat="45.775235578600906" lon="4.810416426653032"><ele>170.0</ele><time>2026-04-24T15:36:41Z</time></trkpt><trkpt lat="45.77532775052546" lon="4.8104004259503075"><ele>170.0</ele><time>2026-04-24T15:36:43Z</time></trkpt><trkpt lat="45.7754029589335" lon="4.810380392324227"><ele>170.16666666666666</ele><time>2026-04-24T15:36:45Z</time></trkpt><trkpt lat="45.775473166302724" lon="4.810395246109894"><ele>170.33333333333331</ele><time>2026-04-24T15:36:49Z</time></trkpt><trkpt lat="45.77549661836178" lon="4.810499933171428"><ele>170.5</ele><time>2026-04-24T15:37:30Z</time></trkpt><trkpt lat="45.77558433585893" lon="4.8105274734038"><ele>170.66666666666666</ele><time>2026-04-24T15:37:33Z</time></trkpt><trkpt lat="45.77562042419396" lon="4.810635188462749"><ele>170.83333333333334</ele><time>2026-04-24T15:37:36Z</time></trkpt><trkpt lat="45.77564953344388" lon="4.810764231002884"><ele>171.0</ele><time>2026-04-24T15:37:38Z</time></trkpt><trkpt lat="45.77568846840733" lon="4.810915932848591"><ele>171.4</ele><time>2026-04-24T15:37:40Z</time></trkpt><trkpt lat="45.77572164735782" lon="4.811060911131391"><ele>171.8</ele><time>2026-04-24T15:37:42.001Z</time></trkpt><trkpt lat="45.775752866888034" lon="4.811207380073853"><ele>172.20000000000002</ele><time>2026-04-24T15:37:44.001Z</time></trkpt><trkpt lat="45.775797718341494" lon="4.811357175492588"><ele>172.60000000000002</ele><time>2026-04-24T15:37:46.001Z</time></trkpt><trkpt lat="45.77582777446232" lon="4.811500943513766"><ele>173.0</ele><time>2026-04-24T15:37:48.001Z</time></trkpt><trkpt lat="45.775853108973514" lon="4.8115859533983745"><ele>173.0</ele><time>2026-04-24T15:37:49.001Z</time></trkpt><trkpt lat="45.775887488189476" lon="4.811735682415847"><ele>173.0</ele><time>2026-04-24T15:37:51Z</time></trkpt><trkpt lat="45.77591341665614" lon="4.8118820632297865"><ele>173.0</ele><time>2026-04-24T15:37:53Z</time></trkpt><trkpt lat="45.77594812144117" lon="4.8120187639527305"><ele>173.0</ele><time>2026-04-24T15:37:55Z</time></trkpt><trkpt lat="45.775972471965936" lon="4.812145728030653"><ele>173.0</ele><time>2026-04-24T15:37:57Z</time></trkpt><trkpt lat="45.77597115466653" lon="4.812262121747446"><ele>173.66666666666666</ele><time>2026-04-24T15:37:59Z</time></trkpt><trkpt lat="45.77591620130295" lon="4.812359388732787"><ele>174.33333333333331</ele><time>2026-04-24T15:38:01Z</time></trkpt><trkpt lat="45.77583645502229" lon="4.8124097085969835"><ele>175.0</ele><time>2026-04-24T15:38:03Z</time></trkpt><trkpt lat="45.77575987396764" lon="4.812458020417155"><ele>175.66666666666666</ele><time>2026-04-24T15:38:05Z</time></trkpt><trkpt lat="45.77567968711558" lon="4.812514193549427"><ele>176.33333333333334</ele><time>2026-04-24T15:38:07Z</time></trkpt><trkpt lat="45.77559763738357" lon="4.8125746434769106"><ele>177.0</ele><time>2026-04-24T15:38:09Z</time></trkpt><trkpt lat="45.775518784625945" lon="4.812627588684888"><ele>177.0</ele><time>2026-04-24T15:38:11Z</time></trkpt><trkpt lat="45.77542849973267" lon="4.812679258710328"><ele>177.0</ele><time>2026-04-24T15:38:13Z</time></trkpt><trkpt lat="45.775336462521445" lon="4.812738563614536"><ele>177.0</ele><time>2026-04-24T15:38:15Z</time></trkpt><trkpt lat="45.77524722077002" lon="4.81280328420962"><ele>177.0</ele><time>2026-04-24T15:38:17Z</time></trkpt><trkpt lat="45.775160985681936" lon="4.8128624976024605"><ele>177.0</ele><time>2026-04-24T15:38:19Z</time></trkpt><trkpt lat="45.77508975722087" lon="4.812920527212601"><ele>177.0</ele><time>2026-04-24T15:38:21Z</time></trkpt><trkpt lat="45.77502757254676" lon="4.81296726089142"><ele>177.0</ele><time>2026-04-24T15:38:23Z</time></trkpt><trkpt lat="45.77495886955806" lon="4.8129614077182685"><ele>177.0</ele><time>2026-04-24T15:38:26Z</time></trkpt><trkpt lat="45.77490916000439" lon="4.812895105917656"><ele>177.0</ele><time>2026-04-24T15:39:17Z</time></trkpt><trkpt lat="45.77491507386926" lon="4.8127953099799505"><ele>177.0</ele><time>2026-04-24T15:39:21.999Z</time></trkpt><trkpt lat="45.774973623662454" lon="4.812880084215725"><ele>177.0</ele><time>2026-04-24T15:39:24.999Z</time></trkpt><trkpt lat="45.77502058613739" lon="4.81294415783827"><ele>177.0</ele><time>2026-04-24T15:39:26.999Z</time></trkpt><trkpt lat="45.775143148081156" lon="4.812848927583425"><ele>177.0</ele><time>2026-04-24T15:39:29.999Z</time></trkpt><trkpt lat="45.77524569612398" lon="4.812778383823891"><ele>177.0</ele><time>2026-04-24T15:39:31.999Z</time></trkpt><trkpt lat="45.775334419583594" lon="4.812706386125303"><ele>177.0</ele><time>2026-04-24T15:39:33.999Z</time></trkpt><trkpt lat="45.775433906614374" lon="4.812648439916871"><ele>177.0</ele><time>2026-04-24T15:39:35.999Z</time></trkpt><trkpt lat="45.77552865349094" lon="4.812582557098895"><ele>177.0</ele><time>2026-04-24T15:39:37.999Z</time></trkpt><trkpt lat="45.77561659205029" lon="4.812521233574008"><ele>177.0</ele><time>2026-04-24T15:39:39.999Z</time></trkpt><trkpt lat="45.77571199929106" lon="4.812448641597283"><ele>177.0</ele><time>2026-04-24T15:39:41.999Z</time></trkpt><trkpt lat="45.775807036733696" lon="4.8123957596965"><ele>177.0</ele><time>2026-04-24T15:39:43.999Z</time></trkpt><trkpt lat="45.775901148375766" lon="4.812337140710119"><ele>177.0</ele><time>2026-04-24T15:39:45.999Z</time></trkpt><trkpt lat="45.77599363665185" lon="4.812274467276387"><ele>177.0</ele><time>2026-04-24T15:39:48Z</time></trkpt><trkpt lat="45.77607079796911" lon="4.812213733141667"><ele>179.5</ele><time>2026-04-24T15:39:50Z</time></trkpt><trkpt lat="45.77615034875114" lon="4.812164290150115"><ele>182.0</ele><time>2026-04-24T15:39:52Z</time></trkpt><trkpt lat="45.77622279463145" lon="4.8121209895815085"><ele>184.5</ele><time>2026-04-24T15:39:54Z</time></trkpt><trkpt lat="45.776299466584994" lon="4.812072074084057"><ele>187.0</ele><time>2026-04-24T15:39:57Z</time></trkpt><trkpt lat="45.77622402486805" lon="4.812082254079358"><ele>189.5</ele><time>2026-04-24T15:40:03Z</time></trkpt><trkpt lat="45.77615312023524" lon="4.812154569005856"><ele>192.0</ele><time>2026-04-24T15:40:06Z</time></trkpt><trkpt lat="45.77608890461113" lon="4.812192898101986"><ele>192.0</ele><time>2026-04-24T15:40:08Z</time></trkpt><trkpt lat="45.776025871038534" lon="4.812223730868342"><ele>192.0</ele><time>2026-04-24T15:40:10Z</time></trkpt><trkpt lat="45.77595954899793" lon="4.812289691581009"><ele>192.0</ele><time>2026-04-24T15:40:12Z</time></trkpt><trkpt lat="45.7758893897111" lon="4.812350768662346"><ele>192.0</ele><time>2026-04-24T15:40:14Z</time></trkpt><trkpt lat="45.775808253944724" lon="4.8123998698972414"><ele>192.0</ele><time>2026-04-24T15:40:16Z</time></trkpt><trkpt lat="45.775730360832185" lon="4.8124560592024395"><ele>192.0</ele><time>2026-04-24T15:40:18Z</time></trkpt><trkpt lat="45.775657136401776" lon="4.812502821927842"><ele>190.83333333333334</ele><time>2026-04-24T15:40:20Z</time></trkpt><trkpt lat="45.7755826593911" lon="4.812558823322201"><ele>189.66666666666666</ele><time>2026-04-24T15:40:22Z</time></trkpt><trkpt lat="45.775511036200065" lon="4.8126065944758585"><ele>188.5</ele><time>2026-04-24T15:40:24Z</time></trkpt><trkpt lat="45.77544121959203" lon="4.8126581190570095"><ele>187.33333333333331</ele><time>2026-04-24T15:40:26Z</time></trkpt><trkpt lat="45.77537607835499" lon="4.812701382145658"><ele>186.16666666666666</ele><time>2026-04-24T15:40:28Z</time></trkpt><trkpt lat="45.77530917658441" lon="4.812750093854829"><ele>185.0</ele><time>2026-04-24T15:40:30Z</time></trkpt><trkpt lat="45.77524707460465" lon="4.812798092752073"><ele>184.99999999999997</ele><time>2026-04-24T15:40:32Z</time></trkpt><trkpt lat="45.77518806038748" lon="4.812838887416752"><ele>185.0</ele><time>2026-04-24T15:40:34Z</time></trkpt><trkpt lat="45.7751254851484" lon="4.812872916891916"><ele>185.0</ele><time>2026-04-24T15:40:36Z</time></trkpt><trkpt lat="45.775066517380964" lon="4.812913089689076"><ele>185.0</ele><time>2026-04-24T15:40:38Z</time></trkpt><trkpt lat="45.7749900251318" lon="4.812979395174645"><ele>185.0</ele><time>2026-04-24T15:40:41Z</time></trkpt><trkpt lat="45.77493395345034" lon="4.812886596637778"><ele>184.99999999999997</ele><time>2026-04-24T15:40:45Z</time></trkpt><trkpt lat="45.77493906558219" lon="4.812782289230001"><ele>185.0</ele><time>2026-04-24T15:40:48Z</time></trkpt><trkpt lat="45.77487728604258" lon="4.812744639924282"><ele>183.66666666666666</ele><time>2026-04-24T15:40:51Z</time></trkpt><trkpt lat="45.774814939801274" lon="4.812829073429876"><ele>182.33333333333331</ele><time>2026-04-24T15:40:54Z</time></trkpt><trkpt lat="45.77482909105531" lon="4.812938885068004"><ele>181.0</ele><time>2026-04-24T15:40:57Z</time></trkpt><trkpt lat="45.774886875584144" lon="4.813006267559899"><ele>179.66666666666666</ele><time>2026-04-24T15:41:00Z</time></trkpt><trkpt lat="45.7749660518217" lon="4.8129995460643675"><ele>178.33333333333334</ele><time>2026-04-24T15:41:02Z</time></trkpt><trkpt lat="45.77504985527689" lon="4.812930316048938"><ele>177.0</ele><time>2026-04-24T15:41:04Z</time></trkpt><trkpt lat="45.775144008407445" lon="4.812853026878064"><ele>177.0</ele><time>2026-04-24T15:41:06Z</time></trkpt><trkpt lat="45.775253891421315" lon="4.812773332235626"><ele>177.0</ele><time>2026-04-24T15:41:08Z</time></trkpt><trkpt lat="45.7753106988207" lon="4.812733968529883"><ele>177.0</ele><time>2026-04-24T15:41:09Z</time></trkpt><trkpt lat="45.7754167095396" lon="4.8126552848283835"><ele>177.0</ele><time>2026-04-24T15:41:11Z</time></trkpt><trkpt lat="45.775524110167815" lon="4.812591983199029"><ele>177.0</ele><time>2026-04-24T15:41:13Z</time></trkpt><trkpt lat="45.77559498697578" lon="4.812550299539353"><ele>177.0</ele><time>2026-04-24T15:41:14.999Z</time></trkpt><trkpt lat="45.77565871000841" lon="4.812493661308721"><ele>177.0</ele><time>2026-04-24T15:41:16.999Z</time></trkpt><trkpt lat="45.77572688099773" lon="4.812434096410069"><ele>177.0</ele><time>2026-04-24T15:41:18.999Z</time></trkpt><trkpt lat="45.77580387787069" lon="4.81238660292496"><ele>177.0</ele><time>2026-04-24T15:41:20.999Z</time></trkpt><trkpt lat="45.775888818939606" lon="4.812340782977832"><ele>177.0</ele><time>2026-04-24T15:41:22.999Z</time></trkpt><trkpt lat="45.77595442376032" lon="4.812286396550659"><ele>177.0</ele><time>2026-04-24T15:41:24.999Z</time></trkpt><trkpt lat="45.77587326014818" lon="4.812312117689792"><ele>177.0</ele><time>2026-04-24T15:41:31.999Z</time></trkpt><trkpt lat="45.77582119491173" lon="4.812374740429339"><ele>177.0</ele><time>2026-04-24T15:41:33.999Z</time></trkpt><trkpt lat="45.77572876636217" lon="4.812430222644004"><ele>177.0</ele><time>2026-04-24T15:41:35.999Z</time></trkpt><trkpt lat="45.77562625981086" lon="4.812511475413196"><ele>177.0</ele><time>2026-04-24T15:41:37.999Z</time></trkpt><trkpt lat="45.77556887328471" lon="4.812558216903882"><ele>177.0</ele><time>2026-04-24T15:41:38.999Z</time></trkpt><trkpt lat="45.77551207703282" lon="4.812597539400126"><ele>177.0</ele><time>2026-04-24T15:41:39.999Z</time></trkpt><trkpt lat="45.77545035220112" lon="4.812628416720486"><ele>177.0</ele><time>2026-04-24T15:41:40.999Z</time></trkpt><trkpt lat="45.775393070210825" lon="4.812667204812188"><ele>177.0</ele><time>2026-04-24T15:41:41.999Z</time></trkpt><trkpt lat="45.77528627205842" lon="4.812730219023513"><ele>177.0</ele><time>2026-04-24T15:41:43.999Z</time></trkpt><trkpt lat="45.77522895536323" lon="4.81276980368654"><ele>177.0</ele><time>2026-04-24T15:41:44.999Z</time></trkpt><trkpt lat="45.775176321452186" lon="4.8128287729036465"><ele>177.0</ele><time>2026-04-24T15:41:45.999Z</time></trkpt><trkpt lat="45.775078783993926" lon="4.8128843796909955"><ele>177.0</ele><time>2026-04-24T15:41:47.999Z</time></trkpt><trkpt lat="45.77499540259584" lon="4.81295165560806"><ele>177.0</ele><time>2026-04-24T15:41:49.999Z</time></trkpt><trkpt lat="45.77492418483164" lon="4.8129889228870635"><ele>177.0</ele><time>2026-04-24T15:41:51.999Z</time></trkpt><trkpt lat="45.77484701427993" lon="4.812972112335696"><ele>177.0</ele><time>2026-04-24T15:41:55Z</time></trkpt><trkpt lat="45.77477485158857" lon="4.81294795639095"><ele>177.0</ele><time>2026-04-24T15:41:59Z</time></trkpt><trkpt lat="45.77472489655252" lon="4.813219161374983"><ele>177.0</ele><time>2026-04-24T15:42:02Z</time></trkpt><trkpt lat="45.7747020081575" lon="4.813397330834471"><ele>178.57142857142858</ele><time>2026-04-24T15:42:04Z</time></trkpt><trkpt lat="45.774699168698525" lon="4.813505538550984"><ele>180.14285714285714</ele><time>2026-04-24T15:42:05Z</time></trkpt><trkpt lat="45.77469327333909" lon="4.813599275732911"><ele>181.71428571428572</ele><time>2026-04-24T15:42:06Z</time></trkpt><trkpt lat="45.77467928496829" lon="4.8137000150519995"><ele>183.28571428571428</ele><time>2026-04-24T15:42:07Z</time></trkpt><trkpt lat="45.77467046780517" lon="4.813800769810765"><ele>184.85714285714283</ele><time>2026-04-24T15:42:08Z</time></trkpt><trkpt lat="45.77465756647102" lon="4.813900503448333"><ele>186.42857142857142</ele><time>2026-04-24T15:42:09Z</time></trkpt><trkpt lat="45.77465364431882" lon="4.813998139076743"><ele>188.0</ele><time>2026-04-24T15:42:10Z</time></trkpt><trkpt lat="45.774656384238014" lon="4.8141058746630945"><ele>188.0</ele><time>2026-04-24T15:42:11Z</time></trkpt><trkpt lat="45.77465883162439" lon="4.814210534230079"><ele>188.0</ele><time>2026-04-24T15:42:12Z</time></trkpt><trkpt lat="45.774655462708246" lon="4.814312894070624"><ele>188.0</ele><time>2026-04-24T15:42:13Z</time></trkpt><trkpt lat="45.77465314715788" lon="4.814414149290738"><ele>188.0</ele><time>2026-04-24T15:42:14Z</time></trkpt><trkpt lat="45.77465053495745" lon="4.814517876749575"><ele>188.0</ele><time>2026-04-24T15:42:15Z</time></trkpt><trkpt lat="45.77464849385968" lon="4.814623425392097"><ele>188.0</ele><time>2026-04-24T15:42:16.017Z</time></trkpt><trkpt lat="45.77464699957616" lon="4.814726414823057"><ele>188.0</ele><time>2026-04-24T15:42:17.019Z</time></trkpt><trkpt lat="45.77464675003729" lon="4.814827250390014"><ele>191.8</ele><time>2026-04-24T15:42:18.019Z</time></trkpt><trkpt lat="45.77464369865287" lon="4.814925050769349"><ele>195.60000000000002</ele><time>2026-04-24T15:42:19.016Z</time></trkpt><trkpt lat="45.77463929558078" lon="4.815022757146106"><ele>199.39999999999998</ele><time>2026-04-24T15:42:20.018Z</time></trkpt><trkpt lat="45.7746362714115" lon="4.815126984803898"><ele>203.2</ele><time>2026-04-24T15:42:21.019Z</time></trkpt><trkpt lat="45.77463395477601" lon="4.815232576457425"><ele>207.0</ele><time>2026-04-24T15:42:22.016Z</time></trkpt><trkpt lat="45.771985505812175" lon="4.83965651816216"><ele>196.5</ele><time>2026-04-24T15:45:42.359Z</time></trkpt><trkpt lat="45.77193136124664" lon="4.839481823892602"><ele>186.0</ele><time>2026-04-24T15:45:44.042Z</time></trkpt><trkpt lat="45.772900236813136" lon="4.836956178773974"><ele>186.0</ele><time>2026-04-24T15:45:49.998Z</time></trkpt><trkpt lat="45.772895753320356" lon="4.837098589797903"><ele>186.0</ele><time>2026-04-24T15:45:52.998Z</time></trkpt><trkpt lat="45.77288728531109" lon="4.837234039995009"><ele>186.0</ele><time>2026-04-24T15:45:54.998Z</time></trkpt><trkpt lat="45.772881751194504" lon="4.837329562431359"><ele>186.0</ele><time>2026-04-24T15:45:56.998Z</time></trkpt><trkpt lat="45.77294805972026" lon="4.837417959391102"><ele>186.0</ele><time>2026-04-24T15:46:00Z</time></trkpt><trkpt lat="45.77300730048825" lon="4.837470547666835"><ele>186.0</ele><time>2026-04-24T15:46:04Z</time></trkpt><trkpt lat="45.77298212323202" lon="4.837576832806923"><ele>186.00000000000003</ele><time>2026-04-24T15:46:32Z</time></trkpt><trkpt lat="45.77302874925553" lon="4.837642495764155"><ele>186.0</ele><time>2026-04-24T15:46:38Z</time></trkpt><trkpt lat="45.773088451986204" lon="4.8376803119840295"><ele>186.0</ele><time>2026-04-24T15:46:44Z</time></trkpt><trkpt lat="45.77302349250496" lon="4.8376243523956886"><ele>186.0</ele><time>2026-04-24T15:54:07.999Z</time></trkpt><trkpt lat="45.772958957247354" lon="4.837582861178373"><ele>186.0</ele><time>2026-04-24T15:54:11.999Z</time></trkpt><trkpt lat="45.77288882902096" lon="4.8376685022822095"><ele>186.00000000000003</ele><time>2026-04-24T15:54:16.999Z</time></trkpt><trkpt lat="45.7728375606458" lon="4.837730695766999"><ele>186.0</ele><time>2026-04-24T15:54:20.999Z</time></trkpt><trkpt lat="45.77276830642436" lon="4.837720650152928"><ele>184.0</ele><time>2026-04-24T15:54:35Z</time></trkpt><trkpt lat="45.77277497039314" lon="4.837838921218102"><ele>182.0</ele><time>2026-04-24T15:54:53Z</time></trkpt><trkpt lat="45.772775834654624" lon="4.837957887770067"><ele>180.0</ele><time>2026-04-24T15:54:56Z</time></trkpt><trkpt lat="45.77278320562096" lon="4.83807546274073"><ele>178.0</ele><time>2026-04-24T15:54:59Z</time></trkpt><trkpt lat="45.772788496002086" lon="4.838170932770365"><ele>176.0</ele><time>2026-04-24T15:55:02Z</time></trkpt><trkpt lat="45.77279115077933" lon="4.838282467177667"><ele>174.0</ele><time>2026-04-24T15:55:05Z</time></trkpt><trkpt lat="45.77277608466755" lon="4.838399120908565"><ele>172.83333333333334</ele><time>2026-04-24T15:55:08Z</time></trkpt><trkpt lat="45.772748813801925" lon="4.838509362229656"><ele>171.66666666666666</ele><time>2026-04-24T15:55:11Z</time></trkpt><trkpt lat="45.772672735920274" lon="4.838575199014805"><ele>170.5</ele><time>2026-04-24T15:55:16Z</time></trkpt><trkpt lat="45.77261638409425" lon="4.838644679444708"><ele>169.33333333333331</ele><time>2026-04-24T15:55:18Z</time></trkpt><trkpt lat="45.77259382806258" lon="4.838765270002667"><ele>168.16666666666666</ele><time>2026-04-24T15:55:20Z</time></trkpt><trkpt lat="45.7725876525187" lon="4.838898035228629"><ele>167.0</ele><time>2026-04-24T15:55:22Z</time></trkpt><trkpt lat="45.77257667969862" lon="4.839027195266879"><ele>167.0</ele><time>2026-04-24T15:55:24Z</time></trkpt><trkpt lat="45.772573415654996" lon="4.839153717243617"><ele>167.0</ele><time>2026-04-24T15:55:26Z</time></trkpt><trkpt lat="45.77255458888092" lon="4.83927910641136"><ele>167.0</ele><time>2026-04-24T15:55:27.999Z</time></trkpt><trkpt lat="45.77243604998356" lon="4.83932416747257"><ele>167.0</ele><time>2026-04-24T15:55:28.999Z</time></trkpt><trkpt lat="45.772425433881416" lon="4.8394494133615735"><ele>167.0</ele><time>2026-04-24T15:55:30.999Z</time></trkpt><trkpt lat="45.77241543654508" lon="4.83956735922672"><ele>166.8</ele><time>2026-04-24T15:55:32.999Z</time></trkpt><trkpt lat="45.77240491458159" lon="4.839691419971167"><ele>166.6</ele><time>2026-04-24T15:55:34.999Z</time></trkpt><trkpt lat="45.77239413023658" lon="4.839818464223264"><ele>166.4</ele><time>2026-04-24T15:55:36.999Z</time></trkpt><trkpt lat="45.77238306284566" lon="4.839948842882841"><ele>166.20000000000002</ele><time>2026-04-24T15:55:38.999Z</time></trkpt><trkpt lat="45.77237175016251" lon="4.840082111186395"><ele>166.0</ele><time>2026-04-24T15:55:40.999Z</time></trkpt><trkpt lat="45.77236032769515" lon="4.840216672798624"><ele>167.0</ele><time>2026-04-24T15:55:42.999Z</time></trkpt><trkpt lat="45.77234828440672" lon="4.8403585479416975"><ele>168.0</ele><time>2026-04-24T15:55:44.999Z</time></trkpt><trkpt lat="45.772336066086446" lon="4.8405024850443"><ele>169.0</ele><time>2026-04-24T15:55:46.999Z</time></trkpt><trkpt lat="45.772323712622565" lon="4.840648014199277"><ele>170.0</ele><time>2026-04-24T15:55:48.999Z</time></trkpt><trkpt lat="45.77231192356886" lon="4.8407736749935175"><ele>171.0</ele><time>2026-04-24T15:55:50.999Z</time></trkpt><trkpt lat="45.77232795488597" lon="4.84094527115638"><ele>171.60000000000002</ele><time>2026-04-24T15:55:52.999Z</time></trkpt><trkpt lat="45.7724166710403" lon="4.8409808641620895"><ele>172.2</ele><time>2026-04-24T15:55:53.999Z</time></trkpt><trkpt lat="45.77246264914178" lon="4.84107341812372"><ele>172.8</ele><time>2026-04-24T15:55:55.999Z</time></trkpt><trkpt lat="45.77256664123602" lon="4.841248007446778"><ele>173.39999999999998</ele><time>2026-04-24T15:55:57.999Z</time></trkpt><trkpt lat="45.77267137190711" lon="4.841253569724873"><ele>174.0</ele><time>2026-04-24T15:55:59.999Z</time></trkpt><trkpt lat="45.77277999816867" lon="4.84126580215933"><ele>174.0</ele><time>2026-04-24T15:56:01.999Z</time></trkpt><trkpt lat="45.7728729912385" lon="4.8412900242805605"><ele>174.0</ele><time>2026-04-24T15:56:03.999Z</time></trkpt><trkpt lat="45.77296039259905" lon="4.8413315853990735"><ele>174.0</ele><time>2026-04-24T15:56:05.999Z</time></trkpt><trkpt lat="45.77302524024128" lon="4.841371927867926"><ele>174.0</ele><time>2026-04-24T15:56:07.999Z</time></trkpt><trkpt lat="45.77309599110895" lon="4.841421185771759"><ele>174.0</ele><time>2026-04-24T15:56:10.999Z</time></trkpt><trkpt lat="45.7731556861152" lon="4.841461775842031"><ele>174.0</ele><time>2026-04-24T15:56:13.999Z</time></trkpt><trkpt lat="45.77321818190605" lon="4.841504270326419"><ele>174.0</ele><time>2026-04-24T15:56:15.999Z</time></trkpt><trkpt lat="45.77328454065364" lon="4.841549391460438"><ele>174.0</ele><time>2026-04-24T15:56:17.999Z</time></trkpt><trkpt lat="45.7733658343347" lon="4.841604667713335"><ele>174.0</ele><time>2026-04-24T15:56:20.999Z</time></trkpt><trkpt lat="45.77352275352536" lon="4.841454024059823"><ele>174.0</ele><time>2026-04-24T15:56:22.999Z</time></trkpt><trkpt lat="45.77363358100907" lon="4.841551158045992"><ele>173.42857142857142</ele><time>2026-04-24T15:56:24.999Z</time></trkpt><trkpt lat="45.77369426891259" lon="4.841610373070892"><ele>172.85714285714286</ele><time>2026-04-24T15:56:25.999Z</time></trkpt><trkpt lat="45.77374688765387" lon="4.84167218951348"><ele>172.28571428571428</ele><time>2026-04-24T15:56:26.999Z</time></trkpt><trkpt lat="45.77380213283052" lon="4.841733054042306"><ele>171.71428571428572</ele><time>2026-04-24T15:56:27.999Z</time></trkpt><trkpt lat="45.77385486533057" lon="4.841787818674826"><ele>171.14285714285714</ele><time>2026-04-24T15:56:28.999Z</time></trkpt><trkpt lat="45.773918806043085" lon="4.841855986249685"><ele>170.57142857142858</ele><time>2026-04-24T15:56:29.999Z</time></trkpt><trkpt lat="45.77397914940833" lon="4.841919459889673"><ele>170.0</ele><time>2026-04-24T15:56:30.999Z</time></trkpt><trkpt lat="45.774044900561975" lon="4.841974142685761"><ele>169.83333333333331</ele><time>2026-04-24T15:56:31.999Z</time></trkpt><trkpt lat="45.774116260329784" lon="4.842023831216404"><ele>169.66666666666666</ele><time>2026-04-24T15:56:32.999Z</time></trkpt><trkpt lat="45.774179901136186" lon="4.842073431989397"><ele>169.5</ele><time>2026-04-24T15:56:33.999Z</time></trkpt><trkpt lat="45.774248834571296" lon="4.842125900682639"><ele>169.33333333333334</ele><time>2026-04-24T15:56:34.999Z</time></trkpt><trkpt lat="45.774316195140266" lon="4.842180482125454"><ele>169.16666666666669</ele><time>2026-04-24T15:56:35.999Z</time></trkpt><trkpt lat="45.77438485476762" lon="4.842231247653226"><ele>169.0</ele><time>2026-04-24T15:56:36.999Z</time></trkpt><trkpt lat="45.77442402318628" lon="4.8423418868899"><ele>169.0</ele><time>2026-04-24T15:56:37.999Z</time></trkpt><trkpt lat="45.77448663804481" lon="4.842385709259186"><ele>169.0</ele><time>2026-04-24T15:56:38.999Z</time></trkpt><trkpt lat="45.77456220860347" lon="4.842438294207131"><ele>169.0</ele><time>2026-04-24T15:56:40.999Z</time></trkpt><trkpt lat="45.774627886669464" lon="4.842483324881027"><ele>169.0</ele><time>2026-04-24T15:56:44.999Z</time></trkpt><trkpt lat="45.774686740451976" lon="4.842523988860591"><ele>169.0</ele><time>2026-04-24T15:56:48.999Z</time></trkpt><trkpt lat="45.77462257916418" lon="4.842479657751339"><ele>169.0</ele><time>2026-04-24T15:57:12.999Z</time></trkpt><trkpt lat="45.77461588326078" lon="4.842272753099458"><ele>169.0</ele><time>2026-04-24T15:57:24.999Z</time></trkpt><trkpt lat="45.77459043629759" lon="4.842359991764187"><ele>169.0</ele><time>2026-04-24T16:00:52Z</time></trkpt><trkpt lat="45.77463914297509" lon="4.842441373041361"><ele>169.0</ele><time>2026-04-24T16:00:59Z</time></trkpt><trkpt lat="45.774705992125895" lon="4.842476555291255"><ele>169.0</ele><time>2026-04-24T16:01:01Z</time></trkpt><trkpt lat="45.7747641681289" lon="4.842522767657276"><ele>169.0</ele><time>2026-04-24T16:01:03Z</time></trkpt><trkpt lat="45.77484886367896" lon="4.842573203458235"><ele>169.0</ele><time>2026-04-24T16:01:05Z</time></trkpt><trkpt lat="45.77493431280017" lon="4.8426259581322535"><ele>170.5</ele><time>2026-04-24T16:01:07Z</time></trkpt><trkpt lat="45.77503492095464" lon="4.842695020159253"><ele>172.0</ele><time>2026-04-24T16:01:09Z</time></trkpt><trkpt lat="45.7751305958237" lon="4.842767085837915"><ele>173.5</ele><time>2026-04-24T16:01:11Z</time></trkpt><trkpt lat="45.77523558487498" lon="4.842828264105367"><ele>175.0</ele><time>2026-04-24T16:01:13Z</time></trkpt><trkpt lat="45.775348280748695" lon="4.842908976290191"><ele>175.16666666666669</ele><time>2026-04-24T16:01:15Z</time></trkpt><trkpt lat="45.77540538012512" lon="4.842957379788471"><ele>175.33333333333334</ele><time>2026-04-24T16:01:16Z</time></trkpt><trkpt lat="45.77546809312198" lon="4.842989808489881"><ele>175.5</ele><time>2026-04-24T16:01:17Z</time></trkpt><trkpt lat="45.77555513840108" lon="4.843131652760913"><ele>175.66666666666666</ele><time>2026-04-24T16:01:19Z</time></trkpt><trkpt lat="45.7756136245156" lon="4.843172398195"><ele>175.83333333333331</ele><time>2026-04-24T16:01:20Z</time></trkpt><trkpt lat="45.77567266717805" lon="4.843213689359159"><ele>176.0</ele><time>2026-04-24T16:01:21Z</time></trkpt><trkpt lat="45.77574249663559" lon="4.8431868700055976"><ele>176.0</ele><time>2026-04-24T16:01:22Z</time></trkpt><trkpt lat="45.77580368863462" lon="4.843239405643309"><ele>176.0</ele><time>2026-04-24T16:01:23Z</time></trkpt><trkpt lat="45.775850034443934" lon="4.843337730190294"><ele>176.0</ele><time>2026-04-24T16:01:24Z</time></trkpt><trkpt lat="45.775908604739385" lon="4.843378691006168"><ele>176.0</ele><time>2026-04-24T16:01:25Z</time></trkpt><trkpt lat="45.776017769089606" lon="4.843456185735386"><ele>176.0</ele><time>2026-04-24T16:01:27Z</time></trkpt><trkpt lat="45.77612727197724" lon="4.8435346554150795"><ele>175.0</ele><time>2026-04-24T16:01:29Z</time></trkpt><trkpt lat="45.776228639394986" lon="4.843607956098963"><ele>174.0</ele><time>2026-04-24T16:01:31Z</time></trkpt><trkpt lat="45.77632079106952" lon="4.8436836840183295"><ele>173.0</ele><time>2026-04-24T16:01:33Z</time></trkpt><trkpt lat="45.776400238182106" lon="4.843748613365176"><ele>172.0</ele><time>2026-04-24T16:01:35Z</time></trkpt><trkpt lat="45.776465801536744" lon="4.843802195999232"><ele>171.0</ele><time>2026-04-24T16:01:37Z</time></trkpt><trkpt lat="45.77654473743149" lon="4.843870231364601"><ele>171.0</ele><time>2026-04-24T16:01:39Z</time></trkpt><trkpt lat="45.776611678444745" lon="4.843913379752435"><ele>171.0</ele><time>2026-04-24T16:01:42Z</time></trkpt><trkpt lat="45.77667270290561" lon="4.843952387227796"><ele>171.0</ele><time>2026-04-24T16:02:39Z</time></trkpt><trkpt lat="45.776742242521685" lon="4.844202422290612"><ele>171.0</ele><time>2026-04-24T16:03:56Z</time></trkpt><trkpt lat="45.776741274451446" lon="4.844307932540673"><ele>171.0</ele><time>2026-04-24T16:03:58Z</time></trkpt><trkpt lat="45.776807471771434" lon="4.844288649442506"><ele>171.66666666666666</ele><time>2026-04-24T16:04:00Z</time></trkpt><trkpt lat="45.77688134053975" lon="4.844305794402303"><ele>172.33333333333334</ele><time>2026-04-24T16:04:02Z</time></trkpt><trkpt lat="45.776954980181436" lon="4.844346206186884"><ele>173.0</ele><time>2026-04-24T16:04:04Z</time></trkpt><trkpt lat="45.77704205734196" lon="4.844396349042767"><ele>173.66666666666669</ele><time>2026-04-24T16:04:06Z</time></trkpt><trkpt lat="45.77713237657897" lon="4.844454239962024"><ele>174.33333333333334</ele><time>2026-04-24T16:04:08Z</time></trkpt><trkpt lat="45.77722291111664" lon="4.844506988339072"><ele>175.0</ele><time>2026-04-24T16:04:10Z</time></trkpt><trkpt lat="45.777323835340944" lon="4.844556058656739"><ele>175.0</ele><time>2026-04-24T16:04:12Z</time></trkpt><trkpt lat="45.77741366474997" lon="4.8446012950690145"><ele>175.0</ele><time>2026-04-24T16:04:14Z</time></trkpt><trkpt lat="45.77750798970412" lon="4.844663042822452"><ele>175.0</ele><time>2026-04-24T16:04:16Z</time></trkpt><trkpt lat="45.77759640010722" lon="4.844708967276525"><ele>175.0</ele><time>2026-04-24T16:04:18Z</time></trkpt><trkpt lat="45.777685793802576" lon="4.844764009430615"><ele>175.0</ele><time>2026-04-24T16:04:20Z</time></trkpt><trkpt lat="45.77778574007175" lon="4.844816860780476"><ele>175.16666666666669</ele><time>2026-04-24T16:04:22Z</time></trkpt><trkpt lat="45.77789135458352" lon="4.8448880201379385"><ele>175.33333333333334</ele><time>2026-04-24T16:04:24Z</time></trkpt><trkpt lat="45.777990210784466" lon="4.844969512442333"><ele>175.5</ele><time>2026-04-24T16:04:26Z</time></trkpt><trkpt lat="45.778053992615845" lon="4.845009888741548"><ele>175.66666666666666</ele><time>2026-04-24T16:04:27Z</time></trkpt><trkpt lat="45.77811115952856" lon="4.84504966416017"><ele>175.83333333333331</ele><time>2026-04-24T16:04:28Z</time></trkpt><trkpt lat="45.77817135417346" lon="4.845082882661408"><ele>176.0</ele><time>2026-04-24T16:04:29Z</time></trkpt><trkpt lat="45.778236416665756" lon="4.84512380432646"><ele>176.0</ele><time>2026-04-24T16:04:30Z</time></trkpt><trkpt lat="45.77829719967924" lon="4.845169463267614"><ele>176.0</ele><time>2026-04-24T16:04:31Z</time></trkpt><trkpt lat="45.778354110746186" lon="4.845211486563494"><ele>176.0</ele><time>2026-04-24T16:04:32Z</time></trkpt><trkpt lat="45.778415171584925" lon="4.845239525080383"><ele>176.0</ele><time>2026-04-24T16:04:33Z</time></trkpt><trkpt lat="45.77847531489513" lon="4.845279432778155"><ele>176.0</ele><time>2026-04-24T16:04:34Z</time></trkpt><trkpt lat="45.77854859221931" lon="4.845333684745204"><ele>176.0</ele><time>2026-04-24T16:04:35Z</time></trkpt><trkpt lat="45.778614185289676" lon="4.845391163840429"><ele>176.0</ele><time>2026-04-24T16:04:36Z</time></trkpt><trkpt lat="45.778681488395435" lon="4.845442558226296"><ele>176.0</ele><time>2026-04-24T16:04:37Z</time></trkpt><trkpt lat="45.77874656577586" lon="4.845488611029107"><ele>176.0</ele><time>2026-04-24T16:04:38Z</time></trkpt><trkpt lat="45.7788106559657" lon="4.845537319385555"><ele>176.0</ele><time>2026-04-24T16:04:39Z</time></trkpt><trkpt lat="45.77888137670334" lon="4.845588665696262"><ele>176.0</ele><time>2026-04-24T16:04:40Z</time></trkpt><trkpt lat="45.778939293704624" lon="4.845645325374357"><ele>176.0</ele><time>2026-04-24T16:04:41Z</time></trkpt><trkpt lat="45.77900527256963" lon="4.845703080121586"><ele>176.0</ele><time>2026-04-24T16:04:42Z</time></trkpt><trkpt lat="45.779070123625125" lon="4.845755863531132"><ele>176.0</ele><time>2026-04-24T16:04:42.999Z</time></trkpt><trkpt lat="45.779131085214345" lon="4.845818923407245"><ele>176.0</ele><time>2026-04-24T16:04:43.999Z</time></trkpt><trkpt lat="45.77920272912211" lon="4.8458736296623"><ele>176.0</ele><time>2026-04-24T16:04:44.999Z</time></trkpt><trkpt lat="45.779270391381154" lon="4.845931914915043"><ele>176.0</ele><time>2026-04-24T16:04:45.999Z</time></trkpt><trkpt lat="45.779332286384005" lon="4.8459928810140624"><ele>176.0</ele><time>2026-04-24T16:04:46.999Z</time></trkpt><trkpt lat="45.77939830735851" lon="4.846052505297988"><ele>176.0</ele><time>2026-04-24T16:04:47.999Z</time></trkpt><trkpt lat="45.77946450765116" lon="4.846112496000548"><ele>176.0</ele><time>2026-04-24T16:04:48.999Z</time></trkpt><trkpt lat="45.779533649201746" lon="4.846170219361461"><ele>175.33333333333331</ele><time>2026-04-24T16:04:49.999Z</time></trkpt><trkpt lat="45.77959196324868" lon="4.846231641909431"><ele>174.66666666666666</ele><time>2026-04-24T16:04:50.999Z</time></trkpt><trkpt lat="45.77965573193246" lon="4.846290832036727"><ele>174.0</ele><time>2026-04-24T16:04:51.999Z</time></trkpt><trkpt lat="45.77971768877977" lon="4.846356015456964"><ele>173.33333333333334</ele><time>2026-04-24T16:04:52.999Z</time></trkpt><trkpt lat="45.77978206039869" lon="4.846422393737937"><ele>172.66666666666669</ele><time>2026-04-24T16:04:54Z</time></trkpt><trkpt lat="45.77984351137619" lon="4.846490295850699"><ele>172.0</ele><time>2026-04-24T16:04:55Z</time></trkpt><trkpt lat="45.77990624152799" lon="4.846556349967113"><ele>172.0</ele><time>2026-04-24T16:04:56Z</time></trkpt><trkpt lat="45.779974199604666" lon="4.846622175458528"><ele>172.0</ele><time>2026-04-24T16:04:57Z</time></trkpt><trkpt lat="45.78003750920309" lon="4.846686243396825"><ele>172.0</ele><time>2026-04-24T16:04:58Z</time></trkpt><trkpt lat="45.780102484096474" lon="4.846750141507095"><ele>172.0</ele><time>2026-04-24T16:04:59Z</time></trkpt><trkpt lat="45.780164225136815" lon="4.846816329415023"><ele>172.0</ele><time>2026-04-24T16:05:00Z</time></trkpt><trkpt lat="45.78022622484523" lon="4.846886802266418"><ele>172.0</ele><time>2026-04-24T16:05:01Z</time></trkpt><trkpt lat="45.78028375978348" lon="4.8469582718674316"><ele>172.33333333333334</ele><time>2026-04-24T16:05:02Z</time></trkpt><trkpt lat="45.780342324613024" lon="4.847024427935748"><ele>172.66666666666669</ele><time>2026-04-24T16:05:03Z</time></trkpt><trkpt lat="45.78040084884669" lon="4.847093335758736"><ele>173.0</ele><time>2026-04-24T16:05:04Z</time></trkpt><trkpt lat="45.78046104879852" lon="4.8471604726295645"><ele>173.33333333333334</ele><time>2026-04-24T16:05:05Z</time></trkpt><trkpt lat="45.780519543400516" lon="4.847237759177935"><ele>173.66666666666666</ele><time>2026-04-24T16:05:06Z</time></trkpt><trkpt lat="45.78057981170893" lon="4.847309234023825"><ele>174.0</ele><time>2026-04-24T16:05:07Z</time></trkpt><trkpt lat="45.780639040445905" lon="4.847379305246837"><ele>174.0</ele><time>2026-04-24T16:05:08Z</time></trkpt><trkpt lat="45.78069742018829" lon="4.84745550418971"><ele>174.0</ele><time>2026-04-24T16:05:09Z</time></trkpt><trkpt lat="45.78075385190023" lon="4.847528952525981"><ele>174.0</ele><time>2026-04-24T16:05:10Z</time></trkpt><trkpt lat="45.780812874094515" lon="4.8476003157190855"><ele>174.0</ele><time>2026-04-24T16:05:11Z</time></trkpt><trkpt lat="45.78087059551454" lon="4.847669680954276"><ele>174.0</ele><time>2026-04-24T16:05:12Z</time></trkpt><trkpt lat="45.78092716576533" lon="4.8477406916486245"><ele>174.0</ele><time>2026-04-24T16:05:13Z</time></trkpt><trkpt lat="45.78098474861607" lon="4.847815716421087"><ele>173.83333333333334</ele><time>2026-04-24T16:05:14Z</time></trkpt><trkpt lat="45.78103732364111" lon="4.8478906896081515"><ele>173.66666666666666</ele><time>2026-04-24T16:05:15Z</time></trkpt><trkpt lat="45.78109544489591" lon="4.847963192986938"><ele>173.5</ele><time>2026-04-24T16:05:16Z</time></trkpt><trkpt lat="45.78115193152573" lon="4.84803890131938"><ele>173.33333333333331</ele><time>2026-04-24T16:05:17Z</time></trkpt><trkpt lat="45.78120354520614" lon="4.848108813222298"><ele>173.16666666666666</ele><time>2026-04-24T16:05:18Z</time></trkpt><trkpt lat="45.78125202346973" lon="4.848183465992935"><ele>173.0</ele><time>2026-04-24T16:05:19Z</time></trkpt><trkpt lat="45.781318841298315" lon="4.848260765410091"><ele>173.0</ele><time>2026-04-24T16:05:20Z</time></trkpt><trkpt lat="45.781368415674116" lon="4.848334034200148"><ele>173.0</ele><time>2026-04-24T16:05:21Z</time></trkpt><trkpt lat="45.781416912529906" lon="4.848405671188109"><ele>173.0</ele><time>2026-04-24T16:05:22Z</time></trkpt><trkpt lat="45.781466669170875" lon="4.8484751440217675"><ele>173.0</ele><time>2026-04-24T16:05:23Z</time></trkpt><trkpt lat="45.78151879632468" lon="4.848546784290982"><ele>173.0</ele><time>2026-04-24T16:05:24Z</time></trkpt><trkpt lat="45.78156483537939" lon="4.8486196810963795"><ele>173.0</ele><time>2026-04-24T16:05:25Z</time></trkpt><trkpt lat="45.78161466713986" lon="4.848695502683536"><ele>173.0</ele><time>2026-04-24T16:05:26Z</time></trkpt><trkpt lat="45.781666201184045" lon="4.848768064854796"><ele>172.85714285714286</ele><time>2026-04-24T16:05:27Z</time></trkpt><trkpt lat="45.78171675476402" lon="4.848843494100005"><ele>172.71428571428572</ele><time>2026-04-24T16:05:28Z</time></trkpt><trkpt lat="45.78176607926585" lon="4.848913100232684"><ele>172.57142857142858</ele><time>2026-04-24T16:05:29Z</time></trkpt><trkpt lat="45.78181330201188" lon="4.848981227485129"><ele>172.42857142857144</ele><time>2026-04-24T16:05:30Z</time></trkpt><trkpt lat="45.781862640485265" lon="4.849050616189338"><ele>172.28571428571428</ele><time>2026-04-24T16:05:31Z</time></trkpt><trkpt lat="45.78191121074284" lon="4.849124477004256"><ele>172.14285714285717</ele><time>2026-04-24T16:05:32Z</time></trkpt><trkpt lat="45.781958064145776" lon="4.849198149148808"><ele>172.0</ele><time>2026-04-24T16:05:33Z</time></trkpt><trkpt lat="45.78200705163361" lon="4.849270394982471"><ele>172.0</ele><time>2026-04-24T16:05:34Z</time></trkpt><trkpt lat="45.78205911229873" lon="4.849338625452683"><ele>172.0</ele><time>2026-04-24T16:05:35Z</time></trkpt><trkpt lat="45.78210527053285" lon="4.849406570834245"><ele>172.0</ele><time>2026-04-24T16:05:36Z</time></trkpt><trkpt lat="45.78218649920212" lon="4.849527726002549"><ele>172.0</ele><time>2026-04-24T16:05:38Z</time></trkpt><trkpt lat="45.78224351519053" lon="4.849641381920058"><ele>172.0</ele><time>2026-04-24T16:05:40Z</time></trkpt><trkpt lat="45.78229276487236" lon="4.849737180663719"><ele>172.0</ele><time>2026-04-24T16:05:42Z</time></trkpt><trkpt lat="45.782342017525664" lon="4.849816310642659"><ele>172.0</ele><time>2026-04-24T16:05:44Z</time></trkpt><trkpt lat="45.782400340291844" lon="4.849896372267976"><ele>172.0</ele><time>2026-04-24T16:05:47Z</time></trkpt><trkpt lat="45.78243762866533" lon="4.849974647175995"><ele>172.0</ele><time>2026-04-24T16:05:51Z</time></trkpt><trkpt lat="45.78247474294929" lon="4.850049835662708"><ele>172.0</ele><time>2026-04-24T16:05:53Z</time></trkpt><trkpt lat="45.7825325236383" lon="4.850134075088964"><ele>172.0</ele><time>2026-04-24T16:05:55Z</time></trkpt><trkpt lat="45.78259474984982" lon="4.850261498430874"><ele>172.0</ele><time>2026-04-24T16:05:57Z</time></trkpt><trkpt lat="45.78267594242822" lon="4.850404618376271"><ele>172.16666666666669</ele><time>2026-04-24T16:05:59Z</time></trkpt><trkpt lat="45.782715890222995" lon="4.850483407262062"><ele>172.33333333333334</ele><time>2026-04-24T16:06:00Z</time></trkpt><trkpt lat="45.78276235780408" lon="4.850571542286441"><ele>172.5</ele><time>2026-04-24T16:06:01Z</time></trkpt><trkpt lat="45.78281713482456" lon="4.8506625249195245"><ele>172.66666666666666</ele><time>2026-04-24T16:06:02Z</time></trkpt><trkpt lat="45.782868454047104" lon="4.8507509814765415"><ele>172.83333333333331</ele><time>2026-04-24T16:06:03Z</time></trkpt><trkpt lat="45.782912284046965" lon="4.850832927230633"><ele>173.0</ele><time>2026-04-24T16:06:04Z</time></trkpt><trkpt lat="45.7829676494417" lon="4.850915300540865"><ele>173.16666666666666</ele><time>2026-04-24T16:06:05Z</time></trkpt><trkpt lat="45.78301164665775" lon="4.851004950414677"><ele>173.33333333333331</ele><time>2026-04-24T16:06:06Z</time></trkpt><trkpt lat="45.78305928822883" lon="4.851092368138013"><ele>173.5</ele><time>2026-04-24T16:06:07Z</time></trkpt><trkpt lat="45.78310681454804" lon="4.851182528119033"><ele>173.66666666666666</ele><time>2026-04-24T16:06:08Z</time></trkpt><trkpt lat="45.78315348571597" lon="4.851268764902198"><ele>173.83333333333334</ele><time>2026-04-24T16:06:09Z</time></trkpt><trkpt lat="45.783194397620214" lon="4.851358066225324"><ele>174.0</ele><time>2026-04-24T16:06:10Z</time></trkpt><trkpt lat="45.78323833051893" lon="4.851449324432877"><ele>174.0</ele><time>2026-04-24T16:06:11Z</time></trkpt><trkpt lat="45.783277596825414" lon="4.851540816533008"><ele>174.0</ele><time>2026-04-24T16:06:12Z</time></trkpt><trkpt lat="45.783323078308605" lon="4.851630682742184"><ele>174.0</ele><time>2026-04-24T16:06:13Z</time></trkpt><trkpt lat="45.783364827303096" lon="4.851722051937433"><ele>174.0</ele><time>2026-04-24T16:06:14Z</time></trkpt><trkpt lat="45.78340714906898" lon="4.851814033975688"><ele>174.0</ele><time>2026-04-24T16:06:15Z</time></trkpt><trkpt lat="45.783448043885286" lon="4.851905844792221"><ele>174.0</ele><time>2026-04-24T16:06:16Z</time></trkpt><trkpt lat="45.783487213398196" lon="4.851995145535855"><ele>174.66666666666666</ele><time>2026-04-24T16:06:17Z</time></trkpt><trkpt lat="45.78352735623485" lon="4.852087149821266"><ele>175.33333333333334</ele><time>2026-04-24T16:06:18Z</time></trkpt><trkpt lat="45.783569796253744" lon="4.852178741778745"><ele>176.0</ele><time>2026-04-24T16:06:19Z</time></trkpt><trkpt lat="45.78361279137819" lon="4.852267849482067"><ele>176.66666666666669</ele><time>2026-04-24T16:06:20Z</time></trkpt><trkpt lat="45.78365650730453" lon="4.852355063483913"><ele>177.33333333333334</ele><time>2026-04-24T16:06:21Z</time></trkpt><trkpt lat="45.783691308297584" lon="4.852430302071884"><ele>178.0</ele><time>2026-04-24T16:06:22Z</time></trkpt><trkpt lat="45.78374754783025" lon="4.852557601399382"><ele>178.28571428571428</ele><time>2026-04-24T16:06:24Z</time></trkpt><trkpt lat="45.78379125988387" lon="4.852645751064306"><ele>178.57142857142856</ele><time>2026-04-24T16:06:26Z</time></trkpt><trkpt lat="45.78382366094853" lon="4.852738163883096"><ele>178.85714285714283</ele><time>2026-04-24T16:06:29Z</time></trkpt><trkpt lat="45.7838588603222" lon="4.852824706045044"><ele>179.14285714285714</ele><time>2026-04-24T16:06:34Z</time></trkpt><trkpt lat="45.783897362042836" lon="4.85289670638523"><ele>179.42857142857144</ele><time>2026-04-24T16:06:39Z</time></trkpt><trkpt lat="45.78394213089728" lon="4.853009188522618"><ele>179.7142857142857</ele><time>2026-04-24T16:06:47Z</time></trkpt><trkpt lat="45.78396745961362" lon="4.853093228769532"><ele>180.0</ele><time>2026-04-24T16:06:49Z</time></trkpt><trkpt lat="45.78400165145708" lon="4.853177043935813"><ele>180.0</ele><time>2026-04-24T16:06:51Z</time></trkpt><trkpt lat="45.78403764318492" lon="4.853297364537905"><ele>180.0</ele><time>2026-04-24T16:06:53.999Z</time></trkpt><trkpt lat="45.78407543522392" lon="4.8534136070473854"><ele>180.0</ele><time>2026-04-24T16:06:55.999Z</time></trkpt><trkpt lat="45.78412338536539" lon="4.853555905989108"><ele>180.0</ele><time>2026-04-24T16:06:57.999Z</time></trkpt><trkpt lat="45.78415158963577" lon="4.853637363421111"><ele>180.0</ele><time>2026-04-24T16:06:58.999Z</time></trkpt><trkpt lat="45.784177737442455" lon="4.853720849522318"><ele>180.0</ele><time>2026-04-24T16:07:00Z</time></trkpt><trkpt lat="45.784205227642666" lon="4.853804876276968"><ele>178.75</ele><time>2026-04-24T16:07:01Z</time></trkpt><trkpt lat="45.78425466805911" lon="4.853959507046983"><ele>177.5</ele><time>2026-04-24T16:07:03Z</time></trkpt><trkpt lat="45.78429523627368" lon="4.854123393225277"><ele>176.25</ele><time>2026-04-24T16:07:05Z</time></trkpt><trkpt lat="45.78434075298708" lon="4.854269795928319"><ele>175.0</ele><time>2026-04-24T16:07:07Z</time></trkpt><trkpt lat="45.78436481652519" lon="4.85441651539468"><ele>174.75</ele><time>2026-04-24T16:07:09Z</time></trkpt><trkpt lat="45.784398491783485" lon="4.854567440764378"><ele>174.5</ele><time>2026-04-24T16:07:11Z</time></trkpt><trkpt lat="45.78443027908533" lon="4.854723316678712"><ele>174.25</ele><time>2026-04-24T16:07:13Z</time></trkpt><trkpt lat="45.784461297856524" lon="4.8548906291633935"><ele>174.0</ele><time>2026-04-24T16:07:15Z</time></trkpt><trkpt lat="45.78448928426142" lon="4.85505691171348"><ele>173.79999999999998</ele><time>2026-04-24T16:07:17Z</time></trkpt><trkpt lat="45.78451606857623" lon="4.855225584389441"><ele>173.6</ele><time>2026-04-24T16:07:19Z</time></trkpt><trkpt lat="45.78453933213783" lon="4.855381119405901"><ele>173.4</ele><time>2026-04-24T16:07:21Z</time></trkpt><trkpt lat="45.78456053403393" lon="4.855529556150658"><ele>173.2</ele><time>2026-04-24T16:07:23Z</time></trkpt><trkpt lat="45.78458008231498" lon="4.855673037711119"><ele>173.0</ele><time>2026-04-24T16:07:25Z</time></trkpt><trkpt lat="45.78459780147025" lon="4.855816323882696"><ele>173.0</ele><time>2026-04-24T16:07:27Z</time></trkpt><trkpt lat="45.78461306605599" lon="4.855939761203387"><ele>173.0</ele><time>2026-04-24T16:07:29Z</time></trkpt><trkpt lat="45.78462723714394" lon="4.856062233110407"><ele>173.0</ele><time>2026-04-24T16:07:31Z</time></trkpt><trkpt lat="45.784638080590184" lon="4.856164354280675"><ele>173.0</ele><time>2026-04-24T16:07:33Z</time></trkpt><trkpt lat="45.7846485652648" lon="4.856271424665642"><ele>173.0</ele><time>2026-04-24T16:07:35Z</time></trkpt><trkpt lat="45.78465947474668" lon="4.856397382662349"><ele>173.0</ele><time>2026-04-24T16:07:37Z</time></trkpt><trkpt lat="45.78467837491835" lon="4.856542293582142"><ele>173.0</ele><time>2026-04-24T16:07:39Z</time></trkpt><trkpt lat="45.78467066716377" lon="4.8567093318533106"><ele>173.0</ele><time>2026-04-24T16:07:41Z</time></trkpt><trkpt lat="45.78466627250598" lon="4.856861947190816"><ele>173.0</ele><time>2026-04-24T16:07:43Z</time></trkpt><trkpt lat="45.78466057528864" lon="4.857029644928447"><ele>173.0</ele><time>2026-04-24T16:07:45Z</time></trkpt><trkpt lat="45.784657619611956" lon="4.857122028182092"><ele>173.0</ele><time>2026-04-24T16:07:46Z</time></trkpt><trkpt lat="45.784654558688004" lon="4.857217701032659"><ele>172.83333333333331</ele><time>2026-04-24T16:07:47Z</time></trkpt><trkpt lat="45.78465081704037" lon="4.857330415054425"><ele>172.66666666666666</ele><time>2026-04-24T16:07:48Z</time></trkpt><trkpt lat="45.784647374475256" lon="4.857425429953206"><ele>172.5</ele><time>2026-04-24T16:07:49Z</time></trkpt><trkpt lat="45.78464398497464" lon="4.857518980144483"><ele>172.33333333333334</ele><time>2026-04-24T16:07:50Z</time></trkpt><trkpt lat="45.78464065960793" lon="4.857610760290442"><ele>172.16666666666669</ele><time>2026-04-24T16:07:51Z</time></trkpt><trkpt lat="45.784652825141976" lon="4.857705034485256"><ele>172.0</ele><time>2026-04-24T16:07:52Z</time></trkpt><trkpt lat="45.784647081234766" lon="4.857884220684637"><ele>172.0</ele><time>2026-04-24T16:07:54Z</time></trkpt><trkpt lat="45.78462657648491" lon="4.858042594741563"><ele>172.0</ele><time>2026-04-24T16:07:56Z</time></trkpt><trkpt lat="45.78462297628765" lon="4.8581947330720325"><ele>172.0</ele><time>2026-04-24T16:07:58Z</time></trkpt><trkpt lat="45.78462533086114" lon="4.858370111995666"><ele>172.0</ele><time>2026-04-24T16:08:00Z</time></trkpt><trkpt lat="45.78462208354489" lon="4.858533387416719"><ele>172.0</ele><time>2026-04-24T16:08:02Z</time></trkpt><trkpt lat="45.78462598678954" lon="4.8586879090085695"><ele>172.0</ele><time>2026-04-24T16:08:04Z</time></trkpt><trkpt lat="45.78463035160942" lon="4.858830160063059"><ele>172.0</ele><time>2026-04-24T16:08:06Z</time></trkpt><trkpt lat="45.78463977746741" lon="4.858959639525648"><ele>172.0</ele><time>2026-04-24T16:08:08Z</time></trkpt><trkpt lat="45.78463553335825" lon="4.859084130525989"><ele>172.0</ele><time>2026-04-24T16:08:10Z</time></trkpt><trkpt lat="45.784622947351146" lon="4.859231434701916"><ele>172.16666666666669</ele><time>2026-04-24T16:08:12Z</time></trkpt><trkpt lat="45.784617678832" lon="4.859371053576513"><ele>172.33333333333334</ele><time>2026-04-24T16:08:14Z</time></trkpt><trkpt lat="45.78460423003011" lon="4.859501154594535"><ele>172.5</ele><time>2026-04-24T16:08:16Z</time></trkpt><trkpt lat="45.78459835834157" lon="4.859612733646333"><ele>172.66666666666666</ele><time>2026-04-24T16:08:18Z</time></trkpt><trkpt lat="45.784593962644394" lon="4.859719254424092"><ele>172.83333333333331</ele><time>2026-04-24T16:08:20Z</time></trkpt><trkpt lat="45.78459602515547" lon="4.859821368482115"><ele>173.0</ele><time>2026-04-24T16:08:23Z</time></trkpt><trkpt lat="45.78458181369262" lon="4.859911752639641"><ele>173.0</ele><time>2026-04-24T16:08:30Z</time></trkpt><trkpt lat="45.78459928741263" lon="4.860003997376502"><ele>173.0</ele><time>2026-04-24T16:08:34Z</time></trkpt><trkpt lat="45.78460786302523" lon="4.860099757558063"><ele>173.0</ele><time>2026-04-24T16:08:39Z</time></trkpt><trkpt lat="45.78461686267202" lon="4.860200252786139"><ele>173.0</ele><time>2026-04-24T16:08:43Z</time></trkpt><trkpt lat="45.78450935804009" lon="4.860313942274108"><ele>173.0</ele><time>2026-04-24T16:08:47Z</time></trkpt><trkpt lat="45.7845027700671" lon="4.860439923506686"><ele>173.0</ele><time>2026-04-24T16:08:50Z</time></trkpt><trkpt lat="45.784492541142725" lon="4.8605635111070375"><ele>172.8</ele><time>2026-04-24T16:08:53Z</time></trkpt><trkpt lat="45.78448627262519" lon="4.860692143525812"><ele>172.60000000000002</ele><time>2026-04-24T16:08:55Z</time></trkpt><trkpt lat="45.78448640684791" lon="4.86083898000427"><ele>172.39999999999998</ele><time>2026-04-24T16:08:57Z</time></trkpt><trkpt lat="45.78448947400038" lon="4.860996155335274"><ele>172.2</ele><time>2026-04-24T16:08:59Z</time></trkpt><trkpt lat="45.784488277343044" lon="4.861152838674815"><ele>172.0</ele><time>2026-04-24T16:09:00.999Z</time></trkpt><trkpt lat="45.78448269905235" lon="4.8612901925447725"><ele>172.0</ele><time>2026-04-24T16:09:02.999Z</time></trkpt><trkpt lat="45.78448357014937" lon="4.861446132677316"><ele>172.0</ele><time>2026-04-24T16:09:04.999Z</time></trkpt><trkpt lat="45.78447501849245" lon="4.861580827383319"><ele>172.0</ele><time>2026-04-24T16:09:07Z</time></trkpt><trkpt lat="45.784472453342474" lon="4.861740898359641"><ele>172.0</ele><time>2026-04-24T16:09:09Z</time></trkpt><trkpt lat="45.78446711381168" lon="4.861898526970929"><ele>172.0</ele><time>2026-04-24T16:09:11Z</time></trkpt><trkpt lat="45.78454514375206" lon="4.862064057030625"><ele>172.0</ele><time>2026-04-24T16:09:13Z</time></trkpt><trkpt lat="45.784550028609345" lon="4.862218629936696"><ele>172.0</ele><time>2026-04-24T16:09:15Z</time></trkpt><trkpt lat="45.78456665463123" lon="4.86237820642664"><ele>172.0</ele><time>2026-04-24T16:09:17Z</time></trkpt><trkpt lat="45.78459557710765" lon="4.862534906229491"><ele>172.0</ele><time>2026-04-24T16:09:19Z</time></trkpt><trkpt lat="45.78463191618818" lon="4.862701516435376"><ele>172.66666666666669</ele><time>2026-04-24T16:09:21Z</time></trkpt><trkpt lat="45.78475828823034" lon="4.862906125883384"><ele>173.33333333333334</ele><time>2026-04-24T16:09:23Z</time></trkpt><trkpt lat="45.784778583114885" lon="4.863102821182692"><ele>174.0</ele><time>2026-04-24T16:09:24Z</time></trkpt><trkpt lat="45.784748839003065" lon="4.8632961619194806"><ele>174.0</ele><time>2026-04-24T16:09:25Z</time></trkpt><trkpt lat="45.78472835406062" lon="4.863385586762323"><ele>174.0</ele><time>2026-04-24T16:09:27Z</time></trkpt><trkpt lat="45.78472585909664" lon="4.863482312576754"><ele>174.0</ele><time>2026-04-24T16:09:28Z</time></trkpt><trkpt lat="45.78473076832854" lon="4.863605232746731"><ele>174.0</ele><time>2026-04-24T16:09:30Z</time></trkpt><trkpt lat="45.78475191843636" lon="4.863727069300103"><ele>174.0</ele><time>2026-04-24T16:09:32Z</time></trkpt><trkpt lat="45.78474732119918" lon="4.863844726338895"><ele>174.0</ele><time>2026-04-24T16:09:33Z</time></trkpt><trkpt lat="45.784764505887026" lon="4.863962307517112"><ele>174.0</ele><time>2026-04-24T16:09:34Z</time></trkpt><trkpt lat="45.78467609786842" lon="4.864271852193551"><ele>174.0</ele><time>2026-04-24T16:09:35Z</time></trkpt><trkpt lat="45.784633259288114" lon="4.864378669654398"><ele>174.0</ele><time>2026-04-24T16:09:37Z</time></trkpt><trkpt lat="45.7845952829083" lon="4.864502150755103"><ele>174.0</ele><time>2026-04-24T16:09:39Z</time></trkpt><trkpt lat="45.78456605688804" lon="4.86462168243417"><ele>173.79999999999998</ele><time>2026-04-24T16:09:41Z</time></trkpt><trkpt lat="45.784543515540825" lon="4.864747171755156"><ele>173.6</ele><time>2026-04-24T16:09:43Z</time></trkpt><trkpt lat="45.78453475791618" lon="4.8648685914541625"><ele>173.4</ele><time>2026-04-24T16:09:45Z</time></trkpt><trkpt lat="45.7845386475795" lon="4.8649958655303855"><ele>173.2</ele><time>2026-04-24T16:09:47Z</time></trkpt><trkpt lat="45.78454739218935" lon="4.865118682203601"><ele>173.0</ele><time>2026-04-24T16:09:49Z</time></trkpt><trkpt lat="45.78455890036142" lon="4.865260244654199"><ele>173.0</ele><time>2026-04-24T16:09:51Z</time></trkpt><trkpt lat="45.7845710680788" lon="4.8653994550026765"><ele>173.0</ele><time>2026-04-24T16:09:53Z</time></trkpt><trkpt lat="45.78458243723436" lon="4.865526819938859"><ele>173.0</ele><time>2026-04-24T16:09:55Z</time></trkpt><trkpt lat="45.78459389754701" lon="4.865655206017614"><ele>173.0</ele><time>2026-04-24T16:09:57Z</time></trkpt><trkpt lat="45.784604584665566" lon="4.86577493032046"><ele>173.0</ele><time>2026-04-24T16:09:59Z</time></trkpt><trkpt lat="45.78461470732652" lon="4.865884433818104"><ele>173.0</ele><time>2026-04-24T16:10:01Z</time></trkpt><trkpt lat="45.7846263986687" lon="4.866010055017652"><ele>173.0</ele><time>2026-04-24T16:10:03Z</time></trkpt><trkpt lat="45.784637875022625" lon="4.866133366240739"><ele>173.0</ele><time>2026-04-24T16:10:05Z</time></trkpt><trkpt lat="45.78464748520017" lon="4.866244834837273"><ele>173.0</ele><time>2026-04-24T16:10:07Z</time></trkpt><trkpt lat="45.78465633076202" lon="4.866349436749678"><ele>173.0</ele><time>2026-04-24T16:10:09Z</time></trkpt><trkpt lat="45.78466481022078" lon="4.866449709307088"><ele>173.0</ele><time>2026-04-24T16:10:11Z</time></trkpt><trkpt lat="45.78467296057553" lon="4.8665460901497335"><ele>173.0</ele><time>2026-04-24T16:10:13Z</time></trkpt><trkpt lat="45.784682300703956" lon="4.866646956838599"><ele>173.0</ele><time>2026-04-24T16:10:15Z</time></trkpt><trkpt lat="45.784692353762324" lon="4.866751892695605"><ele>173.0</ele><time>2026-04-24T16:10:17Z</time></trkpt><trkpt lat="45.784702355024336" lon="4.866856287866833"><ele>173.0</ele><time>2026-04-24T16:10:19Z</time></trkpt><trkpt lat="45.78471605158018" lon="4.867003880519823"><ele>173.0</ele><time>2026-04-24T16:10:22Z</time></trkpt><trkpt lat="45.7847242219256" lon="4.867096641133857"><ele>173.0</ele><time>2026-04-24T16:10:24Z</time></trkpt><trkpt lat="45.784734585604575" lon="4.867201431742688"><ele>173.0</ele><time>2026-04-24T16:10:27Z</time></trkpt><trkpt lat="45.78472483070445" lon="4.867103552853691"><ele>173.0</ele><time>2026-04-24T16:10:36Z</time></trkpt><trkpt lat="45.784714830109685" lon="4.866990012807909"><ele>173.0</ele><time>2026-04-24T16:10:38Z</time></trkpt><trkpt lat="45.784700118379476" lon="4.866832941857769"><ele>173.0</ele><time>2026-04-24T16:10:40Z</time></trkpt><trkpt lat="45.78468421446192" lon="4.866666933537062"><ele>173.0</ele><time>2026-04-24T16:10:42Z</time></trkpt><trkpt lat="45.78467066403766" lon="4.866518933130568"><ele>173.0</ele><time>2026-04-24T16:10:44Z</time></trkpt><trkpt lat="45.78466208626204" lon="4.866417497643502"><ele>173.0</ele><time>2026-04-24T16:10:46Z</time></trkpt><trkpt lat="45.78465337044311" lon="4.866314429981682"><ele>173.0</ele><time>2026-04-24T16:10:48Z</time></trkpt><trkpt lat="45.78464289692177" lon="4.866190576882876"><ele>173.0</ele><time>2026-04-24T16:10:50Z</time></trkpt><trkpt lat="45.78463026207059" lon="4.866051566914255"><ele>173.0</ele><time>2026-04-24T16:10:52Z</time></trkpt><trkpt lat="45.78460593811988" lon="4.865848613786074"><ele>173.0</ele><time>2026-04-24T16:10:54Z</time></trkpt><trkpt lat="45.78438883778641" lon="4.865774499160913"><ele>173.0</ele><time>2026-04-24T16:10:55Z</time></trkpt><trkpt lat="45.784389327938605" lon="4.865678192250414"><ele>173.0</ele><time>2026-04-24T16:10:56Z</time></trkpt><trkpt lat="45.7842635463333" lon="4.865560198914434"><ele>173.0</ele><time>2026-04-24T16:10:58Z</time></trkpt><trkpt lat="45.784226310514605" lon="4.865421136513439"><ele>173.0</ele><time>2026-04-24T16:11:00Z</time></trkpt><trkpt lat="45.784187013449134" lon="4.865313009555732"><ele>173.0</ele><time>2026-04-24T16:11:02Z</time></trkpt><trkpt lat="45.78415082224572" lon="4.8652272922532696"><ele>173.0</ele><time>2026-04-24T16:11:04Z</time></trkpt><trkpt lat="45.78432043933866" lon="4.865031620537039"><ele>173.0</ele><time>2026-04-24T16:11:05Z</time></trkpt><trkpt lat="45.78435586715271" lon="4.864908455047193"><ele>173.0</ele><time>2026-04-24T16:11:07Z</time></trkpt><trkpt lat="45.78437649231194" lon="4.864763235946298"><ele>173.0</ele><time>2026-04-24T16:11:09Z</time></trkpt><trkpt lat="45.784383617357264" lon="4.864610096444008"><ele>173.0</ele><time>2026-04-24T16:11:10.999Z</time></trkpt><trkpt lat="45.784386950973555" lon="4.864457495870098"><ele>173.0</ele><time>2026-04-24T16:11:13Z</time></trkpt><trkpt lat="45.78439672550839" lon="4.864307302146504"><ele>173.0</ele><time>2026-04-24T16:11:15Z</time></trkpt><trkpt lat="45.78440469474916" lon="4.864169132871255"><ele>173.0</ele><time>2026-04-24T16:11:17Z</time></trkpt><trkpt lat="45.78430904017063" lon="4.864113545033539"><ele>173.0</ele><time>2026-04-24T16:11:18Z</time></trkpt><trkpt lat="45.78441354443375" lon="4.864079014137279"><ele>173.14285714285714</ele><time>2026-04-24T16:11:19Z</time></trkpt><trkpt lat="45.78446216656586" lon="4.863988908432642"><ele>173.2857142857143</ele><time>2026-04-24T16:11:23Z</time></trkpt><trkpt lat="45.78447169102976" lon="4.8638853975465866"><ele>173.42857142857144</ele><time>2026-04-24T16:11:25Z</time></trkpt><trkpt lat="45.78446351268987" lon="4.863785981386289"><ele>173.57142857142856</ele><time>2026-04-24T16:11:27Z</time></trkpt><trkpt lat="45.7844566452257" lon="4.863685395392914"><ele>173.71428571428572</ele><time>2026-04-24T16:11:29Z</time></trkpt><trkpt lat="45.784462540830134" lon="4.863551980917112"><ele>173.85714285714286</ele><time>2026-04-24T16:11:32Z</time></trkpt><trkpt lat="45.78451375849428" lon="4.863497782436425"><ele>174.0</ele><time>2026-04-24T16:11:35Z</time></trkpt><trkpt lat="45.78455554602504" lon="4.8634124429597705"><ele>174.0</ele><time>2026-04-24T16:11:38Z</time></trkpt><trkpt lat="45.78457572206488" lon="4.863315226059078"><ele>174.0</ele><time>2026-04-24T16:11:40Z</time></trkpt><trkpt lat="45.78459435418976" lon="4.863192670245132"><ele>174.0</ele><time>2026-04-24T16:11:43Z</time></trkpt><trkpt lat="45.7846255789246" lon="4.863081753270563"><ele>174.0</ele><time>2026-04-24T16:11:46Z</time></trkpt><trkpt lat="45.784677758130734" lon="4.863026668035291"><ele>174.0</ele><time>2026-04-24T16:11:49Z</time></trkpt><trkpt lat="45.78474483971249" lon="4.862984624578532"><ele>174.0</ele><time>2026-04-24T16:12:29Z</time></trkpt><trkpt lat="45.78479584597429" lon="4.862919678388628"><ele>174.0</ele><time>2026-04-24T16:12:32Z</time></trkpt><trkpt lat="45.78485330695455" lon="4.862853062793751"><ele>174.0</ele><time>2026-04-24T16:12:35Z</time></trkpt><trkpt lat="45.784926769834506" lon="4.862792996712331"><ele>174.0</ele><time>2026-04-24T16:12:38Z</time></trkpt><trkpt lat="45.785012579062105" lon="4.8627551074570325"><ele>174.0</ele><time>2026-04-24T16:12:41Z</time></trkpt><trkpt lat="45.78510511817589" lon="4.8627489437088975"><ele>174.0</ele><time>2026-04-24T16:12:44Z</time></trkpt><trkpt lat="45.78518394136105" lon="4.862759726871578"><ele>174.0</ele><time>2026-04-24T16:12:47Z</time></trkpt><trkpt lat="45.78523903439123" lon="4.8628252852513665"><ele>174.0</ele><time>2026-04-24T16:13:13Z</time></trkpt><trkpt lat="45.78531791677813" lon="4.862855558463431"><ele>173.14285714285714</ele><time>2026-04-24T16:13:16.999Z</time></trkpt><trkpt lat="45.78537629620944" lon="4.862903898713223"><ele>172.28571428571428</ele><time>2026-04-24T16:13:32Z</time></trkpt><trkpt lat="45.78543374040548" lon="4.862947552900722"><ele>171.42857142857144</ele><time>2026-04-24T16:13:36Z</time></trkpt><trkpt lat="45.78550040557625" lon="4.862972556204528"><ele>170.57142857142856</ele><time>2026-04-24T16:14:02Z</time></trkpt><trkpt lat="45.78555387009909" lon="4.863038055351267"><ele>169.71428571428572</ele><time>2026-04-24T16:14:06Z</time></trkpt><trkpt lat="45.78558932157732" lon="4.863115461691631"><ele>168.85714285714286</ele><time>2026-04-24T16:14:09Z</time></trkpt><trkpt lat="45.78561878509541" lon="4.863215109618394"><ele>168.0</ele><time>2026-04-24T16:14:13Z</time></trkpt><trkpt lat="45.78567511903724" lon="4.863125536450248"><ele>168.0</ele><time>2026-04-24T16:14:16Z</time></trkpt><trkpt lat="45.78569810167154" lon="4.863039117237824"><ele>168.0</ele><time>2026-04-24T16:14:18Z</time></trkpt><trkpt lat="45.785733215635126" lon="4.862935576354856"><ele>168.0</ele><time>2026-04-24T16:14:20Z</time></trkpt><trkpt lat="45.78576688913159" lon="4.862803773889613"><ele>168.0</ele><time>2026-04-24T16:14:22Z</time></trkpt><trkpt lat="45.78581937580525" lon="4.86266054319086"><ele>168.0</ele><time>2026-04-24T16:14:24Z</time></trkpt><trkpt lat="45.785863128528156" lon="4.862512395128672"><ele>168.0</ele><time>2026-04-24T16:14:26Z</time></trkpt><trkpt lat="45.7859008001235" lon="4.8623843804032845"><ele>168.0</ele><time>2026-04-24T16:14:28Z</time></trkpt><trkpt lat="45.78593432766941" lon="4.862265361302094"><ele>168.0</ele><time>2026-04-24T16:14:30Z</time></trkpt><trkpt lat="45.78596519291072" lon="4.8621688071480165"><ele>168.0</ele><time>2026-04-24T16:14:32Z</time></trkpt><trkpt lat="45.786003468852634" lon="4.862083873223722"><ele>168.0</ele><time>2026-04-24T16:14:35Z</time></trkpt><trkpt lat="45.78604506422761" lon="4.86215195880494"><ele>168.0</ele><time>2026-04-24T16:14:38Z</time></trkpt><trkpt lat="45.78601631566947" lon="4.862259805035364"><ele>168.0</ele><time>2026-04-24T16:14:40Z</time></trkpt><trkpt lat="45.7859859739518" lon="4.86238613003239"><ele>168.0</ele><time>2026-04-24T16:14:42Z</time></trkpt><trkpt lat="45.78596048049343" lon="4.862539301790148"><ele>168.0</ele><time>2026-04-24T16:14:44Z</time></trkpt><trkpt lat="45.78594113066457" lon="4.862684891553541"><ele>168.0</ele><time>2026-04-24T16:14:46Z</time></trkpt><trkpt lat="45.78590599542255" lon="4.86283170579117"><ele>168.0</ele><time>2026-04-24T16:14:48Z</time></trkpt><trkpt lat="45.78586812816945" lon="4.862978620098985"><ele>168.0</ele><time>2026-04-24T16:14:50Z</time></trkpt><trkpt lat="45.785827677831286" lon="4.863118079401648"><ele>168.0</ele><time>2026-04-24T16:14:52Z</time></trkpt><trkpt lat="45.78578861462906" lon="4.86323879357169"><ele>168.0</ele><time>2026-04-24T16:14:54Z</time></trkpt><trkpt lat="45.78575796951976" lon="4.8633584658823885"><ele>168.0</ele><time>2026-04-24T16:14:56Z</time></trkpt><trkpt lat="45.78574797781208" lon="4.863492971146186"><ele>168.0</ele><time>2026-04-24T16:14:58Z</time></trkpt><trkpt lat="45.78575855690751" lon="4.863629889776743"><ele>168.2</ele><time>2026-04-24T16:15:00Z</time></trkpt><trkpt lat="45.78576037742798" lon="4.863755460981364"><ele>168.4</ele><time>2026-04-24T16:15:02Z</time></trkpt><trkpt lat="45.785773312129976" lon="4.863875862538913"><ele>168.6</ele><time>2026-04-24T16:15:04Z</time></trkpt><trkpt lat="45.7857839631982" lon="4.864023150815406"><ele>168.79999999999998</ele><time>2026-04-24T16:15:06Z</time></trkpt><trkpt lat="45.785800814029734" lon="4.864160149053231"><ele>169.0</ele><time>2026-04-24T16:15:08Z</time></trkpt><trkpt lat="45.785833954877084" lon="4.864282665854852"><ele>169.33333333333334</ele><time>2026-04-24T16:15:10Z</time></trkpt><trkpt lat="45.78584599100436" lon="4.864394051552965"><ele>169.66666666666669</ele><time>2026-04-24T16:15:12Z</time></trkpt><trkpt lat="45.785862583268255" lon="4.8645031974403645"><ele>170.0</ele><time>2026-04-24T16:15:14Z</time></trkpt><trkpt lat="45.7858845038423" lon="4.864626368812963"><ele>170.33333333333334</ele><time>2026-04-24T16:15:16Z</time></trkpt><trkpt lat="45.78590163845501" lon="4.864761388450468"><ele>170.66666666666666</ele><time>2026-04-24T16:15:18Z</time></trkpt><trkpt lat="45.78591506429787" lon="4.864896701805249"><ele>171.0</ele><time>2026-04-24T16:15:20Z</time></trkpt><trkpt lat="45.78593367921291" lon="4.865025846570716"><ele>171.60000000000002</ele><time>2026-04-24T16:15:22Z</time></trkpt><trkpt lat="45.785965743195305" lon="4.8651490653065945"><ele>172.2</ele><time>2026-04-24T16:15:24Z</time></trkpt><trkpt lat="45.7859918000743" lon="4.865293676376389"><ele>172.8</ele><time>2026-04-24T16:15:26Z</time></trkpt><trkpt lat="45.78600854669312" lon="4.865440139627079"><ele>173.39999999999998</ele><time>2026-04-24T16:15:28Z</time></trkpt><trkpt lat="45.78604141364536" lon="4.86559756508982"><ele>174.0</ele><time>2026-04-24T16:15:30Z</time></trkpt><trkpt lat="45.78606513127632" lon="4.8657545214008335"><ele>172.6</ele><time>2026-04-24T16:15:32Z</time></trkpt><trkpt lat="45.78610107688585" lon="4.865898079476805"><ele>171.2</ele><time>2026-04-24T16:15:34Z</time></trkpt><trkpt lat="45.786123653610574" lon="4.866048276968564"><ele>169.79999999999998</ele><time>2026-04-24T16:15:36Z</time></trkpt><trkpt lat="45.78613813719479" lon="4.866190748083982"><ele>168.39999999999998</ele><time>2026-04-24T16:15:38Z</time></trkpt><trkpt lat="45.786166533584364" lon="4.8663395740121125"><ele>167.0</ele><time>2026-04-24T16:15:40Z</time></trkpt><trkpt lat="45.78619162487137" lon="4.866478222596572"><ele>167.0</ele><time>2026-04-24T16:15:42Z</time></trkpt><trkpt lat="45.78621934714779" lon="4.866629803736211"><ele>167.0</ele><time>2026-04-24T16:15:44Z</time></trkpt><trkpt lat="45.7862532925056" lon="4.86677657272259"><ele>167.0</ele><time>2026-04-24T16:15:46Z</time></trkpt><trkpt lat="45.78627334430048" lon="4.866906039153027"><ele>167.0</ele><time>2026-04-24T16:15:48Z</time></trkpt><trkpt lat="45.78631859418796" lon="4.8670299546148925"><ele>167.0</ele><time>2026-04-24T16:15:50Z</time></trkpt><trkpt lat="45.7863481538988" lon="4.867155366226827"><ele>167.66666666666666</ele><time>2026-04-24T16:15:52Z</time></trkpt><trkpt lat="45.7863673449601" lon="4.86725647836458"><ele>168.33333333333331</ele><time>2026-04-24T16:15:54Z</time></trkpt><trkpt lat="45.78639886315812" lon="4.867344462933142"><ele>169.0</ele><time>2026-04-24T16:15:57Z</time></trkpt><trkpt lat="45.78640473369011" lon="4.867231676820101"><ele>169.66666666666666</ele><time>2026-04-24T16:20:32Z</time></trkpt><trkpt lat="45.78637607078852" lon="4.867127246493223"><ele>170.33333333333334</ele><time>2026-04-24T16:20:35Z</time></trkpt><trkpt lat="45.78633214603003" lon="4.866977518197548"><ele>171.0</ele><time>2026-04-24T16:20:38Z</time></trkpt><trkpt lat="45.78630475675243" lon="4.866878922332833"><ele>171.0</ele><time>2026-04-24T16:20:40Z</time></trkpt><trkpt lat="45.78628331765085" lon="4.86678638427312"><ele>171.0</ele><time>2026-04-24T16:20:42Z</time></trkpt><trkpt lat="45.786256920470024" lon="4.866682259700735"><ele>171.0</ele><time>2026-04-24T16:20:44Z</time></trkpt><trkpt lat="45.7862342179431" lon="4.866547161907278"><ele>171.0</ele><time>2026-04-24T16:20:46Z</time></trkpt><trkpt lat="45.78620359073701" lon="4.86638942685308"><ele>171.0</ele><time>2026-04-24T16:20:48Z</time></trkpt><trkpt lat="45.786160930930805" lon="4.866220126054834"><ele>170.0</ele><time>2026-04-24T16:20:50Z</time></trkpt><trkpt lat="45.78612787151309" lon="4.8660573673556815"><ele>169.0</ele><time>2026-04-24T16:20:52Z</time></trkpt><trkpt lat="45.786094362283315" lon="4.865904973826056"><ele>168.0</ele><time>2026-04-24T16:20:54Z</time></trkpt><trkpt lat="45.786060383375144" lon="4.865741667607217"><ele>167.0</ele><time>2026-04-24T16:20:56Z</time></trkpt><trkpt lat="45.78603242050019" lon="4.865567921395456"><ele>167.66666666666666</ele><time>2026-04-24T16:20:58Z</time></trkpt><trkpt lat="45.7859984504229" lon="4.8654149633492"><ele>168.33333333333331</ele><time>2026-04-24T16:21:00Z</time></trkpt><trkpt lat="45.785981771161936" lon="4.865315879912496"><ele>169.0</ele><time>2026-04-24T16:21:01Z</time></trkpt><trkpt lat="45.78596140616167" lon="4.86521426878142"><ele>169.66666666666666</ele><time>2026-04-24T16:21:02Z</time></trkpt><trkpt lat="45.785953369274594" lon="4.865115439964838"><ele>170.33333333333334</ele><time>2026-04-24T16:21:03Z</time></trkpt><trkpt lat="45.7859213165884" lon="4.864949506815485"><ele>171.0</ele><time>2026-04-24T16:21:05Z</time></trkpt><trkpt lat="45.785900135778185" lon="4.864779261854059"><ele>171.0</ele><time>2026-04-24T16:21:07Z</time></trkpt><trkpt lat="45.785880083975535" lon="4.864611296038312"><ele>171.0</ele><time>2026-04-24T16:21:09Z</time></trkpt><trkpt lat="45.785861090015125" lon="4.864454010357777"><ele>171.0</ele><time>2026-04-24T16:21:11Z</time></trkpt><trkpt lat="45.78584197950187" lon="4.864304524664546"><ele>171.0</ele><time>2026-04-24T16:21:13Z</time></trkpt><trkpt lat="45.78583160674118" lon="4.864163573121966"><ele>171.0</ele><time>2026-04-24T16:21:15Z</time></trkpt><trkpt lat="45.78579757813967" lon="4.864008607996826"><ele>170.60000000000002</ele><time>2026-04-24T16:21:17Z</time></trkpt><trkpt lat="45.78577942921364" lon="4.863870799427246"><ele>170.2</ele><time>2026-04-24T16:21:19Z</time></trkpt><trkpt lat="45.785767025912186" lon="4.863722050354614"><ele>169.8</ele><time>2026-04-24T16:21:21Z</time></trkpt><trkpt lat="45.78577168427481" lon="4.86356110937569"><ele>169.39999999999998</ele><time>2026-04-24T16:21:23Z</time></trkpt><trkpt lat="45.78576466836977" lon="4.863401989187773"><ele>169.0</ele><time>2026-04-24T16:21:25Z</time></trkpt><trkpt lat="45.78579734502916" lon="4.863264595176102"><ele>168.75</ele><time>2026-04-24T16:21:27Z</time></trkpt><trkpt lat="45.7858434439587" lon="4.863123073743269"><ele>168.5</ele><time>2026-04-24T16:21:29Z</time></trkpt><trkpt lat="45.78588948981847" lon="4.862976395343657"><ele>168.25</ele><time>2026-04-24T16:21:31Z</time></trkpt><trkpt lat="45.785932131771965" lon="4.8628227041923475"><ele>168.0</ele><time>2026-04-24T16:21:33Z</time></trkpt><trkpt lat="45.785963018141736" lon="4.862656980929209"><ele>168.0</ele><time>2026-04-24T16:21:35Z</time></trkpt><trkpt lat="45.78599641217126" lon="4.862484612006727"><ele>168.0</ele><time>2026-04-24T16:21:37Z</time></trkpt><trkpt lat="45.78601027991385" lon="4.862395975851567"><ele>168.0</ele><time>2026-04-24T16:21:38Z</time></trkpt><trkpt lat="45.786036992097664" lon="4.862222544507407"><ele>168.0</ele><time>2026-04-24T16:21:40Z</time></trkpt><trkpt lat="45.786048889461824" lon="4.862062019089545"><ele>168.0</ele><time>2026-04-24T16:21:42Z</time></trkpt><trkpt lat="45.78606756768083" lon="4.8618895443464405"><ele>167.71428571428572</ele><time>2026-04-24T16:21:44Z</time></trkpt><trkpt lat="45.78607316008023" lon="4.861799075817459"><ele>167.42857142857144</ele><time>2026-04-24T16:21:45Z</time></trkpt><trkpt lat="45.78608229052909" lon="4.861707682523086"><ele>167.14285714285714</ele><time>2026-04-24T16:21:46Z</time></trkpt><trkpt lat="45.786090804418116" lon="4.861616225955949"><ele>166.85714285714286</ele><time>2026-04-24T16:21:47Z</time></trkpt><trkpt lat="45.78609752308073" lon="4.861519525501734"><ele>166.57142857142858</ele><time>2026-04-24T16:21:48Z</time></trkpt><trkpt lat="45.786103382384546" lon="4.8614215900441735"><ele>166.28571428571428</ele><time>2026-04-24T16:21:49Z</time></trkpt><trkpt lat="45.7861086433232" lon="4.861321446529383"><ele>166.0</ele><time>2026-04-24T16:21:50Z</time></trkpt><trkpt lat="45.786117091192494" lon="4.8612239339771275"><ele>166.0</ele><time>2026-04-24T16:21:51Z</time></trkpt><trkpt lat="45.7861210941714" lon="4.861121189336451"><ele>166.0</ele><time>2026-04-24T16:21:52Z</time></trkpt><trkpt lat="45.78612576661287" lon="4.861022560520297"><ele>166.0</ele><time>2026-04-24T16:21:53Z</time></trkpt><trkpt lat="45.78613722210489" lon="4.860926097123711"><ele>166.0</ele><time>2026-04-24T16:21:54Z</time></trkpt><trkpt lat="45.786142592507964" lon="4.860827005541103"><ele>166.0</ele><time>2026-04-24T16:21:55Z</time></trkpt><trkpt lat="45.78614986435006" lon="4.860726392249188"><ele>166.0</ele><time>2026-04-24T16:21:56Z</time></trkpt><trkpt lat="45.78616015661657" lon="4.860623233125534"><ele>166.0</ele><time>2026-04-24T16:21:57Z</time></trkpt><trkpt lat="45.78616835583053" lon="4.860520160924511"><ele>166.0</ele><time>2026-04-24T16:21:58Z</time></trkpt><trkpt lat="45.78617951181821" lon="4.860424815073201"><ele>166.0</ele><time>2026-04-24T16:21:59Z</time></trkpt><trkpt lat="45.7861841159235" lon="4.86032432477473"><ele>166.0</ele><time>2026-04-24T16:22:00Z</time></trkpt><trkpt lat="45.78618539365943" lon="4.860218276700426"><ele>166.0</ele><time>2026-04-24T16:22:01Z</time></trkpt><trkpt lat="45.786180809798765" lon="4.860109582966569"><ele>166.0</ele><time>2026-04-24T16:22:02Z</time></trkpt><trkpt lat="45.7862119107148" lon="4.859984450568734"><ele>166.0</ele><time>2026-04-24T16:22:03Z</time></trkpt><trkpt lat="45.78621411547772" lon="4.859885380260983"><ele>166.0</ele><time>2026-04-24T16:22:04Z</time></trkpt><trkpt lat="45.786223796579364" lon="4.859779684635644"><ele>166.0</ele><time>2026-04-24T16:22:05Z</time></trkpt><trkpt lat="45.78623082108315" lon="4.859672660493789"><ele>166.0</ele><time>2026-04-24T16:22:06Z</time></trkpt><trkpt lat="45.7862357363158" lon="4.859562978792073"><ele>166.0</ele><time>2026-04-24T16:22:07Z</time></trkpt><trkpt lat="45.786241860414194" lon="4.859449619749724"><ele>166.0</ele><time>2026-04-24T16:22:08Z</time></trkpt><trkpt lat="45.786244957585545" lon="4.8593477900546915"><ele>166.0</ele><time>2026-04-24T16:22:09Z</time></trkpt><trkpt lat="45.78625111893699" lon="4.859245876296737"><ele>166.0</ele><time>2026-04-24T16:22:10Z</time></trkpt><trkpt lat="45.78625419845234" lon="4.8591461821931805"><ele>166.0</ele><time>2026-04-24T16:22:11Z</time></trkpt><trkpt lat="45.78626341964611" lon="4.859040954306828"><ele>166.0</ele><time>2026-04-24T16:22:12Z</time></trkpt><trkpt lat="45.786268304030024" lon="4.858940529689625"><ele>166.0</ele><time>2026-04-24T16:22:13Z</time></trkpt><trkpt lat="45.786267003930455" lon="4.85883967117452"><ele>166.0</ele><time>2026-04-24T16:22:14Z</time></trkpt><trkpt lat="45.786267878854154" lon="4.858742921253909"><ele>166.0</ele><time>2026-04-24T16:22:15Z</time></trkpt><trkpt lat="45.78627572378524" lon="4.85864430445218"><ele>166.0</ele><time>2026-04-24T16:22:16Z</time></trkpt><trkpt lat="45.78627680792337" lon="4.858539418626126"><ele>166.0</ele><time>2026-04-24T16:22:17Z</time></trkpt><trkpt lat="45.786278873978446" lon="4.858433107055659"><ele>166.0</ele><time>2026-04-24T16:22:18Z</time></trkpt><trkpt lat="45.786291594814344" lon="4.858325400398883"><ele>166.0</ele><time>2026-04-24T16:22:19Z</time></trkpt><trkpt lat="45.78629794138862" lon="4.858217465019809"><ele>166.0</ele><time>2026-04-24T16:22:20Z</time></trkpt><trkpt lat="45.78630685931368" lon="4.858109818307292"><ele>166.0</ele><time>2026-04-24T16:22:21Z</time></trkpt><trkpt lat="45.78631301331699" lon="4.858000536280087"><ele>166.0</ele><time>2026-04-24T16:22:22Z</time></trkpt><trkpt lat="45.786315601420796" lon="4.857895041189232"><ele>166.0</ele><time>2026-04-24T16:22:23Z</time></trkpt><trkpt lat="45.786320089858734" lon="4.857788750556843"><ele>166.0</ele><time>2026-04-24T16:22:24Z</time></trkpt><trkpt lat="45.78632356310931" lon="4.857673730455177"><ele>166.0</ele><time>2026-04-24T16:22:25Z</time></trkpt><trkpt lat="45.78632661946882" lon="4.857559530273467"><ele>166.0</ele><time>2026-04-24T16:22:26Z</time></trkpt><trkpt lat="45.78632872189398" lon="4.857445529871612"><ele>166.0</ele><time>2026-04-24T16:22:27Z</time></trkpt><trkpt lat="45.7863283153105" lon="4.857332990067122"><ele>166.0</ele><time>2026-04-24T16:22:28Z</time></trkpt><trkpt lat="45.78632667613864" lon="4.8572182021622"><ele>166.0</ele><time>2026-04-24T16:22:29Z</time></trkpt><trkpt lat="45.786328260784096" lon="4.857108831220598"><ele>166.0</ele><time>2026-04-24T16:22:30Z</time></trkpt><trkpt lat="45.786325654171875" lon="4.857004886913403"><ele>166.0</ele><time>2026-04-24T16:22:31Z</time></trkpt><trkpt lat="45.786322183017575" lon="4.8569056813583815"><ele>166.0</ele><time>2026-04-24T16:22:32Z</time></trkpt><trkpt lat="45.786320058273404" lon="4.856808277800365"><ele>166.0</ele><time>2026-04-24T16:22:33Z</time></trkpt><trkpt lat="45.78631775064581" lon="4.856707122606078"><ele>166.0</ele><time>2026-04-24T16:22:34Z</time></trkpt><trkpt lat="45.7863105116815" lon="4.856608647245683"><ele>166.0</ele><time>2026-04-24T16:22:35Z</time></trkpt><trkpt lat="45.786303432472586" lon="4.856514137750476"><ele>166.0</ele><time>2026-04-24T16:22:36Z</time></trkpt><trkpt lat="45.786297544182425" lon="4.856419282741551"><ele>166.0</ele><time>2026-04-24T16:22:37Z</time></trkpt><trkpt lat="45.78629206402476" lon="4.856324480179926"><ele>166.0</ele><time>2026-04-24T16:22:38Z</time></trkpt><trkpt lat="45.78628240129952" lon="4.85622632986894"><ele>166.0</ele><time>2026-04-24T16:22:39Z</time></trkpt><trkpt lat="45.78627938670861" lon="4.856051675333997"><ele>166.0</ele><time>2026-04-24T16:22:41Z</time></trkpt><trkpt lat="45.78626979003937" lon="4.855952270664034"><ele>166.0</ele><time>2026-04-24T16:22:42Z</time></trkpt><trkpt lat="45.78626152342669" lon="4.855855845351642"><ele>166.0</ele><time>2026-04-24T16:22:43Z</time></trkpt><trkpt lat="45.786251483864866" lon="4.85575821361975"><ele>166.0</ele><time>2026-04-24T16:22:44Z</time></trkpt><trkpt lat="45.78624668341978" lon="4.855661998150139"><ele>166.0</ele><time>2026-04-24T16:22:45Z</time></trkpt><trkpt lat="45.786235682686524" lon="4.85557243335951"><ele>166.0</ele><time>2026-04-24T16:22:46Z</time></trkpt><trkpt lat="45.786226115603604" lon="4.855480929588918"><ele>166.0</ele><time>2026-04-24T16:22:47Z</time></trkpt><trkpt lat="45.786216195779524" lon="4.855389997675788"><ele>166.0</ele><time>2026-04-24T16:22:48Z</time></trkpt><trkpt lat="45.78620536819804" lon="4.855295572311817"><ele>166.0</ele><time>2026-04-24T16:22:49Z</time></trkpt><trkpt lat="45.78619504316723" lon="4.855200105641004"><ele>166.0</ele><time>2026-04-24T16:22:50Z</time></trkpt><trkpt lat="45.786185842320485" lon="4.855106965049469"><ele>166.0</ele><time>2026-04-24T16:22:51Z</time></trkpt><trkpt lat="45.786172609072466" lon="4.855016107061055"><ele>166.0</ele><time>2026-04-24T16:22:52Z</time></trkpt><trkpt lat="45.78616506481034" lon="4.854925970985134"><ele>166.0</ele><time>2026-04-24T16:22:53Z</time></trkpt><trkpt lat="45.78613192477517" lon="4.854755332720444"><ele>166.0</ele><time>2026-04-24T16:22:55Z</time></trkpt><trkpt lat="45.78610916864744" lon="4.854589834494277"><ele>166.0</ele><time>2026-04-24T16:22:57Z</time></trkpt><trkpt lat="45.78606931669558" lon="4.854420682066314"><ele>166.0</ele><time>2026-04-24T16:22:59Z</time></trkpt><trkpt lat="45.786030699203906" lon="4.854243821916289"><ele>166.0</ele><time>2026-04-24T16:23:01Z</time></trkpt><trkpt lat="45.786026305158295" lon="4.854148756133717"><ele>166.0</ele><time>2026-04-24T16:23:02Z</time></trkpt><trkpt lat="45.78601544125967" lon="4.854058429382355"><ele>166.0</ele><time>2026-04-24T16:23:03Z</time></trkpt><trkpt lat="45.78600316962681" lon="4.853966614369414"><ele>166.0</ele><time>2026-04-24T16:23:04Z</time></trkpt><trkpt lat="45.78598159990917" lon="4.8538695525161"><ele>166.0</ele><time>2026-04-24T16:23:05Z</time></trkpt><trkpt lat="45.7859617688879" lon="4.853772079594276"><ele>166.0</ele><time>2026-04-24T16:23:06Z</time></trkpt><trkpt lat="45.78593962894503" lon="4.853675494015297"><ele>166.0</ele><time>2026-04-24T16:23:07Z</time></trkpt><trkpt lat="45.78591387470932" lon="4.85358249370466"><ele>166.14285714285714</ele><time>2026-04-24T16:23:08Z</time></trkpt><trkpt lat="45.78588839013612" lon="4.8534874181967345"><ele>166.2857142857143</ele><time>2026-04-24T16:23:09Z</time></trkpt><trkpt lat="45.78586263935931" lon="4.8533903122156845"><ele>166.42857142857144</ele><time>2026-04-24T16:23:10Z</time></trkpt><trkpt lat="45.785833203236116" lon="4.853297012785973"><ele>166.57142857142856</ele><time>2026-04-24T16:23:11Z</time></trkpt><trkpt lat="45.785805145916264" lon="4.853196441320233"><ele>166.71428571428572</ele><time>2026-04-24T16:23:12Z</time></trkpt><trkpt lat="45.78577971252828" lon="4.85310040542426"><ele>166.85714285714286</ele><time>2026-04-24T16:23:13Z</time></trkpt><trkpt lat="45.78574900918564" lon="4.853011033442326"><ele>167.0</ele><time>2026-04-24T16:23:14Z</time></trkpt><trkpt lat="45.78572871654035" lon="4.852913111221441"><ele>167.0</ele><time>2026-04-24T16:23:15Z</time></trkpt><trkpt lat="45.78569047390022" lon="4.8528275394650935"><ele>167.0</ele><time>2026-04-24T16:23:16Z</time></trkpt><trkpt lat="45.78566197875386" lon="4.852735591686827"><ele>167.0</ele><time>2026-04-24T16:23:17Z</time></trkpt><trkpt lat="45.78563365410989" lon="4.8526417641315645"><ele>167.0</ele><time>2026-04-24T16:23:18Z</time></trkpt><trkpt lat="45.78561097655096" lon="4.852539505873369"><ele>167.0</ele><time>2026-04-24T16:23:19Z</time></trkpt><trkpt lat="45.78558389731565" lon="4.852444546158132"><ele>167.0</ele><time>2026-04-24T16:23:20Z</time></trkpt><trkpt lat="45.78555481943669" lon="4.852359663848927"><ele>167.0</ele><time>2026-04-24T16:23:21Z</time></trkpt><trkpt lat="45.785526211084" lon="4.8522734395443585"><ele>166.83333333333331</ele><time>2026-04-24T16:23:22Z</time></trkpt><trkpt lat="45.7854924895256" lon="4.852182660291037"><ele>166.66666666666666</ele><time>2026-04-24T16:23:23Z</time></trkpt><trkpt lat="45.78545909116295" lon="4.852089673949239"><ele>166.5</ele><time>2026-04-24T16:23:24Z</time></trkpt><trkpt lat="45.785424091295425" lon="4.8519982534858865"><ele>166.33333333333334</ele><time>2026-04-24T16:23:25Z</time></trkpt><trkpt lat="45.78539306037409" lon="4.851911864816004"><ele>166.16666666666669</ele><time>2026-04-24T16:23:26Z</time></trkpt><trkpt lat="45.78536701098384" lon="4.8518258854091725"><ele>166.0</ele><time>2026-04-24T16:23:27Z</time></trkpt><trkpt lat="45.78530680487931" lon="4.851664591516911"><ele>166.0</ele><time>2026-04-24T16:23:29Z</time></trkpt><trkpt lat="45.78523617991539" lon="4.851518174265582"><ele>166.0</ele><time>2026-04-24T16:23:31Z</time></trkpt><trkpt lat="45.78519574887152" lon="4.851352189389271"><ele>166.0</ele><time>2026-04-24T16:23:33Z</time></trkpt><trkpt lat="45.78512549024215" lon="4.851221906381251"><ele>166.0</ele><time>2026-04-24T16:23:35Z</time></trkpt><trkpt lat="45.78506065042138" lon="4.851090189012836"><ele>166.0</ele><time>2026-04-24T16:23:37Z</time></trkpt><trkpt lat="45.7850053583081" lon="4.85095438719795"><ele>166.0</ele><time>2026-04-24T16:23:39Z</time></trkpt><trkpt lat="45.78494489044438" lon="4.850825218760598"><ele>166.0</ele><time>2026-04-24T16:23:41Z</time></trkpt><trkpt lat="45.784883469019675" lon="4.850709412784189"><ele>166.0</ele><time>2026-04-24T16:23:43Z</time></trkpt><trkpt lat="45.78482247774425" lon="4.850581755674565"><ele>166.0</ele><time>2026-04-24T16:23:45Z</time></trkpt><trkpt lat="45.78475345599701" lon="4.850452389235954"><ele>166.0</ele><time>2026-04-24T16:23:47Z</time></trkpt><trkpt lat="45.784681710073386" lon="4.850327739128957"><ele>166.0</ele><time>2026-04-24T16:23:49Z</time></trkpt><trkpt lat="45.78461446333595" lon="4.8501814745151615"><ele>166.0</ele><time>2026-04-24T16:23:51Z</time></trkpt><trkpt lat="45.78457139394396" lon="4.8501078614245685"><ele>166.0</ele><time>2026-04-24T16:23:52Z</time></trkpt><trkpt lat="45.78449544060268" lon="4.849965169103087"><ele>166.0</ele><time>2026-04-24T16:23:54Z</time></trkpt><trkpt lat="45.78442010532" lon="4.8498302714802275"><ele>166.0</ele><time>2026-04-24T16:23:56Z</time></trkpt><trkpt lat="45.784349393470514" lon="4.849702302957071"><ele>166.0</ele><time>2026-04-24T16:23:58Z</time></trkpt><trkpt lat="45.784273946499745" lon="4.8495702984924804"><ele>166.0</ele><time>2026-04-24T16:24:00Z</time></trkpt><trkpt lat="45.78419473948609" lon="4.849439927019012"><ele>166.0</ele><time>2026-04-24T16:24:02Z</time></trkpt><trkpt lat="45.784119319456984" lon="4.849315632113694"><ele>166.20000000000002</ele><time>2026-04-24T16:24:04Z</time></trkpt><trkpt lat="45.78405032234205" lon="4.849201630976432"><ele>166.4</ele><time>2026-04-24T16:24:06Z</time></trkpt><trkpt lat="45.78397898193944" lon="4.849082769724661"><ele>166.6</ele><time>2026-04-24T16:24:08Z</time></trkpt><trkpt lat="45.78390146382564" lon="4.848969636218768"><ele>166.8</ele><time>2026-04-24T16:24:10Z</time></trkpt><trkpt lat="45.783822392463314" lon="4.848846781184885"><ele>167.0</ele><time>2026-04-24T16:24:12Z</time></trkpt><trkpt lat="45.783744519248174" lon="4.848725969654172"><ele>167.0</ele><time>2026-04-24T16:24:14Z</time></trkpt><trkpt lat="45.78365899735654" lon="4.8486176900575355"><ele>167.0</ele><time>2026-04-24T16:24:16Z</time></trkpt><trkpt lat="45.78357325506352" lon="4.848497581602197"><ele>167.0</ele><time>2026-04-24T16:24:18Z</time></trkpt><trkpt lat="45.78349536196585" lon="4.848372642512228"><ele>167.0</ele><time>2026-04-24T16:24:20Z</time></trkpt><trkpt lat="45.78341762103696" lon="4.848260679529574"><ele>167.75</ele><time>2026-04-24T16:24:22Z</time></trkpt><trkpt lat="45.783343028517514" lon="4.848163266073305"><ele>168.5</ele><time>2026-04-24T16:24:24Z</time></trkpt><trkpt lat="45.78327221798788" lon="4.848076865667571"><ele>169.25</ele><time>2026-04-24T16:24:26Z</time></trkpt><trkpt lat="45.783107726873794" lon="4.8481269761553225"><ele>170.0</ele><time>2026-04-24T16:24:28Z</time></trkpt><trkpt lat="45.78302647134064" lon="4.848019648140852"><ele>170.0</ele><time>2026-04-24T16:24:30Z</time></trkpt><trkpt lat="45.782942700067366" lon="4.847910145202148"><ele>170.0</ele><time>2026-04-24T16:24:32Z</time></trkpt><trkpt lat="45.78286322506544" lon="4.847814107693646"><ele>170.0</ele><time>2026-04-24T16:24:34Z</time></trkpt><trkpt lat="45.78278159537488" lon="4.847720376414121"><ele>170.0</ele><time>2026-04-24T16:24:36Z</time></trkpt><trkpt lat="45.78269725005153" lon="4.847625616834564"><ele>170.0</ele><time>2026-04-24T16:24:38Z</time></trkpt><trkpt lat="45.78260537014879" lon="4.84752436433949"><ele>169.6</ele><time>2026-04-24T16:24:40Z</time></trkpt><trkpt lat="45.782515572911585" lon="4.847428620681933"><ele>169.2</ele><time>2026-04-24T16:24:42Z</time></trkpt><trkpt lat="45.78242109446481" lon="4.847334842969034"><ele>168.8</ele><time>2026-04-24T16:24:44Z</time></trkpt><trkpt lat="45.78233240551491" lon="4.847252189687019"><ele>168.4</ele><time>2026-04-24T16:24:46Z</time></trkpt><trkpt lat="45.78224194280781" lon="4.84717124797132"><ele>168.0</ele><time>2026-04-24T16:24:48Z</time></trkpt><trkpt lat="45.78214854224997" lon="4.847089317398009"><ele>168.0</ele><time>2026-04-24T16:24:50Z</time></trkpt><trkpt lat="45.78205295314751" lon="4.847007603386779"><ele>168.0</ele><time>2026-04-24T16:24:52Z</time></trkpt><trkpt lat="45.78195767911357" lon="4.846931716088672"><ele>168.0</ele><time>2026-04-24T16:24:54Z</time></trkpt><trkpt lat="45.7818750192441" lon="4.84686906147958"><ele>168.0</ele><time>2026-04-24T16:24:56Z</time></trkpt><trkpt lat="45.78178272672191" lon="4.846800932700874"><ele>168.0</ele><time>2026-04-24T16:24:58Z</time></trkpt><trkpt lat="45.781724716991235" lon="4.846759620011066"><ele>168.2</ele><time>2026-04-24T16:24:59Z</time></trkpt><trkpt lat="45.78165715126968" lon="4.846711501893472"><ele>168.4</ele><time>2026-04-24T16:25:00Z</time></trkpt><trkpt lat="45.78159813184138" lon="4.846671714926809"><ele>168.6</ele><time>2026-04-24T16:25:01Z</time></trkpt><trkpt lat="45.78149217389025" lon="4.8466034845323795"><ele>168.79999999999998</ele><time>2026-04-24T16:25:03Z</time></trkpt><trkpt lat="45.781396856185395" lon="4.846543616733585"><ele>169.0</ele><time>2026-04-24T16:25:05Z</time></trkpt><trkpt lat="45.78130248495234" lon="4.846485041477475"><ele>169.0</ele><time>2026-04-24T16:25:07Z</time></trkpt><trkpt lat="45.781212122197665" lon="4.846428954301192"><ele>169.0</ele><time>2026-04-24T16:25:09Z</time></trkpt><trkpt lat="45.78112489605138" lon="4.846378518310394"><ele>169.0</ele><time>2026-04-24T16:25:11Z</time></trkpt><trkpt lat="45.78102712011057" lon="4.846322813141809"><ele>169.0</ele><time>2026-04-24T16:25:13Z</time></trkpt><trkpt lat="45.78092298760478" lon="4.846266194546086"><ele>169.0</ele><time>2026-04-24T16:25:15Z</time></trkpt><trkpt lat="45.780816858471354" lon="4.846208288865044"><ele>169.6</ele><time>2026-04-24T16:25:17Z</time></trkpt><trkpt lat="45.78071814756066" lon="4.846154430671776"><ele>170.2</ele><time>2026-04-24T16:25:19Z</time></trkpt><trkpt lat="45.780619112495664" lon="4.846100395704213"><ele>170.79999999999998</ele><time>2026-04-24T16:25:21Z</time></trkpt><trkpt lat="45.780530079473955" lon="4.84605619454856"><ele>171.39999999999998</ele><time>2026-04-24T16:25:23Z</time></trkpt><trkpt lat="45.780417059116246" lon="4.846000762012411"><ele>172.0</ele><time>2026-04-24T16:25:25Z</time></trkpt><trkpt lat="45.78030558059525" lon="4.845938444511037"><ele>171.0</ele><time>2026-04-24T16:25:27Z</time></trkpt><trkpt lat="45.78019070981165" lon="4.845872852914593"><ele>170.0</ele><time>2026-04-24T16:25:29Z</time></trkpt><trkpt lat="45.78007655164675" lon="4.8458076682264615"><ele>169.0</ele><time>2026-04-24T16:25:31Z</time></trkpt><trkpt lat="45.7800154818907" lon="4.8457727971884905"><ele>168.0</ele><time>2026-04-24T16:25:32Z</time></trkpt><trkpt lat="45.779948328011045" lon="4.845734452250228"><ele>167.0</ele><time>2026-04-24T16:25:33Z</time></trkpt><trkpt lat="45.77985971519114" lon="4.845628037560577"><ele>167.0</ele><time>2026-04-24T16:25:34Z</time></trkpt><trkpt lat="45.77979653234494" lon="4.845582086400618"><ele>167.0</ele><time>2026-04-24T16:25:35Z</time></trkpt><trkpt lat="45.779717665281105" lon="4.845523553808616"><ele>167.0</ele><time>2026-04-24T16:25:36Z</time></trkpt><trkpt lat="45.77964971276889" lon="4.84547029832523"><ele>167.0</ele><time>2026-04-24T16:25:37Z</time></trkpt><trkpt lat="45.77958525264672" lon="4.845419779847154"><ele>167.0</ele><time>2026-04-24T16:25:38Z</time></trkpt><trkpt lat="45.77951583412516" lon="4.845365375399904"><ele>167.0</ele><time>2026-04-24T16:25:39Z</time></trkpt><trkpt lat="45.779448770091285" lon="4.845312816212584"><ele>167.0</ele><time>2026-04-24T16:25:40Z</time></trkpt><trkpt lat="45.77937264671747" lon="4.845251572627829"><ele>167.0</ele><time>2026-04-24T16:25:41Z</time></trkpt><trkpt lat="45.77930448977944" lon="4.84519572413973"><ele>167.0</ele><time>2026-04-24T16:25:42Z</time></trkpt><trkpt lat="45.77923449983237" lon="4.845136509239937"><ele>167.0</ele><time>2026-04-24T16:25:43Z</time></trkpt><trkpt lat="45.77916978983434" lon="4.845081797407511"><ele>167.0</ele><time>2026-04-24T16:25:44Z</time></trkpt><trkpt lat="45.77910549188841" lon="4.845027433773915"><ele>167.0</ele><time>2026-04-24T16:25:45Z</time></trkpt><trkpt lat="45.77903866538566" lon="4.844970932200486"><ele>167.5</ele><time>2026-04-24T16:25:46Z</time></trkpt><trkpt lat="45.7789774969209" lon="4.844921488031808"><ele>168.0</ele><time>2026-04-24T16:25:47Z</time></trkpt><trkpt lat="45.778907304029424" lon="4.844866519557171"><ele>168.5</ele><time>2026-04-24T16:25:48Z</time></trkpt><trkpt lat="45.77883466534609" lon="4.844809637508435"><ele>169.0</ele><time>2026-04-24T16:25:49Z</time></trkpt><trkpt lat="45.77875813703871" lon="4.844748657976732"><ele>169.5</ele><time>2026-04-24T16:25:50Z</time></trkpt><trkpt lat="45.77868600989205" lon="4.844690988498321"><ele>170.0</ele><time>2026-04-24T16:25:51Z</time></trkpt><trkpt lat="45.77861397781374" lon="4.844633395056715"><ele>170.0</ele><time>2026-04-24T16:25:52Z</time></trkpt><trkpt lat="45.77854762641008" lon="4.84458056224434"><ele>170.0</ele><time>2026-04-24T16:25:53Z</time></trkpt><trkpt lat="45.778476995058796" lon="4.844526727115985"><ele>170.0</ele><time>2026-04-24T16:25:54.001Z</time></trkpt><trkpt lat="45.77840699506384" lon="4.8444733731995475"><ele>170.0</ele><time>2026-04-24T16:25:55.001Z</time></trkpt><trkpt lat="45.77834503679508" lon="4.844428802461244"><ele>170.0</ele><time>2026-04-24T16:25:56.001Z</time></trkpt><trkpt lat="45.77827825444353" lon="4.8443833438671975"><ele>170.0</ele><time>2026-04-24T16:25:57.001Z</time></trkpt><trkpt lat="45.778216999740124" lon="4.844347752114522"><ele>170.0</ele><time>2026-04-24T16:25:58.001Z</time></trkpt><trkpt lat="45.77814645155453" lon="4.844306033235196"><ele>169.8</ele><time>2026-04-24T16:25:59.001Z</time></trkpt><trkpt lat="45.7780835156767" lon="4.844271863919546"><ele>169.6</ele><time>2026-04-24T16:26:00.001Z</time></trkpt><trkpt lat="45.7780215861688" lon="4.844239277968154"><ele>169.39999999999998</ele><time>2026-04-24T16:26:01.001Z</time></trkpt><trkpt lat="45.77783531071723" lon="4.844148468685135"><ele>169.2</ele><time>2026-04-24T16:26:04.001Z</time></trkpt><trkpt lat="45.77777151457693" lon="4.844119370042756"><ele>169.0</ele><time>2026-04-24T16:26:05.001Z</time></trkpt><trkpt lat="45.777662924513436" lon="4.844072867536656"><ele>169.0</ele><time>2026-04-24T16:26:07.001Z</time></trkpt><trkpt lat="45.777547279674096" lon="4.844027784676321"><ele>169.0</ele><time>2026-04-24T16:26:09Z</time></trkpt><trkpt lat="45.7774429290421" lon="4.843992062980835"><ele>169.0</ele><time>2026-04-24T16:26:11Z</time></trkpt><trkpt lat="45.777378495110995" lon="4.843970739519558"><ele>169.0</ele><time>2026-04-24T16:26:12Z</time></trkpt><trkpt lat="45.777258442488005" lon="4.843932484547805"><ele>169.0</ele><time>2026-04-24T16:26:14Z</time></trkpt><trkpt lat="45.77714413768615" lon="4.84389727903611"><ele>169.0</ele><time>2026-04-24T16:26:16Z</time></trkpt><trkpt lat="45.777026293335105" lon="4.8438609833496065"><ele>169.0</ele><time>2026-04-24T16:26:18Z</time></trkpt><trkpt lat="45.7769106261575" lon="4.8438253582977895"><ele>169.0</ele><time>2026-04-24T16:26:20Z</time></trkpt><trkpt lat="45.77683385160195" lon="4.843773276200319"><ele>169.0</ele><time>2026-04-24T16:26:21Z</time></trkpt><trkpt lat="45.77672446268344" lon="4.84374907585384"><ele>169.0</ele><time>2026-04-24T16:26:23Z</time></trkpt><trkpt lat="45.77660471113277" lon="4.843698160879236"><ele>168.83333333333334</ele><time>2026-04-24T16:26:25Z</time></trkpt><trkpt lat="45.77654112057791" lon="4.843669279125389"><ele>168.66666666666669</ele><time>2026-04-24T16:26:26Z</time></trkpt><trkpt lat="45.776474413637104" lon="4.843636825065114"><ele>168.5</ele><time>2026-04-24T16:26:27Z</time></trkpt><trkpt lat="45.77640003674711" lon="4.843594561274134"><ele>168.33333333333334</ele><time>2026-04-24T16:26:28Z</time></trkpt><trkpt lat="45.77633144627473" lon="4.84355350665891"><ele>168.16666666666666</ele><time>2026-04-24T16:26:29Z</time></trkpt><trkpt lat="45.77626600233701" lon="4.843514335664344"><ele>168.0</ele><time>2026-04-24T16:26:30Z</time></trkpt><trkpt lat="45.77619578034807" lon="4.843437541442924"><ele>168.0</ele><time>2026-04-24T16:26:31Z</time></trkpt><trkpt lat="45.77613485221109" lon="4.843393456008029"><ele>168.0</ele><time>2026-04-24T16:26:32Z</time></trkpt><trkpt lat="45.776066319449505" lon="4.843344625050567"><ele>168.0</ele><time>2026-04-24T16:26:33Z</time></trkpt><trkpt lat="45.775997150558446" lon="4.843294932273003"><ele>168.0</ele><time>2026-04-24T16:26:34Z</time></trkpt><trkpt lat="45.77593114549702" lon="4.843248804108863"><ele>168.0</ele><time>2026-04-24T16:26:35Z</time></trkpt><trkpt lat="45.775864126085104" lon="4.843201934444811"><ele>168.0</ele><time>2026-04-24T16:26:36Z</time></trkpt><trkpt lat="45.77579506706" lon="4.8431536383809615"><ele>168.0</ele><time>2026-04-24T16:26:37Z</time></trkpt><trkpt lat="45.77572631182412" lon="4.8431055547892266"><ele>169.14285714285714</ele><time>2026-04-24T16:26:38Z</time></trkpt><trkpt lat="45.77565855256717" lon="4.843058167744536"><ele>170.28571428571428</ele><time>2026-04-24T16:26:39Z</time></trkpt><trkpt lat="45.77559161558181" lon="4.843011523312827"><ele>171.42857142857144</ele><time>2026-04-24T16:26:40Z</time></trkpt><trkpt lat="45.77552233643656" lon="4.84296328122217"><ele>172.57142857142856</ele><time>2026-04-24T16:26:41Z</time></trkpt><trkpt lat="45.77545553961327" lon="4.842916767660064"><ele>173.71428571428572</ele><time>2026-04-24T16:26:42Z</time></trkpt><trkpt lat="45.77538905766306" lon="4.842870473352059"><ele>174.85714285714286</ele><time>2026-04-24T16:26:43Z</time></trkpt><trkpt lat="45.775326790832885" lon="4.842827114224311"><ele>176.0</ele><time>2026-04-24T16:26:44Z</time></trkpt><trkpt lat="45.77525446781478" lon="4.842776361595881"><ele>175.83333333333331</ele><time>2026-04-24T16:26:45Z</time></trkpt><trkpt lat="45.77518543661933" lon="4.842727201157508"><ele>175.66666666666666</ele><time>2026-04-24T16:26:46Z</time></trkpt><trkpt lat="45.77512001329015" lon="4.842680304075428"><ele>175.5</ele><time>2026-04-24T16:26:47Z</time></trkpt><trkpt lat="45.77504970879773" lon="4.8426310851910594"><ele>175.33333333333334</ele><time>2026-04-24T16:26:48Z</time></trkpt><trkpt lat="45.774980551313874" lon="4.8425829479108895"><ele>175.16666666666669</ele><time>2026-04-24T16:26:49Z</time></trkpt><trkpt lat="45.77490808460328" lon="4.842532351589964"><ele>175.0</ele><time>2026-04-24T16:26:50Z</time></trkpt><trkpt lat="45.77484205237169" lon="4.842485054300003"><ele>174.0</ele><time>2026-04-24T16:26:51Z</time></trkpt><trkpt lat="45.77477894419551" lon="4.842442381577307"><ele>173.0</ele><time>2026-04-24T16:26:52Z</time></trkpt><trkpt lat="45.77471148849225" lon="4.842395774246362"><ele>172.0</ele><time>2026-04-24T16:26:53Z</time></trkpt><trkpt lat="45.77464343349591" lon="4.842348752672786"><ele>171.0</ele><time>2026-04-24T16:26:54Z</time></trkpt><trkpt lat="45.77457306753448" lon="4.8423005269280095"><ele>170.0</ele><time>2026-04-24T16:26:55Z</time></trkpt><trkpt lat="45.77450363566324" lon="4.842251933286839"><ele>169.0</ele><time>2026-04-24T16:26:56Z</time></trkpt><trkpt lat="45.77443382876703" lon="4.8422030776321305"><ele>169.0</ele><time>2026-04-24T16:26:57Z</time></trkpt><trkpt lat="45.77436503521546" lon="4.8421549310175696"><ele>169.0</ele><time>2026-04-24T16:26:58Z</time></trkpt><trkpt lat="45.77429386773383" lon="4.842103667737699"><ele>169.0</ele><time>2026-04-24T16:26:59Z</time></trkpt><trkpt lat="45.774226900601725" lon="4.8420551060066055"><ele>169.0</ele><time>2026-04-24T16:27:00Z</time></trkpt><trkpt lat="45.774156546350916" lon="4.842004085812878"><ele>169.0</ele><time>2026-04-24T16:27:01Z</time></trkpt><trkpt lat="45.774085943946744" lon="4.8419516985277395"><ele>169.0</ele><time>2026-04-24T16:27:02Z</time></trkpt><trkpt lat="45.774014250268834" lon="4.841897778121649"><ele>169.2</ele><time>2026-04-24T16:27:03Z</time></trkpt><trkpt lat="45.77386183240907" lon="4.841815086831049"><ele>169.39999999999998</ele><time>2026-04-24T16:27:05Z</time></trkpt><trkpt lat="45.77380004948456" lon="4.841763466284452"><ele>169.6</ele><time>2026-04-24T16:27:06Z</time></trkpt><trkpt lat="45.77373288360475" lon="4.8417067680421715"><ele>169.8</ele><time>2026-04-24T16:27:07Z</time></trkpt><trkpt lat="45.77367411471001" lon="4.841665217953532"><ele>170.0</ele><time>2026-04-24T16:27:08Z</time></trkpt><trkpt lat="45.77367556881644" lon="4.841421088193962"><ele>170.0</ele><time>2026-04-24T16:27:09Z</time></trkpt><trkpt lat="45.773606295105175" lon="4.841374244636088"><ele>170.0</ele><time>2026-04-24T16:27:10Z</time></trkpt><trkpt lat="45.773537398689285" lon="4.841320804642479"><ele>170.0</ele><time>2026-04-24T16:27:11Z</time></trkpt><trkpt lat="45.77346937777203" lon="4.8412704103417585"><ele>170.0</ele><time>2026-04-24T16:27:12Z</time></trkpt><trkpt lat="45.77340076163105" lon="4.841223816544476"><ele>170.0</ele><time>2026-04-24T16:27:13Z</time></trkpt><trkpt lat="45.773330592719006" lon="4.841175658348901"><ele>170.0</ele><time>2026-04-24T16:27:14Z</time></trkpt><trkpt lat="45.77326183870787" lon="4.841136188305846"><ele>169.5</ele><time>2026-04-24T16:27:15Z</time></trkpt><trkpt lat="45.7731963686642" lon="4.841085891058397"><ele>169.0</ele><time>2026-04-24T16:27:16Z</time></trkpt><trkpt lat="45.77312759968787" lon="4.841038534926417"><ele>168.5</ele><time>2026-04-24T16:27:17Z</time></trkpt><trkpt lat="45.77303431255655" lon="4.841070036778705"><ele>168.0</ele><time>2026-04-24T16:27:18Z</time></trkpt><trkpt lat="45.772968916820275" lon="4.84103053910242"><ele>167.5</ele><time>2026-04-24T16:27:19Z</time></trkpt><trkpt lat="45.77289717319318" lon="4.840990019912432"><ele>167.0</ele><time>2026-04-24T16:27:20Z</time></trkpt><trkpt lat="45.77282949082854" lon="4.8409550108890524"><ele>167.0</ele><time>2026-04-24T16:27:21Z</time></trkpt><trkpt lat="45.77276037237909" lon="4.840923554018934"><ele>167.0</ele><time>2026-04-24T16:27:22Z</time></trkpt><trkpt lat="45.77269462261525" lon="4.840899175049981"><ele>167.0</ele><time>2026-04-24T16:27:23Z</time></trkpt><trkpt lat="45.77262927815677" lon="4.840881007680721"><ele>167.0</ele><time>2026-04-24T16:27:24Z</time></trkpt><trkpt lat="45.77256149222253" lon="4.840865758273893"><ele>167.0</ele><time>2026-04-24T16:27:25Z</time></trkpt><trkpt lat="45.7724944693971" lon="4.840852596921938"><ele>167.0</ele><time>2026-04-24T16:27:26Z</time></trkpt><trkpt lat="45.77237059691071" lon="4.840829992128595"><ele>167.2</ele><time>2026-04-24T16:27:28Z</time></trkpt><trkpt lat="45.77230749351012" lon="4.840820154929228"><ele>167.39999999999998</ele><time>2026-04-24T16:27:29Z</time></trkpt><trkpt lat="45.77208369649055" lon="4.840789739727122"><ele>167.60000000000002</ele><time>2026-04-24T16:27:32Z</time></trkpt><trkpt lat="45.772003766559216" lon="4.84078631512609"><ele>167.8</ele><time>2026-04-24T16:27:33Z</time></trkpt><trkpt lat="45.7719248465961" lon="4.840791945526222"><ele>168.0</ele><time>2026-04-24T16:27:34Z</time></trkpt><trkpt lat="45.771849729647734" lon="4.840807553072743"><ele>168.0</ele><time>2026-04-24T16:27:35Z</time></trkpt><trkpt lat="45.771777420929354" lon="4.840824940226689"><ele>168.0</ele><time>2026-04-24T16:27:36Z</time></trkpt><trkpt lat="45.77170512687274" lon="4.840842948601946"><ele>168.0</ele><time>2026-04-24T16:27:37Z</time></trkpt><trkpt lat="45.77163297721516" lon="4.840861634495316"><ele>168.0</ele><time>2026-04-24T16:27:38Z</time></trkpt><trkpt lat="45.7715645242956" lon="4.840879362962987"><ele>168.0</ele><time>2026-04-24T16:27:39Z</time></trkpt><trkpt lat="45.77148730299749" lon="4.8408993623703775"><ele>168.0</ele><time>2026-04-24T16:27:40Z</time></trkpt><trkpt lat="45.77141495076845" lon="4.840917386238498"><ele>168.0</ele><time>2026-04-24T16:27:41Z</time></trkpt><trkpt lat="45.77134227775521" lon="4.840933671819015"><ele>168.0</ele><time>2026-04-24T16:27:42Z</time></trkpt><trkpt lat="45.771269723973475" lon="4.840949892173219"><ele>168.0</ele><time>2026-04-24T16:27:43Z</time></trkpt><trkpt lat="45.771191495257014" lon="4.840967256014245"><ele>168.0</ele><time>2026-04-24T16:27:44Z</time></trkpt><trkpt lat="45.77111822124311" lon="4.840981792550332"><ele>168.0</ele><time>2026-04-24T16:27:45Z</time></trkpt><trkpt lat="45.77104463785072" lon="4.840996390455408"><ele>168.0</ele><time>2026-04-24T16:27:46Z</time></trkpt><trkpt lat="45.77095707512721" lon="4.841031411949306"><ele>168.0</ele><time>2026-04-24T16:27:47Z</time></trkpt><trkpt lat="45.770859331923276" lon="4.8410296006579605"><ele>170.33333333333334</ele><time>2026-04-24T16:27:48Z</time></trkpt><trkpt lat="45.77078287218858" lon="4.841026308340159"><ele>172.66666666666666</ele><time>2026-04-24T16:27:49Z</time></trkpt><trkpt lat="45.77070883986027" lon="4.841023120546027"><ele>175.0</ele><time>2026-04-24T16:27:50Z</time></trkpt><trkpt lat="45.77063287248906" lon="4.841019849429798"><ele>177.33333333333331</ele><time>2026-04-24T16:27:51Z</time></trkpt><trkpt lat="45.77055402721229" lon="4.841016454392412"><ele>179.66666666666666</ele><time>2026-04-24T16:27:52Z</time></trkpt><trkpt lat="45.77047633251277" lon="4.841013108897663"><ele>182.0</ele><time>2026-04-24T16:27:53Z</time></trkpt><trkpt lat="45.77040323483994" lon="4.841009961350602"><ele>182.0</ele><time>2026-04-24T16:27:54Z</time></trkpt><trkpt lat="45.770321653341995" lon="4.8410064485029825"><ele>182.0</ele><time>2026-04-24T16:27:55Z</time></trkpt><trkpt lat="45.77024617139371" lon="4.841005311924952"><ele>182.0</ele><time>2026-04-24T16:27:56Z</time></trkpt><trkpt lat="45.77017246610015" lon="4.841004190203442"><ele>182.0</ele><time>2026-04-24T16:27:57Z</time></trkpt><trkpt lat="45.7700900587755" lon="4.841002936046552"><ele>182.0</ele><time>2026-04-24T16:27:58Z</time></trkpt><trkpt lat="45.77001476884622" lon="4.841002994965347"><ele>182.0</ele><time>2026-04-24T16:27:59Z</time></trkpt><trkpt lat="45.76993114213092" lon="4.841005352134685"><ele>182.0</ele><time>2026-04-24T16:28:00.001Z</time></trkpt><trkpt lat="45.76984859758069" lon="4.841007678800923"><ele>182.0</ele><time>2026-04-24T16:28:01.001Z</time></trkpt><trkpt lat="45.76975502727057" lon="4.841008828942045"><ele>182.0</ele><time>2026-04-24T16:28:02.001Z</time></trkpt><trkpt lat="45.769677207787076" lon="4.841004607156765"><ele>182.0</ele><time>2026-04-24T16:28:03.001Z</time></trkpt><trkpt lat="45.76961039601021" lon="4.841002735576145"><ele>182.0</ele><time>2026-04-24T16:28:04.001Z</time></trkpt><trkpt lat="45.76954739676348" lon="4.841006071548229"><ele>182.0</ele><time>2026-04-24T16:28:05.001Z</time></trkpt><trkpt lat="45.76947075839219" lon="4.841013622914812"><ele>182.0</ele><time>2026-04-24T16:28:06.001Z</time></trkpt><trkpt lat="45.769402399726005" lon="4.841024147128001"><ele>182.0</ele><time>2026-04-24T16:28:07.001Z</time></trkpt><trkpt lat="45.7693315069198" lon="4.84103477686769"><ele>182.0</ele><time>2026-04-24T16:28:08.001Z</time></trkpt><trkpt lat="45.76925572295588" lon="4.84104724196586"><ele>182.0</ele><time>2026-04-24T16:28:09.001Z</time></trkpt><trkpt lat="45.76917302934555" lon="4.841060767134148"><ele>182.0</ele><time>2026-04-24T16:28:10.001Z</time></trkpt><trkpt lat="45.76908878167159" lon="4.84107431520045"><ele>182.0</ele><time>2026-04-24T16:28:11.001Z</time></trkpt><trkpt lat="45.76900503657959" lon="4.841085073827421"><ele>180.83333333333331</ele><time>2026-04-24T16:28:12.001Z</time></trkpt><trkpt lat="45.76892323231035" lon="4.841095583110164"><ele>179.66666666666666</ele><time>2026-04-24T16:28:13.001Z</time></trkpt><trkpt lat="45.76884189587477" lon="4.841106032291345"><ele>178.5</ele><time>2026-04-24T16:28:14.001Z</time></trkpt><trkpt lat="45.7687645921864" lon="4.84111616972005"><ele>177.33333333333334</ele><time>2026-04-24T16:28:15Z</time></trkpt><trkpt lat="45.768687099659154" lon="4.841126688560487"><ele>176.16666666666669</ele><time>2026-04-24T16:28:16Z</time></trkpt><trkpt lat="45.76861003405676" lon="4.841137149486207"><ele>175.0</ele><time>2026-04-24T16:28:17Z</time></trkpt><trkpt lat="45.768530587218734" lon="4.841148749148671"><ele>174.33333333333334</ele><time>2026-04-24T16:28:18Z</time></trkpt><trkpt lat="45.768450874563165" lon="4.841160461466538"><ele>173.66666666666669</ele><time>2026-04-24T16:28:19Z</time></trkpt><trkpt lat="45.76836940111209" lon="4.84117243250067"><ele>173.0</ele><time>2026-04-24T16:28:20Z</time></trkpt><trkpt lat="45.76828880805295" lon="4.841184274177976"><ele>172.33333333333334</ele><time>2026-04-24T16:28:21Z</time></trkpt><trkpt lat="45.768203285919874" lon="4.841196596237118"><ele>171.66666666666666</ele><time>2026-04-24T16:28:22Z</time></trkpt><trkpt lat="45.76812561928663" lon="4.841207313221233"><ele>171.0</ele><time>2026-04-24T16:28:23Z</time></trkpt><trkpt lat="45.768047546601665" lon="4.84121808623869"><ele>171.0</ele><time>2026-04-24T16:28:24Z</time></trkpt><trkpt lat="45.76797773322699" lon="4.841227719577893"><ele>171.0</ele><time>2026-04-24T16:28:25Z</time></trkpt><trkpt lat="45.76791297314923" lon="4.841236655629146"><ele>171.0</ele><time>2026-04-24T16:28:26Z</time></trkpt><trkpt lat="45.76784249153331" lon="4.841245858086462"><ele>171.0</ele><time>2026-04-24T16:28:27Z</time></trkpt><trkpt lat="45.7677133944019" lon="4.841258604142773"><ele>171.0</ele><time>2026-04-24T16:28:29Z</time></trkpt><trkpt lat="45.76764746648754" lon="4.841263971309797"><ele>171.0</ele><time>2026-04-24T16:28:30Z</time></trkpt><trkpt lat="45.767524371719574" lon="4.841278256447553"><ele>172.83333333333334</ele><time>2026-04-24T16:28:32Z</time></trkpt><trkpt lat="45.76746110504948" lon="4.841287253831821"><ele>174.66666666666666</ele><time>2026-04-24T16:28:33Z</time></trkpt><trkpt lat="45.76739435390233" lon="4.84129630535558"><ele>176.5</ele><time>2026-04-24T16:28:34Z</time></trkpt><trkpt lat="45.76733114827643" lon="4.841304876100288"><ele>178.33333333333331</ele><time>2026-04-24T16:28:35Z</time></trkpt><trkpt lat="45.767216248206125" lon="4.841320456666318"><ele>180.16666666666666</ele><time>2026-04-24T16:28:37Z</time></trkpt><trkpt lat="45.76714182631589" lon="4.841330548350938"><ele>182.0</ele><time>2026-04-24T16:28:38Z</time></trkpt><trkpt lat="45.76706937492697" lon="4.841340372834221"><ele>182.0</ele><time>2026-04-24T16:28:39Z</time></trkpt><trkpt lat="45.767003049625345" lon="4.84134940791485"><ele>182.0</ele><time>2026-04-24T16:28:40Z</time></trkpt><trkpt lat="45.76693210418809" lon="4.84135909083932"><ele>182.0</ele><time>2026-04-24T16:28:41Z</time></trkpt><trkpt lat="45.76686325445136" lon="4.841368487734323"><ele>182.0</ele><time>2026-04-24T16:28:42Z</time></trkpt><trkpt lat="45.766790042151456" lon="4.841378555088919"><ele>182.0</ele><time>2026-04-24T16:28:43Z</time></trkpt><trkpt lat="45.7667193821421" lon="4.841388357984856"><ele>182.0</ele><time>2026-04-24T16:28:44Z</time></trkpt><trkpt lat="45.76664562691034" lon="4.841398590290948"><ele>182.0</ele><time>2026-04-24T16:28:45Z</time></trkpt><trkpt lat="45.766573842437346" lon="4.841408459996165"><ele>181.42857142857142</ele><time>2026-04-24T16:28:46Z</time></trkpt><trkpt lat="45.76650348351856" lon="4.84141786207879"><ele>180.85714285714286</ele><time>2026-04-24T16:28:47Z</time></trkpt><trkpt lat="45.76643285550707" lon="4.841428354929746"><ele>180.28571428571428</ele><time>2026-04-24T16:28:48Z</time></trkpt><trkpt lat="45.76635842021225" lon="4.841439446167947"><ele>179.71428571428572</ele><time>2026-04-24T16:28:49Z</time></trkpt><trkpt lat="45.76627578862609" lon="4.841451585981584"><ele>179.14285714285714</ele><time>2026-04-24T16:28:50Z</time></trkpt><trkpt lat="45.7662025392833" lon="4.8414611810847745"><ele>178.57142857142856</ele><time>2026-04-24T16:28:51Z</time></trkpt><trkpt lat="45.766130904207806" lon="4.84147056473214"><ele>178.0</ele><time>2026-04-24T16:28:52Z</time></trkpt><trkpt lat="45.76605730418164" lon="4.841480205775397"><ele>177.66666666666669</ele><time>2026-04-24T16:28:53Z</time></trkpt><trkpt lat="45.76598947473768" lon="4.8414890909150525"><ele>177.33333333333334</ele><time>2026-04-24T16:28:54Z</time></trkpt><trkpt lat="45.76591237501547" lon="4.84149767148554"><ele>177.0</ele><time>2026-04-24T16:28:55Z</time></trkpt><trkpt lat="45.76582616953744" lon="4.841501985750072"><ele>176.66666666666666</ele><time>2026-04-24T16:28:56Z</time></trkpt><trkpt lat="45.76575317152609" lon="4.84150507019846"><ele>176.33333333333331</ele><time>2026-04-24T16:28:57Z</time></trkpt><trkpt lat="45.76567932601533" lon="4.841508156631307"><ele>176.0</ele><time>2026-04-24T16:28:58Z</time></trkpt><trkpt lat="45.76558192561691" lon="4.841502762668753"><ele>176.0</ele><time>2026-04-24T16:28:59Z</time></trkpt><trkpt lat="45.76551238923026" lon="4.841499340947282"><ele>176.0</ele><time>2026-04-24T16:29:00Z</time></trkpt><trkpt lat="45.76543874835981" lon="4.841495993635517"><ele>176.0</ele><time>2026-04-24T16:29:01Z</time></trkpt><trkpt lat="45.765366755546495" lon="4.841493909163648"><ele>176.0</ele><time>2026-04-24T16:29:02Z</time></trkpt><trkpt lat="45.765296902228485" lon="4.841491949448555"><ele>176.0</ele><time>2026-04-24T16:29:03Z</time></trkpt><trkpt lat="45.76521997033488" lon="4.841489791145195"><ele>176.0</ele><time>2026-04-24T16:29:04Z</time></trkpt><trkpt lat="45.76514656209083" lon="4.841487731697786"><ele>176.0</ele><time>2026-04-24T16:29:05Z</time></trkpt><trkpt lat="45.76507260257169" lon="4.841485656783693"><ele>175.71428571428572</ele><time>2026-04-24T16:29:06Z</time></trkpt><trkpt lat="45.76499988871188" lon="4.841483616813107"><ele>175.42857142857142</ele><time>2026-04-24T16:29:07Z</time></trkpt><trkpt lat="45.76492687408987" lon="4.841480033764778"><ele>175.14285714285714</ele><time>2026-04-24T16:29:08Z</time></trkpt><trkpt lat="45.764860020435194" lon="4.841476823506832"><ele>174.85714285714286</ele><time>2026-04-24T16:29:09Z</time></trkpt><trkpt lat="45.764790781740295" lon="4.841473498719123"><ele>174.57142857142858</ele><time>2026-04-24T16:29:10Z</time></trkpt><trkpt lat="45.76472187451337" lon="4.841470236919303"><ele>174.28571428571428</ele><time>2026-04-24T16:29:11Z</time></trkpt><trkpt lat="45.764651330302904" lon="4.841467315544326"><ele>174.0</ele><time>2026-04-24T16:29:12Z</time></trkpt><trkpt lat="45.764576951199146" lon="4.841464013897498"><ele>174.0</ele><time>2026-04-24T16:29:13Z</time></trkpt><trkpt lat="45.764510548058794" lon="4.841460859357492"><ele>174.0</ele><time>2026-04-24T16:29:14Z</time></trkpt><trkpt lat="45.76444518441082" lon="4.841457986709273"><ele>174.0</ele><time>2026-04-24T16:29:15Z</time></trkpt><trkpt lat="45.76438190970259" lon="4.841456201119771"><ele>174.0</ele><time>2026-04-24T16:29:16Z</time></trkpt><trkpt lat="45.764279526035565" lon="4.8414533118800325"><ele>174.0</ele><time>2026-04-24T16:29:18Z</time></trkpt><trkpt lat="45.764168879223874" lon="4.8414501894549735"><ele>174.0</ele><time>2026-04-24T16:29:20Z</time></trkpt><trkpt lat="45.76406925268761" lon="4.841446206641714"><ele>174.0</ele><time>2026-04-24T16:29:22Z</time></trkpt><trkpt lat="45.76397343667864" lon="4.841441458361593"><ele>174.0</ele><time>2026-04-24T16:29:24Z</time></trkpt><trkpt lat="45.763853970724995" lon="4.841435538076748"><ele>174.0</ele><time>2026-04-24T16:29:26Z</time></trkpt><trkpt lat="45.76373755367036" lon="4.841431630394055"><ele>174.0</ele><time>2026-04-24T16:29:28Z</time></trkpt><trkpt lat="45.76362218717836" lon="4.841429138115231"><ele>174.0</ele><time>2026-04-24T16:29:30Z</time></trkpt><trkpt lat="45.76354972881133" lon="4.8414283132656735"><ele>173.85714285714286</ele><time>2026-04-24T16:29:31Z</time></trkpt><trkpt lat="45.76347551887351" lon="4.841424908255954"><ele>173.71428571428572</ele><time>2026-04-24T16:29:32Z</time></trkpt><trkpt lat="45.76340439240527" lon="4.841421295310491"><ele>173.57142857142856</ele><time>2026-04-24T16:29:33Z</time></trkpt><trkpt lat="45.763315669286655" lon="4.841415234969066"><ele>173.42857142857144</ele><time>2026-04-24T16:29:34Z</time></trkpt><trkpt lat="45.76323839961054" lon="4.841406485899444"><ele>173.2857142857143</ele><time>2026-04-24T16:29:35Z</time></trkpt><trkpt lat="45.76316682498901" lon="4.841395721129187"><ele>173.14285714285714</ele><time>2026-04-24T16:29:36Z</time></trkpt><trkpt lat="45.76310332458539" lon="4.841384184531984"><ele>173.0</ele><time>2026-04-24T16:29:37Z</time></trkpt><trkpt lat="45.763036053402665" lon="4.8413767424161325"><ele>173.0</ele><time>2026-04-24T16:29:38Z</time></trkpt><trkpt lat="45.76296598882567" lon="4.841368991305564"><ele>173.0</ele><time>2026-04-24T16:29:39Z</time></trkpt><trkpt lat="45.762898380196376" lon="4.841361511894753"><ele>173.0</ele><time>2026-04-24T16:29:40Z</time></trkpt><trkpt lat="45.76282890922636" lon="4.841353826452994"><ele>173.0</ele><time>2026-04-24T16:29:41Z</time></trkpt><trkpt lat="45.762762107358974" lon="4.84134643629021"><ele>173.0</ele><time>2026-04-24T16:29:42Z</time></trkpt><trkpt lat="45.7626932909712" lon="4.841338823263128"><ele>173.0</ele><time>2026-04-24T16:29:43Z</time></trkpt><trkpt lat="45.76262052800729" lon="4.841330773637924"><ele>173.0</ele><time>2026-04-24T16:29:44Z</time></trkpt><trkpt lat="45.76254960839394" lon="4.841322927935544"><ele>173.7142857142857</ele><time>2026-04-24T16:29:45Z</time></trkpt><trkpt lat="45.76247891920633" lon="4.8413151077236165"><ele>174.42857142857144</ele><time>2026-04-24T16:29:46Z</time></trkpt><trkpt lat="45.76241077687688" lon="4.841307593978435"><ele>175.14285714285714</ele><time>2026-04-24T16:29:47Z</time></trkpt><trkpt lat="45.76234070124252" lon="4.8413001300567124"><ele>175.85714285714283</ele><time>2026-04-24T16:29:48Z</time></trkpt><trkpt lat="45.76227385324795" lon="4.841292598498174"><ele>176.57142857142856</ele><time>2026-04-24T16:29:49Z</time></trkpt><trkpt lat="45.762210820660385" lon="4.841285496808108"><ele>177.28571428571428</ele><time>2026-04-24T16:29:50Z</time></trkpt><trkpt lat="45.76213987793789" lon="4.841277503907823"><ele>178.0</ele><time>2026-04-24T16:29:51Z</time></trkpt><trkpt lat="45.76207200534885" lon="4.841269856909797"><ele>177.99999999999997</ele><time>2026-04-24T16:29:52Z</time></trkpt><trkpt lat="45.762004685326055" lon="4.84126227216788"><ele>178.0</ele><time>2026-04-24T16:29:53Z</time></trkpt><trkpt lat="45.761935105562145" lon="4.84125443282667"><ele>178.0</ele><time>2026-04-24T16:29:54Z</time></trkpt><trkpt lat="45.761860999932786" lon="4.841246139682658"><ele>178.0</ele><time>2026-04-24T16:29:55Z</time></trkpt><trkpt lat="45.76178857490181" lon="4.841238132002955"><ele>178.0</ele><time>2026-04-24T16:29:56Z</time></trkpt><trkpt lat="45.76171678395283" lon="4.8412301944279115"><ele>177.99999999999997</ele><time>2026-04-24T16:29:57Z</time></trkpt><trkpt lat="45.76164580782251" lon="4.841222346944088"><ele>178.0</ele><time>2026-04-24T16:29:58Z</time></trkpt><trkpt lat="45.76157283162685" lon="4.841214278321921"><ele>177.99999999999997</ele><time>2026-04-24T16:29:58.999Z</time></trkpt><trkpt lat="45.76150040927319" lon="4.84120627093717"><ele>178.0</ele><time>2026-04-24T16:29:59.999Z</time></trkpt><trkpt lat="45.76142767596358" lon="4.841198229171132"><ele>178.0</ele><time>2026-04-24T16:30:00.999Z</time></trkpt><trkpt lat="45.76135243864534" lon="4.841189910551078"><ele>178.0</ele><time>2026-04-24T16:30:01.999Z</time></trkpt><trkpt lat="45.76128096711086" lon="4.841182008252998"><ele>178.0</ele><time>2026-04-24T16:30:02.999Z</time></trkpt><trkpt lat="45.76120784786833" lon="4.841172802128578"><ele>177.99999999999997</ele><time>2026-04-24T16:30:03.999Z</time></trkpt><trkpt lat="45.761135662729494" lon="4.841164804817337"><ele>178.0</ele><time>2026-04-24T16:30:04.999Z</time></trkpt><trkpt lat="45.76106260131744" lon="4.84115681605299"><ele>177.42857142857142</ele><time>2026-04-24T16:30:06Z</time></trkpt><trkpt lat="45.76098940343583" lon="4.841148812367613"><ele>176.85714285714286</ele><time>2026-04-24T16:30:07Z</time></trkpt><trkpt lat="45.76091685214356" lon="4.841140870133984"><ele>176.28571428571428</ele><time>2026-04-24T16:30:08Z</time></trkpt><trkpt lat="45.76084145404322" lon="4.8411325928531594"><ele>175.71428571428572</ele><time>2026-04-24T16:30:09Z</time></trkpt><trkpt lat="45.76076831568208" lon="4.841124563649444"><ele>175.14285714285714</ele><time>2026-04-24T16:30:10Z</time></trkpt><trkpt lat="45.7606933061441" lon="4.841116329025238"><ele>174.57142857142856</ele><time>2026-04-24T16:30:11Z</time></trkpt><trkpt lat="45.76062122395073" lon="4.841108415769738"><ele>174.0</ele><time>2026-04-24T16:30:12Z</time></trkpt><trkpt lat="45.76054754893491" lon="4.841100327591916"><ele>174.0</ele><time>2026-04-24T16:30:13Z</time></trkpt><trkpt lat="45.76048286648191" lon="4.8410935557919155"><ele>174.0</ele><time>2026-04-24T16:30:14Z</time></trkpt><trkpt lat="45.76041973424168" lon="4.841086809573905"><ele>174.0</ele><time>2026-04-24T16:30:15Z</time></trkpt><trkpt lat="45.76035692458489" lon="4.841080097827488"><ele>174.0</ele><time>2026-04-24T16:30:16Z</time></trkpt><trkpt lat="45.76029404492311" lon="4.841073378596803"><ele>174.0</ele><time>2026-04-24T16:30:17Z</time></trkpt><trkpt lat="45.760227617927605" lon="4.841064972927155"><ele>174.0</ele><time>2026-04-24T16:30:18Z</time></trkpt><trkpt lat="45.760159636778965" lon="4.841055562054933"><ele>174.0</ele><time>2026-04-24T16:30:19Z</time></trkpt><trkpt lat="45.76008917990836" lon="4.841045855577449"><ele>174.85714285714286</ele><time>2026-04-24T16:30:20Z</time></trkpt><trkpt lat="45.760018398392376" lon="4.841036265811442"><ele>175.71428571428572</ele><time>2026-04-24T16:30:21Z</time></trkpt><trkpt lat="45.759954382071165" lon="4.8410302304044475"><ele>176.57142857142856</ele><time>2026-04-24T16:30:22Z</time></trkpt><trkpt lat="45.75987928523191" lon="4.841024861638502"><ele>177.42857142857144</ele><time>2026-04-24T16:30:23Z</time></trkpt><trkpt lat="45.75980120400409" lon="4.841017230768576"><ele>178.2857142857143</ele><time>2026-04-24T16:30:24Z</time></trkpt><trkpt lat="45.759725840520545" lon="4.841008818464761"><ele>179.14285714285714</ele><time>2026-04-24T16:30:25Z</time></trkpt><trkpt lat="45.759650179181506" lon="4.841000372921075"><ele>180.0</ele><time>2026-04-24T16:30:26Z</time></trkpt><trkpt lat="45.75957839792307" lon="4.840992360463581"><ele>180.0</ele><time>2026-04-24T16:30:27Z</time></trkpt><trkpt lat="45.75950615178049" lon="4.840984296129249"><ele>180.0</ele><time>2026-04-24T16:30:28Z</time></trkpt><trkpt lat="45.75943589121639" lon="4.840976453421776"><ele>180.0</ele><time>2026-04-24T16:30:29Z</time></trkpt><trkpt lat="45.759364049924" lon="4.840968434284468"><ele>180.0</ele><time>2026-04-24T16:30:30Z</time></trkpt><trkpt lat="45.75929448321774" lon="4.840960669029267"><ele>180.0</ele><time>2026-04-24T16:30:31Z</time></trkpt><trkpt lat="45.759224024033955" lon="4.840952804157064"><ele>180.0</ele><time>2026-04-24T16:30:32Z</time></trkpt><trkpt lat="45.75915281144529" lon="4.840945025475028"><ele>180.0</ele><time>2026-04-24T16:30:33Z</time></trkpt><trkpt lat="45.75907830487189" lon="4.8409363014655975"><ele>179.0</ele><time>2026-04-24T16:30:34Z</time></trkpt><trkpt lat="45.7590049544366" lon="4.840929046729795"><ele>178.0</ele><time>2026-04-24T16:30:35Z</time></trkpt><trkpt lat="45.75893274733616" lon="4.840920859021786"><ele>177.0</ele><time>2026-04-24T16:30:36Z</time></trkpt><trkpt lat="45.75885596331451" lon="4.840912152330843"><ele>176.0</ele><time>2026-04-24T16:30:37Z</time></trkpt><trkpt lat="45.75878019051653" lon="4.840903560304926"><ele>175.0</ele><time>2026-04-24T16:30:38Z</time></trkpt><trkpt lat="45.758704764848915" lon="4.840895080797087"><ele>174.0</ele><time>2026-04-24T16:30:39Z</time></trkpt><trkpt lat="45.75863300728525" lon="4.8408870897428535"><ele>173.0</ele><time>2026-04-24T16:30:40Z</time></trkpt><trkpt lat="45.758562253836715" lon="4.84087921049626"><ele>172.7142857142857</ele><time>2026-04-24T16:30:41Z</time></trkpt><trkpt lat="45.75849069126599" lon="4.8408712411547015"><ele>172.42857142857144</ele><time>2026-04-24T16:30:42Z</time></trkpt><trkpt lat="45.75841607978566" lon="4.840862985917956"><ele>172.14285714285714</ele><time>2026-04-24T16:30:43Z</time></trkpt><trkpt lat="45.75834274779327" lon="4.840855689058866"><ele>171.85714285714283</ele><time>2026-04-24T16:30:44Z</time></trkpt><trkpt lat="45.75827332317934" lon="4.840847965773999"><ele>171.57142857142856</ele><time>2026-04-24T16:30:45Z</time></trkpt><trkpt lat="45.75820557403565" lon="4.8408404289162315"><ele>171.28571428571428</ele><time>2026-04-24T16:30:46Z</time></trkpt><trkpt lat="45.75813322304357" lon="4.840832380105671"><ele>171.0</ele><time>2026-04-24T16:30:47Z</time></trkpt><trkpt lat="45.75806505533557" lon="4.840824796675261"><ele>171.0</ele><time>2026-04-24T16:30:48Z</time></trkpt><trkpt lat="45.757993746934545" lon="4.8408168638563405"><ele>171.0</ele><time>2026-04-24T16:30:49Z</time></trkpt><trkpt lat="45.75792038539093" lon="4.840808702617983"><ele>171.0</ele><time>2026-04-24T16:30:50Z</time></trkpt><trkpt lat="45.75784538181627" lon="4.840800627374845"><ele>171.0</ele><time>2026-04-24T16:30:51Z</time></trkpt><trkpt lat="45.757767371647276" lon="4.840792563515217"><ele>171.0</ele><time>2026-04-24T16:30:52Z</time></trkpt><trkpt lat="45.75768088071259" lon="4.840784027757288"><ele>171.0</ele><time>2026-04-24T16:30:53Z</time></trkpt><trkpt lat="45.75760349329189" lon="4.840774574137406"><ele>171.83333333333334</ele><time>2026-04-24T16:30:54Z</time></trkpt><trkpt lat="45.75752708895105" lon="4.840765240661398"><ele>172.66666666666666</ele><time>2026-04-24T16:30:55Z</time></trkpt><trkpt lat="45.757458952046136" lon="4.8407576113078985"><ele>173.5</ele><time>2026-04-24T16:30:56Z</time></trkpt><trkpt lat="45.757386402235" lon="4.840750296268129"><ele>174.33333333333331</ele><time>2026-04-24T16:30:57Z</time></trkpt><trkpt lat="45.75730556327763" lon="4.840741159267682"><ele>175.16666666666666</ele><time>2026-04-24T16:30:58Z</time></trkpt><trkpt lat="45.75721028766836" lon="4.840724660910127"><ele>176.0</ele><time>2026-04-24T16:30:59Z</time></trkpt><trkpt lat="45.7570743981402" lon="4.840662863972454"><ele>176.0</ele><time>2026-04-24T16:31:01Z</time></trkpt><trkpt lat="45.756991231299956" lon="4.8405993265601595"><ele>176.0</ele><time>2026-04-24T16:31:02Z</time></trkpt><trkpt lat="45.756888234019264" lon="4.840523865223147"><ele>176.0</ele><time>2026-04-24T16:31:03Z</time></trkpt><trkpt lat="45.75678162297058" lon="4.8404386575538085"><ele>176.0</ele><time>2026-04-24T16:31:04Z</time></trkpt><trkpt lat="45.756718579683074" lon="4.8403608512722975"><ele>176.0</ele><time>2026-04-24T16:31:05Z</time></trkpt><trkpt lat="45.756615791831244" lon="4.840256304607075"><ele>177.0</ele><time>2026-04-24T16:31:06Z</time></trkpt><trkpt lat="45.756543327251954" lon="4.840163293513847"><ele>178.0</ele><time>2026-04-24T16:31:07Z</time></trkpt><trkpt lat="45.756409071548106" lon="4.839695134020791"><ele>175.75</ele><time>2026-04-24T16:31:08Z</time></trkpt><trkpt lat="45.75652193754551" lon="4.839491158393873"><ele>173.5</ele><time>2026-04-24T16:31:10Z</time></trkpt><trkpt lat="45.75638139356074" lon="4.8394150938767835"><ele>171.25</ele><time>2026-04-24T16:31:12Z</time></trkpt><trkpt lat="45.756309761161994" lon="4.839379063073181"><ele>169.0</ele><time>2026-04-24T16:31:13Z</time></trkpt><trkpt lat="45.75622965664992" lon="4.839333045918756"><ele>168.5</ele><time>2026-04-24T16:31:14Z</time></trkpt><trkpt lat="45.756151475191636" lon="4.839291689364078"><ele>168.0</ele><time>2026-04-24T16:31:15Z</time></trkpt><trkpt lat="45.75607488493133" lon="4.839251329147355"><ele>167.5</ele><time>2026-04-24T16:31:16Z</time></trkpt><trkpt lat="45.75600067795243" lon="4.839217291319998"><ele>167.0</ele><time>2026-04-24T16:31:17Z</time></trkpt><trkpt lat="45.755929999780385" lon="4.83918151160712"><ele>166.5</ele><time>2026-04-24T16:31:18Z</time></trkpt><trkpt lat="45.755863841053184" lon="4.839146236425252"><ele>166.0</ele><time>2026-04-24T16:31:19Z</time></trkpt><trkpt lat="45.7558043522013" lon="4.839111454693844"><ele>166.0</ele><time>2026-04-24T16:31:20Z</time></trkpt><trkpt lat="45.755699353730336" lon="4.839053398330686"><ele>166.0</ele><time>2026-04-24T16:31:22Z</time></trkpt><trkpt lat="45.755611987234936" lon="4.839000336596603"><ele>166.0</ele><time>2026-04-24T16:31:24Z</time></trkpt><trkpt lat="45.755529801131566" lon="4.838943026169517"><ele>166.0</ele><time>2026-04-24T16:31:26Z</time></trkpt><trkpt lat="45.7554548311884" lon="4.83885426379483"><ele>166.0</ele><time>2026-04-24T16:31:28Z</time></trkpt><trkpt lat="45.755382302822944" lon="4.838764004782335"><ele>166.0</ele><time>2026-04-24T16:31:30Z</time></trkpt><trkpt lat="45.75529888854144" lon="4.838697352168312"><ele>166.0</ele><time>2026-04-24T16:31:32Z</time></trkpt><trkpt lat="45.75521979685098" lon="4.838641611955707"><ele>166.0</ele><time>2026-04-24T16:31:33.999Z</time></trkpt><trkpt lat="45.75512984279788" lon="4.8385906237248815"><ele>166.0</ele><time>2026-04-24T16:31:35.999Z</time></trkpt><trkpt lat="45.75503958305759" lon="4.838527072956618"><ele>166.0</ele><time>2026-04-24T16:31:37.999Z</time></trkpt><trkpt lat="45.75495092176841" lon="4.83847236761265"><ele>165.8</ele><time>2026-04-24T16:31:39.999Z</time></trkpt><trkpt lat="45.75486499453482" lon="4.838414204968812"><ele>165.60000000000002</ele><time>2026-04-24T16:31:41.999Z</time></trkpt><trkpt lat="45.754781490710954" lon="4.8383574476172795"><ele>165.4</ele><time>2026-04-24T16:31:43.999Z</time></trkpt><trkpt lat="45.75470376742228" lon="4.838302510354988"><ele>165.2</ele><time>2026-04-24T16:31:45.999Z</time></trkpt><trkpt lat="45.75461991622476" lon="4.838241578670894"><ele>165.0</ele><time>2026-04-24T16:31:47.999Z</time></trkpt><trkpt lat="45.754536179950364" lon="4.838188688542659"><ele>165.0</ele><time>2026-04-24T16:31:49.999Z</time></trkpt><trkpt lat="45.75445345096106" lon="4.838135456932534"><ele>165.0</ele><time>2026-04-24T16:31:51.999Z</time></trkpt><trkpt lat="45.75436700955279" lon="4.838072621704462"><ele>165.0</ele><time>2026-04-24T16:31:53.999Z</time></trkpt><trkpt lat="45.75427712244648" lon="4.838007563177093"><ele>165.0</ele><time>2026-04-24T16:31:55.999Z</time></trkpt><trkpt lat="45.75418446303401" lon="4.83794672867947"><ele>165.0</ele><time>2026-04-24T16:31:57.999Z</time></trkpt><trkpt lat="45.75409845180869" lon="4.837879759804523"><ele>165.0</ele><time>2026-04-24T16:31:59.999Z</time></trkpt><trkpt lat="45.754013605294325" lon="4.837818738495176"><ele>165.0</ele><time>2026-04-24T16:32:01.999Z</time></trkpt><trkpt lat="45.75392907957327" lon="4.837760749417162"><ele>165.0</ele><time>2026-04-24T16:32:03.999Z</time></trkpt><trkpt lat="45.75384065709997" lon="4.837691717756626"><ele>165.0</ele><time>2026-04-24T16:32:05.999Z</time></trkpt><trkpt lat="45.75374826201465" lon="4.837624140165369"><ele>165.0</ele><time>2026-04-24T16:32:07.999Z</time></trkpt><trkpt lat="45.753655245708835" lon="4.837557443484391"><ele>165.0</ele><time>2026-04-24T16:32:09.999Z</time></trkpt><trkpt lat="45.75356604678619" lon="4.837495361762402"><ele>165.0</ele><time>2026-04-24T16:32:12Z</time></trkpt><trkpt lat="45.7534748208044" lon="4.837424608098634"><ele>165.0</ele><time>2026-04-24T16:32:14Z</time></trkpt><trkpt lat="45.75337827920423" lon="4.837343325572578"><ele>165.0</ele><time>2026-04-24T16:32:16Z</time></trkpt><trkpt lat="45.75328585522271" lon="4.837262546268529"><ele>165.0</ele><time>2026-04-24T16:32:18Z</time></trkpt><trkpt lat="45.75319609835115" lon="4.837202034179698"><ele>165.2</ele><time>2026-04-24T16:32:20Z</time></trkpt><trkpt lat="45.75311165174894" lon="4.837130748576222"><ele>165.4</ele><time>2026-04-24T16:32:22Z</time></trkpt><trkpt lat="45.75303184230222" lon="4.837068948918345"><ele>165.60000000000002</ele><time>2026-04-24T16:32:24Z</time></trkpt><trkpt lat="45.7529535367254" lon="4.837005011493467"><ele>165.8</ele><time>2026-04-24T16:32:26Z</time></trkpt><trkpt lat="45.75286624669148" lon="4.836936664071155"><ele>166.0</ele><time>2026-04-24T16:32:28Z</time></trkpt><trkpt lat="45.75278337192537" lon="4.836868591726729"><ele>166.0</ele><time>2026-04-24T16:32:30Z</time></trkpt><trkpt lat="45.752696321922826" lon="4.836811389190007"><ele>166.0</ele><time>2026-04-24T16:32:32Z</time></trkpt><trkpt lat="45.75261572514165" lon="4.836754095423695"><ele>166.0</ele><time>2026-04-24T16:32:34Z</time></trkpt><trkpt lat="45.75253381584841" lon="4.8367136946120945"><ele>166.0</ele><time>2026-04-24T16:32:36Z</time></trkpt><trkpt lat="45.75244694793494" lon="4.8367070051928875"><ele>166.0</ele><time>2026-04-24T16:32:38Z</time></trkpt><trkpt lat="45.75236622773632" lon="4.8367212908939345"><ele>166.0</ele><time>2026-04-24T16:32:40Z</time></trkpt><trkpt lat="45.75230015067317" lon="4.8367464269266085"><ele>166.0</ele><time>2026-04-24T16:32:42Z</time></trkpt><trkpt lat="45.75223734948859" lon="4.836774169366975"><ele>166.0</ele><time>2026-04-24T16:32:44Z</time></trkpt><trkpt lat="45.75214898779857" lon="4.8367942144579095"><ele>166.0</ele><time>2026-04-24T16:32:47Z</time></trkpt><trkpt lat="45.75207216393229" lon="4.836752829155486"><ele>166.0</ele><time>2026-04-24T16:32:49Z</time></trkpt><trkpt lat="45.7519737440655" lon="4.836684412423855"><ele>166.0</ele><time>2026-04-24T16:32:51Z</time></trkpt><trkpt lat="45.75191475426494" lon="4.836649761467325"><ele>166.0</ele><time>2026-04-24T16:32:52Z</time></trkpt><trkpt lat="45.75183792704987" lon="4.836572601584145"><ele>166.16666666666669</ele><time>2026-04-24T16:32:53Z</time></trkpt><trkpt lat="45.751775522325715" lon="4.8364779252844095"><ele>166.33333333333334</ele><time>2026-04-24T16:32:54Z</time></trkpt><trkpt lat="45.7517176370384" lon="4.836384423310397"><ele>166.5</ele><time>2026-04-24T16:32:55Z</time></trkpt><trkpt lat="45.75165804965273" lon="4.8362982871951585"><ele>166.66666666666666</ele><time>2026-04-24T16:32:56Z</time></trkpt><trkpt lat="45.75160163420866" lon="4.836222706858613"><ele>166.83333333333331</ele><time>2026-04-24T16:32:57Z</time></trkpt><trkpt lat="45.751536894578095" lon="4.836158922752633"><ele>167.0</ele><time>2026-04-24T16:32:58Z</time></trkpt><trkpt lat="45.751466030151164" lon="4.836107412855338"><ele>167.0</ele><time>2026-04-24T16:32:59Z</time></trkpt><trkpt lat="45.75139972991835" lon="4.8360580754356235"><ele>167.0</ele><time>2026-04-24T16:33:00Z</time></trkpt><trkpt lat="45.75133201066672" lon="4.8360031559244865"><ele>167.0</ele><time>2026-04-24T16:33:01Z</time></trkpt><trkpt lat="45.75126366560878" lon="4.835952666169157"><ele>167.0</ele><time>2026-04-24T16:33:02Z</time></trkpt><trkpt lat="45.75119139922189" lon="4.8359034643032786"><ele>167.0</ele><time>2026-04-24T16:33:03Z</time></trkpt><trkpt lat="45.751124465976794" lon="4.835850037652585"><ele>167.0</ele><time>2026-04-24T16:33:04Z</time></trkpt><trkpt lat="45.75105523438764" lon="4.8357972483606355"><ele>166.83333333333331</ele><time>2026-04-24T16:33:05Z</time></trkpt><trkpt lat="45.7509896281355" lon="4.835739911857253"><ele>166.66666666666666</ele><time>2026-04-24T16:33:06Z</time></trkpt><trkpt lat="45.75092099702599" lon="4.8356861791763235"><ele>166.5</ele><time>2026-04-24T16:33:07Z</time></trkpt><trkpt lat="45.750854729511055" lon="4.835644161613421"><ele>166.33333333333334</ele><time>2026-04-24T16:33:08Z</time></trkpt><trkpt lat="45.75079242986574" lon="4.835596703719122"><ele>166.16666666666669</ele><time>2026-04-24T16:33:09Z</time></trkpt><trkpt lat="45.750731197501324" lon="4.835537741940552"><ele>166.0</ele><time>2026-04-24T16:33:10Z</time></trkpt><trkpt lat="45.75068602635949" lon="4.835419414151685"><ele>166.0</ele><time>2026-04-24T16:33:11Z</time></trkpt><trkpt lat="45.750618068317365" lon="4.8353732986966405"><ele>166.0</ele><time>2026-04-24T16:33:12Z</time></trkpt><trkpt lat="45.750549337209925" lon="4.835326658713085"><ele>166.0</ele><time>2026-04-24T16:33:13Z</time></trkpt><trkpt lat="45.75047465379338" lon="4.835298832323491"><ele>166.0</ele><time>2026-04-24T16:33:14Z</time></trkpt><trkpt lat="45.750419235962255" lon="4.835219038511894"><ele>166.0</ele><time>2026-04-24T16:33:15Z</time></trkpt><trkpt lat="45.750360029994724" lon="4.835141894387107"><ele>166.0</ele><time>2026-04-24T16:33:16Z</time></trkpt><trkpt lat="45.75028723337504" lon="4.835103830605025"><ele>165.83333333333334</ele><time>2026-04-24T16:33:17Z</time></trkpt><trkpt lat="45.750215504635534" lon="4.835049912210557"><ele>165.66666666666669</ele><time>2026-04-24T16:33:18Z</time></trkpt><trkpt lat="45.750161256889115" lon="4.834947795525841"><ele>165.5</ele><time>2026-04-24T16:33:19Z</time></trkpt><trkpt lat="45.75009258587816" lon="4.834900421287372"><ele>165.33333333333334</ele><time>2026-04-24T16:33:20Z</time></trkpt><trkpt lat="45.75002681606515" lon="4.834856687845408"><ele>165.16666666666666</ele><time>2026-04-24T16:33:21Z</time></trkpt><trkpt lat="45.749960909901525" lon="4.834809118526539"><ele>165.0</ele><time>2026-04-24T16:33:22Z</time></trkpt><trkpt lat="45.74989573832908" lon="4.834760150750802"><ele>165.00000000000003</ele><time>2026-04-24T16:33:23Z</time></trkpt><trkpt lat="45.74983186176982" lon="4.834707249819946"><ele>165.0</ele><time>2026-04-24T16:33:24Z</time></trkpt><trkpt lat="45.749764485498254" lon="4.8346583813878325"><ele>165.0</ele><time>2026-04-24T16:33:24.999Z</time></trkpt><trkpt lat="45.74969803241676" lon="4.834610236727653"><ele>165.0</ele><time>2026-04-24T16:33:25.999Z</time></trkpt><trkpt lat="45.749630434303924" lon="4.83455998129537"><ele>165.0</ele><time>2026-04-24T16:33:26.999Z</time></trkpt><trkpt lat="45.74956538547224" lon="4.834514506766685"><ele>165.00000000000003</ele><time>2026-04-24T16:33:27.999Z</time></trkpt><trkpt lat="45.74950994377941" lon="4.834463560425572"><ele>165.0</ele><time>2026-04-24T16:33:28.999Z</time></trkpt><trkpt lat="45.7494505608102" lon="4.83441401013263"><ele>165.00000000000003</ele><time>2026-04-24T16:33:29.999Z</time></trkpt><trkpt lat="45.74938808070992" lon="4.834365990524781"><ele>165.0</ele><time>2026-04-24T16:33:30.999Z</time></trkpt><trkpt lat="45.7493245979332" lon="4.834310742822364"><ele>165.0</ele><time>2026-04-24T16:33:31.999Z</time></trkpt><trkpt lat="45.74926382051661" lon="4.8342600463876115"><ele>165.0</ele><time>2026-04-24T16:33:32.999Z</time></trkpt><trkpt lat="45.74920165896959" lon="4.834215193629418"><ele>165.0</ele><time>2026-04-24T16:33:33.999Z</time></trkpt><trkpt lat="45.74914036744513" lon="4.83416376347958"><ele>165.00000000000003</ele><time>2026-04-24T16:33:34.999Z</time></trkpt><trkpt lat="45.74907667223434" lon="4.834113965519723"><ele>165.0</ele><time>2026-04-24T16:33:35.999Z</time></trkpt><trkpt lat="45.749011209427024" lon="4.83406505703426"><ele>165.14285714285717</ele><time>2026-04-24T16:33:36.999Z</time></trkpt><trkpt lat="45.748948816009985" lon="4.834020166465144"><ele>165.28571428571428</ele><time>2026-04-24T16:33:37.999Z</time></trkpt><trkpt lat="45.7488817447524" lon="4.833971326872611"><ele>165.42857142857144</ele><time>2026-04-24T16:33:38.999Z</time></trkpt><trkpt lat="45.74881633636643" lon="4.83392325225825"><ele>165.57142857142858</ele><time>2026-04-24T16:33:39.999Z</time></trkpt><trkpt lat="45.74875595250798" lon="4.833873199061708"><ele>165.71428571428572</ele><time>2026-04-24T16:33:40.999Z</time></trkpt><trkpt lat="45.74869608396986" lon="4.833822563620621"><ele>165.85714285714286</ele><time>2026-04-24T16:33:41.999Z</time></trkpt><trkpt lat="45.74863511286413" lon="4.833771620075642"><ele>166.0</ele><time>2026-04-24T16:33:42.999Z</time></trkpt><trkpt lat="45.748573470553424" lon="4.8337212612432126"><ele>166.0</ele><time>2026-04-24T16:33:43.999Z</time></trkpt><trkpt lat="45.74850989904472" lon="4.833673662291042"><ele>166.0</ele><time>2026-04-24T16:33:44.999Z</time></trkpt><trkpt lat="45.74845271590786" lon="4.833629782331017"><ele>166.0</ele><time>2026-04-24T16:33:45.999Z</time></trkpt><trkpt lat="45.74839817600961" lon="4.833581851732998"><ele>166.0</ele><time>2026-04-24T16:33:46.999Z</time></trkpt><trkpt lat="45.74833778382077" lon="4.833543360570248"><ele>166.0</ele><time>2026-04-24T16:33:47.999Z</time></trkpt><trkpt lat="45.74822843636147" lon="4.83345966530754"><ele>166.0</ele><time>2026-04-24T16:33:49.999Z</time></trkpt><trkpt lat="45.74817280837301" lon="4.833414421919207"><ele>166.0</ele><time>2026-04-24T16:33:50.999Z</time></trkpt><trkpt lat="45.74806213568622" lon="4.833329081214245"><ele>166.0</ele><time>2026-04-24T16:33:52.999Z</time></trkpt><trkpt lat="45.74795330951482" lon="4.8332289840866025"><ele>166.0</ele><time>2026-04-24T16:33:54.999Z</time></trkpt><trkpt lat="45.747891188599155" lon="4.833184483327388"><ele>166.0</ele><time>2026-04-24T16:33:55.999Z</time></trkpt><trkpt lat="45.747828877113896" lon="4.833153272245769"><ele>166.0</ele><time>2026-04-24T16:33:56.999Z</time></trkpt><trkpt lat="45.74776587186773" lon="4.833105929735579"><ele>167.16666666666669</ele><time>2026-04-24T16:33:57.999Z</time></trkpt><trkpt lat="45.74770334517302" lon="4.833049885546867"><ele>168.33333333333334</ele><time>2026-04-24T16:33:58.999Z</time></trkpt><trkpt lat="45.74764154490829" lon="4.833010705029132"><ele>169.5</ele><time>2026-04-24T16:33:59.999Z</time></trkpt><trkpt lat="45.747581116005556" lon="4.832971605558974"><ele>170.66666666666666</ele><time>2026-04-24T16:34:00.999Z</time></trkpt><trkpt lat="45.74752205610334" lon="4.832931352409939"><ele>171.83333333333331</ele><time>2026-04-24T16:34:01.999Z</time></trkpt><trkpt lat="45.747406907611165" lon="4.832845096285189"><ele>173.0</ele><time>2026-04-24T16:34:03.999Z</time></trkpt><trkpt lat="45.747342941162366" lon="4.832803405314655"><ele>173.0</ele><time>2026-04-24T16:34:04.999Z</time></trkpt><trkpt lat="45.74728335069863" lon="4.8327593635287975"><ele>173.0</ele><time>2026-04-24T16:34:05.999Z</time></trkpt><trkpt lat="45.74722481137042" lon="4.832709031483553"><ele>173.0</ele><time>2026-04-24T16:34:06.999Z</time></trkpt><trkpt lat="45.74716224229579" lon="4.832661916049828"><ele>173.0</ele><time>2026-04-24T16:34:07.999Z</time></trkpt><trkpt lat="45.747097778807515" lon="4.832615745089709"><ele>173.0</ele><time>2026-04-24T16:34:08.999Z</time></trkpt><trkpt lat="45.74703931802214" lon="4.832569923287139"><ele>173.0</ele><time>2026-04-24T16:34:09.999Z</time></trkpt><trkpt lat="45.74697914876494" lon="4.832515175774183"><ele>173.0</ele><time>2026-04-24T16:34:10.999Z</time></trkpt><trkpt lat="45.74691446426833" lon="4.832464275246189"><ele>172.14285714285714</ele><time>2026-04-24T16:34:11.999Z</time></trkpt><trkpt lat="45.74685126895787" lon="4.832409235597877"><ele>171.2857142857143</ele><time>2026-04-24T16:34:12.999Z</time></trkpt><trkpt lat="45.746792476972196" lon="4.8323606432120485"><ele>170.42857142857144</ele><time>2026-04-24T16:34:13.999Z</time></trkpt><trkpt lat="45.746733499289405" lon="4.832305794668754"><ele>169.57142857142856</ele><time>2026-04-24T16:34:14.999Z</time></trkpt><trkpt lat="45.74667289427229" lon="4.832247272288106"><ele>168.71428571428572</ele><time>2026-04-24T16:34:15.999Z</time></trkpt><trkpt lat="45.74661065188737" lon="4.832197087655422"><ele>167.85714285714286</ele><time>2026-04-24T16:34:16.999Z</time></trkpt><trkpt lat="45.746548790910936" lon="4.832142889220941"><ele>167.0</ele><time>2026-04-24T16:34:18Z</time></trkpt><trkpt lat="45.746485345120036" lon="4.832086778099295"><ele>167.0</ele><time>2026-04-24T16:34:19Z</time></trkpt><trkpt lat="45.746424453274386" lon="4.83202885374033"><ele>167.0</ele><time>2026-04-24T16:34:20Z</time></trkpt><trkpt lat="45.746364122198386" lon="4.831974739045092"><ele>167.0</ele><time>2026-04-24T16:34:21Z</time></trkpt><trkpt lat="45.746303419490104" lon="4.831925421067115"><ele>167.0</ele><time>2026-04-24T16:34:22Z</time></trkpt><trkpt lat="45.746241092332646" lon="4.831870962688729"><ele>167.0</ele><time>2026-04-24T16:34:23Z</time></trkpt><trkpt lat="45.74618242953965" lon="4.8318246400344735"><ele>167.0</ele><time>2026-04-24T16:34:24Z</time></trkpt><trkpt lat="45.74612448652984" lon="4.831783033594565"><ele>167.0</ele><time>2026-04-24T16:34:25Z</time></trkpt><trkpt lat="45.746057514470515" lon="4.831739146375051"><ele>167.16666666666666</ele><time>2026-04-24T16:34:26Z</time></trkpt><trkpt lat="45.745998815037616" lon="4.8317013644527105"><ele>167.33333333333331</ele><time>2026-04-24T16:34:27Z</time></trkpt><trkpt lat="45.74594049823108" lon="4.831661332669552"><ele>167.5</ele><time>2026-04-24T16:34:28Z</time></trkpt><trkpt lat="45.74582863971948" lon="4.8315840522625155"><ele>167.66666666666666</ele><time>2026-04-24T16:34:30Z</time></trkpt><trkpt lat="45.74577222311378" lon="4.831525747195684"><ele>167.83333333333334</ele><time>2026-04-24T16:34:31Z</time></trkpt><trkpt lat="45.745717803303656" lon="4.831466714742039"><ele>168.0</ele><time>2026-04-24T16:34:32Z</time></trkpt><trkpt lat="45.74566133808272" lon="4.831401671190925"><ele>168.0</ele><time>2026-04-24T16:34:33Z</time></trkpt><trkpt lat="45.74560634199212" lon="4.831333964490661"><ele>168.0</ele><time>2026-04-24T16:34:34Z</time></trkpt><trkpt lat="45.74555254535224" lon="4.8312667485310365"><ele>168.0</ele><time>2026-04-24T16:34:35Z</time></trkpt><trkpt lat="45.7454984904599" lon="4.831207373073781"><ele>168.0</ele><time>2026-04-24T16:34:36Z</time></trkpt><trkpt lat="45.74544051273861" lon="4.831142903467086"><ele>168.0</ele><time>2026-04-24T16:34:37Z</time></trkpt><trkpt lat="45.74538065071886" lon="4.831075791608131"><ele>168.0</ele><time>2026-04-24T16:34:38Z</time></trkpt><trkpt lat="45.74532751761197" lon="4.8310169009757695"><ele>168.0</ele><time>2026-04-24T16:34:39Z</time></trkpt><trkpt lat="45.74526824878202" lon="4.830945539433885"><ele>167.57142857142858</ele><time>2026-04-24T16:34:40Z</time></trkpt><trkpt lat="45.74521350592997" lon="4.830883501839989"><ele>167.14285714285714</ele><time>2026-04-24T16:34:41Z</time></trkpt><trkpt lat="45.74515036277596" lon="4.830817722575229"><ele>166.71428571428572</ele><time>2026-04-24T16:34:42Z</time></trkpt><trkpt lat="45.74509664194404" lon="4.8307528342941675"><ele>166.28571428571428</ele><time>2026-04-24T16:34:43Z</time></trkpt><trkpt lat="45.74503715885553" lon="4.83068375253997"><ele>165.85714285714286</ele><time>2026-04-24T16:34:44Z</time></trkpt><trkpt lat="45.74498197954419" lon="4.83061268497994"><ele>165.42857142857144</ele><time>2026-04-24T16:34:45Z</time></trkpt><trkpt lat="45.74492117218502" lon="4.830541497639557"><ele>165.0</ele><time>2026-04-24T16:34:46Z</time></trkpt><trkpt lat="45.744862325423455" lon="4.830474027455245"><ele>165.0</ele><time>2026-04-24T16:34:47Z</time></trkpt><trkpt lat="45.7448025512378" lon="4.830400325701764"><ele>165.0</ele><time>2026-04-24T16:34:48Z</time></trkpt><trkpt lat="45.74474367522984" lon="4.830330317346251"><ele>165.0</ele><time>2026-04-24T16:34:49Z</time></trkpt><trkpt lat="45.74468394981929" lon="4.830264833423106"><ele>165.0</ele><time>2026-04-24T16:34:50Z</time></trkpt><trkpt lat="45.74462561641962" lon="4.83019863418386"><ele>165.0</ele><time>2026-04-24T16:34:51Z</time></trkpt><trkpt lat="45.74457144029686" lon="4.830137647135752"><ele>165.0</ele><time>2026-04-24T16:34:52Z</time></trkpt><trkpt lat="45.74450682059307" lon="4.830081197371383"><ele>165.00000000000003</ele><time>2026-04-24T16:34:53Z</time></trkpt><trkpt lat="45.74444789324583" lon="4.830021052012328"><ele>165.0</ele><time>2026-04-24T16:34:54Z</time></trkpt><trkpt lat="45.744387837305766" lon="4.829959796274201"><ele>165.0</ele><time>2026-04-24T16:34:55Z</time></trkpt><trkpt lat="45.744326189356364" lon="4.829908507911294"><ele>165.0</ele><time>2026-04-24T16:34:56Z</time></trkpt><trkpt lat="45.74426583984645" lon="4.829852084548519"><ele>165.0</ele><time>2026-04-24T16:34:57Z</time></trkpt><trkpt lat="45.74420414156578" lon="4.829799717902639"><ele>165.00000000000003</ele><time>2026-04-24T16:34:58Z</time></trkpt><trkpt lat="45.744142263743655" lon="4.8297474998172065"><ele>165.0</ele><time>2026-04-24T16:34:59Z</time></trkpt><trkpt lat="45.744077714429956" lon="4.829693200887909"><ele>165.00000000000003</ele><time>2026-04-24T16:35:00Z</time></trkpt><trkpt lat="45.74401570619132" lon="4.829645090075137"><ele>165.0</ele><time>2026-04-24T16:35:01Z</time></trkpt><trkpt lat="45.74395762183365" lon="4.829598745512281"><ele>165.0</ele><time>2026-04-24T16:35:02Z</time></trkpt><trkpt lat="45.74389176751132" lon="4.829554858356283"><ele>165.0</ele><time>2026-04-24T16:35:03Z</time></trkpt><trkpt lat="45.74382408755427" lon="4.829518755009246"><ele>165.0</ele><time>2026-04-24T16:35:04Z</time></trkpt><trkpt lat="45.743764031442005" lon="4.82947086446809"><ele>165.00000000000003</ele><time>2026-04-24T16:35:05Z</time></trkpt><trkpt lat="45.743696958539104" lon="4.829427006729919"><ele>165.0</ele><time>2026-04-24T16:35:06Z</time></trkpt><trkpt lat="45.74363728644217" lon="4.829377644056572"><ele>165.00000000000003</ele><time>2026-04-24T16:35:07Z</time></trkpt><trkpt lat="45.74357750820827" lon="4.829329639665148"><ele>165.0</ele><time>2026-04-24T16:35:08Z</time></trkpt><trkpt lat="45.743512104799" lon="4.829270007563336"><ele>165.0</ele><time>2026-04-24T16:35:09Z</time></trkpt><trkpt lat="45.74345135666451" lon="4.8292165924441655"><ele>165.0</ele><time>2026-04-24T16:35:10Z</time></trkpt><trkpt lat="45.74339520878406" lon="4.829170160997444"><ele>165.0</ele><time>2026-04-24T16:35:11Z</time></trkpt><trkpt lat="45.74333794837712" lon="4.829112261952179"><ele>165.00000000000003</ele><time>2026-04-24T16:35:12Z</time></trkpt><trkpt lat="45.74327552710665" lon="4.829053426761321"><ele>165.0</ele><time>2026-04-24T16:35:13Z</time></trkpt><trkpt lat="45.74321905105356" lon="4.828992155581376"><ele>165.0</ele><time>2026-04-24T16:35:14Z</time></trkpt><trkpt lat="45.743159622096584" lon="4.828930808851238"><ele>165.0</ele><time>2026-04-24T16:35:15Z</time></trkpt><trkpt lat="45.74310026206012" lon="4.8288763730903765"><ele>165.0</ele><time>2026-04-24T16:35:16Z</time></trkpt><trkpt lat="45.74303795394836" lon="4.82881204685155"><ele>165.0</ele><time>2026-04-24T16:35:17Z</time></trkpt><trkpt lat="45.74292391362536" lon="4.828723169495571"><ele>165.0</ele><time>2026-04-24T16:35:18.999Z</time></trkpt><trkpt lat="45.74286639370817" lon="4.828671568179254"><ele>165.0</ele><time>2026-04-24T16:35:19.999Z</time></trkpt><trkpt lat="45.74280634642557" lon="4.828619640674643"><ele>165.00000000000003</ele><time>2026-04-24T16:35:20.999Z</time></trkpt><trkpt lat="45.74274955067246" lon="4.8285693630540365"><ele>165.0</ele><time>2026-04-24T16:35:21.999Z</time></trkpt><trkpt lat="45.74269681656691" lon="4.828518261320134"><ele>165.0</ele><time>2026-04-24T16:35:22.999Z</time></trkpt><trkpt lat="45.742631892506076" lon="4.828472787391462"><ele>165.0</ele><time>2026-04-24T16:35:23.999Z</time></trkpt><trkpt lat="45.74257357258563" lon="4.828427324183858"><ele>165.0</ele><time>2026-04-24T16:35:24.999Z</time></trkpt><trkpt lat="45.742521157740974" lon="4.828366525912485"><ele>165.00000000000003</ele><time>2026-04-24T16:35:25.999Z</time></trkpt><trkpt lat="45.742465604856825" lon="4.828314527390331"><ele>165.0</ele><time>2026-04-24T16:35:26.999Z</time></trkpt><trkpt lat="45.742411300005855" lon="4.828266742915539"><ele>165.25</ele><time>2026-04-24T16:35:27.999Z</time></trkpt><trkpt lat="45.74230893919341" lon="4.828182195007378"><ele>165.5</ele><time>2026-04-24T16:35:29.999Z</time></trkpt><trkpt lat="45.742197262167" lon="4.828095997938122"><ele>165.75</ele><time>2026-04-24T16:35:31.999Z</time></trkpt><trkpt lat="45.74205371118054" lon="4.828260890026923"><ele>166.0</ele><time>2026-04-24T16:35:32.999Z</time></trkpt><trkpt lat="45.741984279457455" lon="4.828201592722049"><ele>166.0</ele><time>2026-04-24T16:35:33.999Z</time></trkpt><trkpt lat="45.74191429080028" lon="4.828141819749614"><ele>166.0</ele><time>2026-04-24T16:35:34.999Z</time></trkpt><trkpt lat="45.74185653696777" lon="4.828092515644553"><ele>166.0</ele><time>2026-04-24T16:35:35.999Z</time></trkpt><trkpt lat="45.741792479107865" lon="4.82803793163455"><ele>166.0</ele><time>2026-04-24T16:35:36.999Z</time></trkpt><trkpt lat="45.74181632131144" lon="4.827771223154925"><ele>166.0</ele><time>2026-04-24T16:35:37.999Z</time></trkpt><trkpt lat="45.741753622698155" lon="4.827716901648292"><ele>165.85714285714286</ele><time>2026-04-24T16:35:38.999Z</time></trkpt><trkpt lat="45.741690365742734" lon="4.82766953877493"><ele>165.71428571428572</ele><time>2026-04-24T16:35:39.999Z</time></trkpt><trkpt lat="45.74163021735678" lon="4.827615550623495"><ele>165.57142857142858</ele><time>2026-04-24T16:35:40.999Z</time></trkpt><trkpt lat="45.74156908787155" lon="4.8275612763597575"><ele>165.42857142857144</ele><time>2026-04-24T16:35:41.999Z</time></trkpt><trkpt lat="45.741506458320615" lon="4.827509704658471"><ele>165.28571428571428</ele><time>2026-04-24T16:35:42.999Z</time></trkpt><trkpt lat="45.74144665753495" lon="4.827464323291853"><ele>165.14285714285717</ele><time>2026-04-24T16:35:43.999Z</time></trkpt><trkpt lat="45.74138681701755" lon="4.827410580733152"><ele>165.0</ele><time>2026-04-24T16:35:44.999Z</time></trkpt><trkpt lat="45.74132908710285" lon="4.827364656153565"><ele>165.0</ele><time>2026-04-24T16:35:45.999Z</time></trkpt><trkpt lat="45.741220465572034" lon="4.8272787666151995"><ele>165.0</ele><time>2026-04-24T16:35:47.999Z</time></trkpt><trkpt lat="45.74116145024252" lon="4.827233798670145"><ele>165.0</ele><time>2026-04-24T16:35:48.999Z</time></trkpt><trkpt lat="45.74102850703192" lon="4.8273837601355645"><ele>165.0</ele><time>2026-04-24T16:35:49.999Z</time></trkpt><trkpt lat="45.741011691535846" lon="4.827106404625068"><ele>166.5</ele><time>2026-04-24T16:35:51.999Z</time></trkpt><trkpt lat="45.74087630897188" lon="4.827252401022451"><ele>168.0</ele><time>2026-04-24T16:35:52.999Z</time></trkpt><trkpt lat="45.740821332257866" lon="4.827204951161447"><ele>169.5</ele><time>2026-04-24T16:35:53.999Z</time></trkpt><trkpt lat="45.74078907505328" lon="4.826931155242815"><ele>171.0</ele><time>2026-04-24T16:35:55.999Z</time></trkpt><trkpt lat="45.740730021019274" lon="4.826885743257042"><ele>171.0</ele><time>2026-04-24T16:35:56.999Z</time></trkpt><trkpt lat="45.74062155296636" lon="4.826811532872848"><ele>171.0</ele><time>2026-04-24T16:35:58.999Z</time></trkpt><trkpt lat="45.74051145259546" lon="4.826721327196276"><ele>171.0</ele><time>2026-04-24T16:36:00.999Z</time></trkpt><trkpt lat="45.740452230704086" lon="4.826675784305184"><ele>171.0</ele><time>2026-04-24T16:36:01.999Z</time></trkpt><trkpt lat="45.740394194252886" lon="4.8266263626991615"><ele>171.0</ele><time>2026-04-24T16:36:02.999Z</time></trkpt><trkpt lat="45.74033175052066" lon="4.826579999130536"><ele>170.0</ele><time>2026-04-24T16:36:03.999Z</time></trkpt><trkpt lat="45.74021558695269" lon="4.826484215964397"><ele>169.0</ele><time>2026-04-24T16:36:05.999Z</time></trkpt><trkpt lat="45.74015836065139" lon="4.826435155599808"><ele>168.0</ele><time>2026-04-24T16:36:06.999Z</time></trkpt><trkpt lat="45.74009664893388" lon="4.8263781080868355"><ele>167.0</ele><time>2026-04-24T16:36:07.999Z</time></trkpt><trkpt lat="45.74003482897952" lon="4.826332247802494"><ele>166.0</ele><time>2026-04-24T16:36:08.999Z</time></trkpt><trkpt lat="45.73997424800808" lon="4.826269622059851"><ele>165.0</ele><time>2026-04-24T16:36:09.999Z</time></trkpt><trkpt lat="45.7399061771138" lon="4.826219169069202"><ele>165.00000000000003</ele><time>2026-04-24T16:36:10.999Z</time></trkpt><trkpt lat="45.73984336705983" lon="4.826162884737022"><ele>165.0</ele><time>2026-04-24T16:36:11.999Z</time></trkpt><trkpt lat="45.73978297885436" lon="4.826098946372995"><ele>165.0</ele><time>2026-04-24T16:36:12.999Z</time></trkpt><trkpt lat="45.73971973793962" lon="4.826041309181522"><ele>165.0</ele><time>2026-04-24T16:36:13.999Z</time></trkpt><trkpt lat="45.739656608386944" lon="4.826001923681235"><ele>165.0</ele><time>2026-04-24T16:36:14.999Z</time></trkpt><trkpt lat="45.73960396857746" lon="4.82594579296657"><ele>165.00000000000003</ele><time>2026-04-24T16:36:15.999Z</time></trkpt><trkpt lat="45.73954097968934" lon="4.825890214802032"><ele>165.0</ele><time>2026-04-24T16:36:16.999Z</time></trkpt><trkpt lat="45.73947544600986" lon="4.825843831009987"><ele>165.00000000000003</ele><time>2026-04-24T16:36:17.999Z</time></trkpt><trkpt lat="45.73941691743607" lon="4.825792642506123"><ele>165.0</ele><time>2026-04-24T16:36:18.999Z</time></trkpt><trkpt lat="45.73934975574053" lon="4.825737405020001"><ele>165.0</ele><time>2026-04-24T16:36:19.999Z</time></trkpt><trkpt lat="45.73929223133254" lon="4.8256915011865065"><ele>165.0</ele><time>2026-04-24T16:36:20.999Z</time></trkpt><trkpt lat="45.739238032197484" lon="4.825642250494024"><ele>165.0</ele><time>2026-04-24T16:36:21.999Z</time></trkpt><trkpt lat="45.73918237569544" lon="4.8255989452477035"><ele>165.00000000000003</ele><time>2026-04-24T16:36:22.999Z</time></trkpt><trkpt lat="45.739123224787534" lon="4.825549556197337"><ele>165.0</ele><time>2026-04-24T16:36:24Z</time></trkpt><trkpt lat="45.739020126260016" lon="4.825463430635757"><ele>165.25</ele><time>2026-04-24T16:36:26Z</time></trkpt><trkpt lat="45.73891291338441" lon="4.825382544184155"><ele>165.5</ele><time>2026-04-24T16:36:28Z</time></trkpt><trkpt lat="45.73882276504147" lon="4.8253004575380265"><ele>165.75</ele><time>2026-04-24T16:36:30Z</time></trkpt><trkpt lat="45.73872931553698" lon="4.825223974486874"><ele>166.0</ele><time>2026-04-24T16:36:32Z</time></trkpt><trkpt lat="45.738583876674355" lon="4.825311237873239"><ele>166.16666666666669</ele><time>2026-04-24T16:36:34Z</time></trkpt><trkpt lat="45.738503339814784" lon="4.825243569770684"><ele>166.33333333333334</ele><time>2026-04-24T16:36:36Z</time></trkpt><trkpt lat="45.73840057273346" lon="4.8251572234943945"><ele>166.5</ele><time>2026-04-24T16:36:38Z</time></trkpt><trkpt lat="45.738341538301654" lon="4.825107623400524"><ele>166.66666666666666</ele><time>2026-04-24T16:36:39Z</time></trkpt><trkpt lat="45.73827152460147" lon="4.825048318650737"><ele>166.83333333333331</ele><time>2026-04-24T16:36:40Z</time></trkpt><trkpt lat="45.7382059528231" lon="4.824993514430898"><ele>167.0</ele><time>2026-04-24T16:36:41Z</time></trkpt><trkpt lat="45.738144829565" lon="4.8249424282686855"><ele>167.0</ele><time>2026-04-24T16:36:42Z</time></trkpt><trkpt lat="45.73808329197404" lon="4.824890995851852"><ele>167.0</ele><time>2026-04-24T16:36:43Z</time></trkpt><trkpt lat="45.738026401593814" lon="4.824843447523286"><ele>167.0</ele><time>2026-04-24T16:36:44Z</time></trkpt><trkpt lat="45.737962937562635" lon="4.8247904113133835"><ele>167.0</ele><time>2026-04-24T16:36:45Z</time></trkpt><trkpt lat="45.737900904599414" lon="4.824738575812398"><ele>167.0</ele><time>2026-04-24T16:36:46Z</time></trkpt><trkpt lat="45.737836171954335" lon="4.824684484467689"><ele>167.0</ele><time>2026-04-24T16:36:47Z</time></trkpt><trkpt lat="45.737771341255566" lon="4.82463031115923"><ele>167.0</ele><time>2026-04-24T16:36:48Z</time></trkpt><trkpt lat="45.737709214851755" lon="4.824578397554134"><ele>167.0</ele><time>2026-04-24T16:36:49Z</time></trkpt><trkpt lat="45.73764832408544" lon="4.824526684981067"><ele>167.0</ele><time>2026-04-24T16:36:50Z</time></trkpt><trkpt lat="45.73759244215779" lon="4.824481970093515"><ele>167.0</ele><time>2026-04-24T16:36:51Z</time></trkpt><trkpt lat="45.73748485406634" lon="4.824400722053859"><ele>167.0</ele><time>2026-04-24T16:36:53Z</time></trkpt><trkpt lat="45.7374559641685" lon="4.824085848406862"><ele>167.0</ele><time>2026-04-24T16:36:55Z</time></trkpt><trkpt lat="45.73736891799251" lon="4.824008961946749"><ele>167.0</ele><time>2026-04-24T16:36:57Z</time></trkpt><trkpt lat="45.737266687078794" lon="4.823926990149469"><ele>167.0</ele><time>2026-04-24T16:36:59Z</time></trkpt><trkpt lat="45.73716063592557" lon="4.824012606826106"><ele>167.0</ele><time>2026-04-24T16:37:00Z</time></trkpt><trkpt lat="45.73705965524909" lon="4.823938252205994"><ele>167.0</ele><time>2026-04-24T16:37:02Z</time></trkpt><trkpt lat="45.737003549502866" lon="4.823730119117086"><ele>167.0</ele><time>2026-04-24T16:37:04Z</time></trkpt><trkpt lat="45.73690620835816" lon="4.82368486508667"><ele>167.0</ele><time>2026-04-24T16:37:06Z</time></trkpt><trkpt lat="45.7367444083403" lon="4.8239174217223155"><ele>168.2</ele><time>2026-04-24T16:37:08Z</time></trkpt><trkpt lat="45.7366464346945" lon="4.823873368225347"><ele>169.39999999999998</ele><time>2026-04-24T16:37:10Z</time></trkpt><trkpt lat="45.73655021789412" lon="4.823833467780755"><ele>170.60000000000002</ele><time>2026-04-24T16:37:12Z</time></trkpt><trkpt lat="45.736443840675314" lon="4.823792934169876"><ele>171.8</ele><time>2026-04-24T16:37:14Z</time></trkpt><trkpt lat="45.73634194575558" lon="4.82375569919457"><ele>173.0</ele><time>2026-04-24T16:37:16Z</time></trkpt><trkpt lat="45.73627343850627" lon="4.823737236994147"><ele>173.0</ele><time>2026-04-24T16:37:18Z</time></trkpt><trkpt lat="45.73616222718819" lon="4.823707093931876"><ele>173.0</ele><time>2026-04-24T16:37:20Z</time></trkpt><trkpt lat="45.73605031665713" lon="4.8236837526560015"><ele>173.0</ele><time>2026-04-24T16:37:22Z</time></trkpt><trkpt lat="45.7359330647725" lon="4.823660634238244"><ele>173.0</ele><time>2026-04-24T16:37:24Z</time></trkpt><trkpt lat="45.73586920222996" lon="4.823648934476186"><ele>173.0</ele><time>2026-04-24T16:37:25Z</time></trkpt><trkpt lat="45.73580477750569" lon="4.823637131744703"><ele>170.5</ele><time>2026-04-24T16:37:26Z</time></trkpt><trkpt lat="45.735686848732605" lon="4.823615526930248"><ele>168.0</ele><time>2026-04-24T16:37:28Z</time></trkpt><trkpt lat="45.735697420584145" lon="4.82286659446886"><ele>167.5</ele><time>2026-04-24T16:37:29Z</time></trkpt><trkpt lat="45.73559430988472" lon="4.822777598745588"><ele>167.0</ele><time>2026-04-24T16:37:31Z</time></trkpt><trkpt lat="45.735490749656904" lon="4.822695046857965"><ele>166.5</ele><time>2026-04-24T16:37:33Z</time></trkpt><trkpt lat="45.73538259258469" lon="4.822606406081232"><ele>166.0</ele><time>2026-04-24T16:37:35Z</time></trkpt><trkpt lat="45.73526877874154" lon="4.822530133531875"><ele>165.8</ele><time>2026-04-24T16:37:37Z</time></trkpt><trkpt lat="45.73514564588302" lon="4.822442886510709"><ele>165.60000000000002</ele><time>2026-04-24T16:37:39Z</time></trkpt><trkpt lat="45.735086016777316" lon="4.822399951196074"><ele>165.4</ele><time>2026-04-24T16:37:40Z</time></trkpt><trkpt lat="45.73502385840187" lon="4.8223540377791"><ele>165.2</ele><time>2026-04-24T16:37:41Z</time></trkpt><trkpt lat="45.734962611740755" lon="4.822308797882528"><ele>165.0</ele><time>2026-04-24T16:37:42Z</time></trkpt><trkpt lat="45.734847979082936" lon="4.8222241242889385"><ele>165.0</ele><time>2026-04-24T16:37:44Z</time></trkpt><trkpt lat="45.73473814394221" lon="4.822141896017381"><ele>165.0</ele><time>2026-04-24T16:37:46Z</time></trkpt><trkpt lat="45.73462398054711" lon="4.822074770274209"><ele>165.0</ele><time>2026-04-24T16:37:48Z</time></trkpt><trkpt lat="45.73450265516577" lon="4.822063036886139"><ele>165.0</ele><time>2026-04-24T16:37:50Z</time></trkpt><trkpt lat="45.73438862263026" lon="4.8220530824806"><ele>165.2</ele><time>2026-04-24T16:37:52Z</time></trkpt><trkpt lat="45.73426929864254" lon="4.822056069195113"><ele>165.4</ele><time>2026-04-24T16:37:53.999Z</time></trkpt><trkpt lat="45.73416826820754" lon="4.822021077273382"><ele>165.60000000000002</ele><time>2026-04-24T16:37:55.999Z</time></trkpt><trkpt lat="45.73405778101191" lon="4.822003062398265"><ele>165.8</ele><time>2026-04-24T16:37:57.999Z</time></trkpt><trkpt lat="45.73399516951273" lon="4.821976656678948"><ele>166.0</ele><time>2026-04-24T16:37:58.999Z</time></trkpt><trkpt lat="45.73388221454391" lon="4.821943624901366"><ele>166.0</ele><time>2026-04-24T16:38:00.999Z</time></trkpt><trkpt lat="45.73378291050805" lon="4.8219365359406305"><ele>166.0</ele><time>2026-04-24T16:38:02.999Z</time></trkpt><trkpt lat="45.7336842072714" lon="4.821913614399951"><ele>166.0</ele><time>2026-04-24T16:38:04.999Z</time></trkpt><trkpt lat="45.73359273394985" lon="4.821890140641651"><ele>166.0</ele><time>2026-04-24T16:38:06.999Z</time></trkpt><trkpt lat="45.733491151995295" lon="4.821883340065118"><ele>166.0</ele><time>2026-04-24T16:38:08.999Z</time></trkpt><trkpt lat="45.73339417991907" lon="4.821883088744375"><ele>165.83333333333334</ele><time>2026-04-24T16:38:10.999Z</time></trkpt><trkpt lat="45.73327911319427" lon="4.821902536108411"><ele>165.66666666666669</ele><time>2026-04-24T16:38:12.999Z</time></trkpt><trkpt lat="45.73316482471787" lon="4.821896221205941"><ele>165.5</ele><time>2026-04-24T16:38:14.999Z</time></trkpt><trkpt lat="45.733088173086486" lon="4.821868333309826"><ele>165.33333333333334</ele><time>2026-04-24T16:38:15.999Z</time></trkpt><trkpt lat="45.73302287796812" lon="4.8218407966163275"><ele>165.16666666666666</ele><time>2026-04-24T16:38:16.999Z</time></trkpt><trkpt lat="45.73296044220533" lon="4.8218080228697735"><ele>165.0</ele><time>2026-04-24T16:38:17.999Z</time></trkpt><trkpt lat="45.73289416006001" lon="4.8217619185663985"><ele>165.0</ele><time>2026-04-24T16:38:18.999Z</time></trkpt><trkpt lat="45.732835072691515" lon="4.821724147836428"><ele>165.0</ele><time>2026-04-24T16:38:19.999Z</time></trkpt><trkpt lat="45.73272618626558" lon="4.821679705478389"><ele>165.0</ele><time>2026-04-24T16:38:21.999Z</time></trkpt><trkpt lat="45.732624043704995" lon="4.821628239040889"><ele>165.0</ele><time>2026-04-24T16:38:23.999Z</time></trkpt><trkpt lat="45.73254318515464" lon="4.821619936979733"><ele>165.0</ele><time>2026-04-24T16:38:25.999Z</time></trkpt><trkpt lat="45.73246777425714" lon="4.821581078585088"><ele>165.0</ele><time>2026-04-24T16:38:27.999Z</time></trkpt><trkpt lat="45.732369219316666" lon="4.82151671649242"><ele>165.0</ele><time>2026-04-24T16:38:30Z</time></trkpt><trkpt lat="45.73226393827297" lon="4.821448002735109"><ele>165.0</ele><time>2026-04-24T16:38:32Z</time></trkpt><trkpt lat="45.73219229579551" lon="4.821406902612262"><ele>165.0</ele><time>2026-04-24T16:38:33Z</time></trkpt><trkpt lat="45.73211369798701" lon="4.8213719296929"><ele>165.0</ele><time>2026-04-24T16:38:34Z</time></trkpt><trkpt lat="45.732032836327214" lon="4.8213416860649145"><ele>165.0</ele><time>2026-04-24T16:38:35Z</time></trkpt><trkpt lat="45.73195713498123" lon="4.821318016619459"><ele>165.0</ele><time>2026-04-24T16:38:36Z</time></trkpt><trkpt lat="45.73188500743691" lon="4.821293053465883"><ele>165.2</ele><time>2026-04-24T16:38:37Z</time></trkpt><trkpt lat="45.73181140319377" lon="4.821271037350022"><ele>165.4</ele><time>2026-04-24T16:38:38Z</time></trkpt><trkpt lat="45.731737500516616" lon="4.8212649975351765"><ele>165.60000000000002</ele><time>2026-04-24T16:38:39Z</time></trkpt><trkpt lat="45.73166500151495" lon="4.821253110131181"><ele>165.8</ele><time>2026-04-24T16:38:40Z</time></trkpt><trkpt lat="45.731542704858654" lon="4.8212324976795955"><ele>166.0</ele><time>2026-04-24T16:38:42Z</time></trkpt><trkpt lat="45.731432518248255" lon="4.821205525631165"><ele>166.0</ele><time>2026-04-24T16:38:44Z</time></trkpt><trkpt lat="45.731328765456915" lon="4.821192158110571"><ele>166.0</ele><time>2026-04-24T16:38:46Z</time></trkpt><trkpt lat="45.731225246495924" lon="4.821204675617148"><ele>166.0</ele><time>2026-04-24T16:38:48Z</time></trkpt><trkpt lat="45.731096635013536" lon="4.821225295079129"><ele>166.0</ele><time>2026-04-24T16:38:50Z</time></trkpt><trkpt lat="45.731026019287405" lon="4.821249697340715"><ele>166.0</ele><time>2026-04-24T16:38:51Z</time></trkpt><trkpt lat="45.73096167369726" lon="4.821279427405587"><ele>166.0</ele><time>2026-04-24T16:38:52Z</time></trkpt><trkpt lat="45.73089493441267" lon="4.821314089089"><ele>166.0</ele><time>2026-04-24T16:38:53Z</time></trkpt><trkpt lat="45.7308356930886" lon="4.821350398974325"><ele>166.0</ele><time>2026-04-24T16:38:54Z</time></trkpt><trkpt lat="45.73072179175015" lon="4.821419743559166"><ele>166.0</ele><time>2026-04-24T16:38:56Z</time></trkpt><trkpt lat="45.73066134074473" lon="4.821456418345359"><ele>166.0</ele><time>2026-04-24T16:38:57Z</time></trkpt><trkpt lat="45.73059947785752" lon="4.82148951478806"><ele>166.0</ele><time>2026-04-24T16:38:58Z</time></trkpt><trkpt lat="45.73052987162958" lon="4.8215230906705155"><ele>166.0</ele><time>2026-04-24T16:38:59Z</time></trkpt><trkpt lat="45.73042056912164" lon="4.8215770799135305"><ele>166.0</ele><time>2026-04-24T16:39:01Z</time></trkpt><trkpt lat="45.73030141002835" lon="4.821618061272751"><ele>166.0</ele><time>2026-04-24T16:39:03Z</time></trkpt><trkpt lat="45.73017626388868" lon="4.821657801262858"><ele>166.0</ele><time>2026-04-24T16:39:05Z</time></trkpt><trkpt lat="45.730110383429015" lon="4.821678721528063"><ele>166.0</ele><time>2026-04-24T16:39:06Z</time></trkpt><trkpt lat="45.73004637483966" lon="4.821693909711637"><ele>166.20000000000002</ele><time>2026-04-24T16:39:07Z</time></trkpt><trkpt lat="45.729980688991525" lon="4.82169614426897"><ele>166.4</ele><time>2026-04-24T16:39:08Z</time></trkpt><trkpt lat="45.72991794105036" lon="4.821688129433996"><ele>166.6</ele><time>2026-04-24T16:39:09Z</time></trkpt><trkpt lat="45.72981980517972" lon="4.821664932753885"><ele>166.8</ele><time>2026-04-24T16:39:11Z</time></trkpt><trkpt lat="45.72972431907482" lon="4.8216274377582"><ele>167.0</ele><time>2026-04-24T16:39:13Z</time></trkpt><trkpt lat="45.729608166709475" lon="4.821562286659717"><ele>167.0</ele><time>2026-04-24T16:39:15Z</time></trkpt><trkpt lat="45.729510440656135" lon="4.821471707815864"><ele>167.0</ele><time>2026-04-24T16:39:17Z</time></trkpt><trkpt lat="45.72943623171487" lon="4.82139300995941"><ele>167.0</ele><time>2026-04-24T16:39:19Z</time></trkpt><trkpt lat="45.729377145605646" lon="4.821301377867744"><ele>167.0</ele><time>2026-04-24T16:39:22Z</time></trkpt><trkpt lat="45.72934192496202" lon="4.821216615804001"><ele>167.0</ele><time>2026-04-24T16:39:24Z</time></trkpt><trkpt lat="45.72926923618199" lon="4.82113249469012"><ele>166.5</ele><time>2026-04-24T16:39:26Z</time></trkpt><trkpt lat="45.72910440921603" lon="4.821020092002603"><ele>166.0</ele><time>2026-04-24T16:39:28Z</time></trkpt><trkpt lat="45.72904324727493" lon="4.8211419454935776"><ele>165.5</ele><time>2026-04-24T16:39:29Z</time></trkpt><trkpt lat="45.72890135396224" lon="4.8211343227878745"><ele>165.0</ele><time>2026-04-24T16:39:31Z</time></trkpt><trkpt lat="45.72882765591802" lon="4.821140877089169"><ele>165.0</ele><time>2026-04-24T16:39:32Z</time></trkpt><trkpt lat="45.7287601443165" lon="4.821139187966433"><ele>165.0</ele><time>2026-04-24T16:39:33Z</time></trkpt><trkpt lat="45.72869523832585" lon="4.821129023077277"><ele>165.0</ele><time>2026-04-24T16:39:34Z</time></trkpt><trkpt lat="45.72862894727512" lon="4.821131028600389"><ele>165.0</ele><time>2026-04-24T16:39:35Z</time></trkpt><trkpt lat="45.728508424235315" lon="4.82115548068264"><ele>165.0</ele><time>2026-04-24T16:39:37Z</time></trkpt><trkpt lat="45.72844541111467" lon="4.821188012716647"><ele>165.0</ele><time>2026-04-24T16:39:38Z</time></trkpt><trkpt lat="45.728326330334795" lon="4.821213743431118"><ele>166.16666666666666</ele><time>2026-04-24T16:39:40Z</time></trkpt><trkpt lat="45.72821117725928" lon="4.82122554880019"><ele>167.33333333333334</ele><time>2026-04-24T16:39:42Z</time></trkpt><trkpt lat="45.72812082651776" lon="4.8212338688258"><ele>168.5</ele><time>2026-04-24T16:39:44Z</time></trkpt><trkpt lat="45.72804619574189" lon="4.821236513241943"><ele>169.66666666666669</ele><time>2026-04-24T16:39:46Z</time></trkpt><trkpt lat="45.72797979372876" lon="4.821180897020186"><ele>170.83333333333334</ele><time>2026-04-24T16:39:48Z</time></trkpt><trkpt lat="45.727894056954085" lon="4.82115498111226"><ele>172.0</ele><time>2026-04-24T16:39:50Z</time></trkpt><trkpt lat="45.727803268337645" lon="4.821144551733697"><ele>171.6</ele><time>2026-04-24T16:39:52Z</time></trkpt><trkpt lat="45.72769026738686" lon="4.821119231050188"><ele>171.2</ele><time>2026-04-24T16:39:54Z</time></trkpt><trkpt lat="45.7275803375502" lon="4.821110437553799"><ele>170.8</ele><time>2026-04-24T16:39:56Z</time></trkpt><trkpt lat="45.72747633354652" lon="4.821130926278996"><ele>170.4</ele><time>2026-04-24T16:39:58Z</time></trkpt><trkpt lat="45.72737352388106" lon="4.821152727664311"><ele>170.0</ele><time>2026-04-24T16:40:00Z</time></trkpt><trkpt lat="45.72727583416654" lon="4.821120740287448"><ele>170.0</ele><time>2026-04-24T16:40:02Z</time></trkpt><trkpt lat="45.727193222007394" lon="4.821024436981969"><ele>170.0</ele><time>2026-04-24T16:40:04Z</time></trkpt><trkpt lat="45.72710276209343" lon="4.820951427268853"><ele>170.0</ele><time>2026-04-24T16:40:06Z</time></trkpt><trkpt lat="45.72700952858513" lon="4.820887701489288"><ele>170.0</ele><time>2026-04-24T16:40:08Z</time></trkpt><trkpt lat="45.726914683724374" lon="4.820883237990804"><ele>170.0</ele><time>2026-04-24T16:40:10Z</time></trkpt><trkpt lat="45.72681770718929" lon="4.820874169493247"><ele>168.8</ele><time>2026-04-24T16:40:12Z</time></trkpt><trkpt lat="45.726729020186426" lon="4.820867937662042"><ele>167.6</ele><time>2026-04-24T16:40:14Z</time></trkpt><trkpt lat="45.72664098907854" lon="4.820875918617252"><ele>166.39999999999998</ele><time>2026-04-24T16:40:16Z</time></trkpt><trkpt lat="45.72655346191495" lon="4.8208821368446815"><ele>165.2</ele><time>2026-04-24T16:40:18Z</time></trkpt><trkpt lat="45.726461104646994" lon="4.820901393322962"><ele>164.0</ele><time>2026-04-24T16:40:20Z</time></trkpt><trkpt lat="45.726362870661596" lon="4.820906462363252"><ele>164.0</ele><time>2026-04-24T16:40:22Z</time></trkpt><trkpt lat="45.72626648978315" lon="4.820919525909704"><ele>164.0</ele><time>2026-04-24T16:40:23.999Z</time></trkpt><trkpt lat="45.72617737798339" lon="4.820923442970237"><ele>164.0</ele><time>2026-04-24T16:40:25.999Z</time></trkpt><trkpt lat="45.72609009311971" lon="4.82094636612446"><ele>164.0</ele><time>2026-04-24T16:40:27.999Z</time></trkpt><trkpt lat="45.72597239543349" lon="4.820990324061291"><ele>164.0</ele><time>2026-04-24T16:40:29.999Z</time></trkpt><trkpt lat="45.72590787810841" lon="4.820993744015614"><ele>164.42857142857142</ele><time>2026-04-24T16:40:30.999Z</time></trkpt><trkpt lat="45.72583855984742" lon="4.820991002040486"><ele>164.85714285714286</ele><time>2026-04-24T16:40:31.999Z</time></trkpt><trkpt lat="45.72576092065746" lon="4.820990434402766"><ele>165.28571428571428</ele><time>2026-04-24T16:40:32.999Z</time></trkpt><trkpt lat="45.7256853734111" lon="4.821014120389711"><ele>165.71428571428572</ele><time>2026-04-24T16:40:33.999Z</time></trkpt><trkpt lat="45.725622934247184" lon="4.821043263501899"><ele>166.14285714285714</ele><time>2026-04-24T16:40:34.999Z</time></trkpt><trkpt lat="45.72556145821766" lon="4.821071953885417"><ele>166.57142857142856</ele><time>2026-04-24T16:40:36Z</time></trkpt><trkpt lat="45.725502467559515" lon="4.821110143971074"><ele>167.0</ele><time>2026-04-24T16:40:37Z</time></trkpt><trkpt lat="45.72539658531649" lon="4.821200772051437"><ele>167.0</ele><time>2026-04-24T16:40:39Z</time></trkpt><trkpt lat="45.725284385482354" lon="4.821275219457227"><ele>167.0</ele><time>2026-04-24T16:40:41Z</time></trkpt><trkpt lat="45.725177694821696" lon="4.821350030984527"><ele>167.0</ele><time>2026-04-24T16:40:43Z</time></trkpt><trkpt lat="45.725069791496026" lon="4.821442010689809"><ele>167.0</ele><time>2026-04-24T16:40:45Z</time></trkpt><trkpt lat="45.72496336425665" lon="4.821533216237229"><ele>166.5</ele><time>2026-04-24T16:40:47Z</time></trkpt><trkpt lat="45.724907718134276" lon="4.821577861649411"><ele>166.0</ele><time>2026-04-24T16:40:48Z</time></trkpt><trkpt lat="45.72485115276588" lon="4.821619567654354"><ele>165.5</ele><time>2026-04-24T16:40:49Z</time></trkpt><trkpt lat="45.72479244278035" lon="4.821659018165173"><ele>165.0</ele><time>2026-04-24T16:40:50Z</time></trkpt><trkpt lat="45.7247342638192" lon="4.821699223951861"><ele>164.5</ele><time>2026-04-24T16:40:51Z</time></trkpt><trkpt lat="45.72461997055249" lon="4.821756820880064"><ele>164.0</ele><time>2026-04-24T16:40:53Z</time></trkpt><trkpt lat="45.72449894187331" lon="4.821791237105897"><ele>164.0</ele><time>2026-04-24T16:40:55Z</time></trkpt><trkpt lat="45.72439056339934" lon="4.821815622591895"><ele>164.0</ele><time>2026-04-24T16:40:57Z</time></trkpt><trkpt lat="45.724327490470785" lon="4.82183595688353"><ele>164.0</ele><time>2026-04-24T16:40:58Z</time></trkpt><trkpt lat="45.7242279208752" lon="4.821851280591271"><ele>164.0</ele><time>2026-04-24T16:41:00Z</time></trkpt><trkpt lat="45.72413493172156" lon="4.82186846808366"><ele>164.0</ele><time>2026-04-24T16:41:02Z</time></trkpt><trkpt lat="45.724019252022806" lon="4.821873907165791"><ele>164.0</ele><time>2026-04-24T16:41:04Z</time></trkpt><trkpt lat="45.72389773575024" lon="4.821867444616688"><ele>164.0</ele><time>2026-04-24T16:41:06Z</time></trkpt><trkpt lat="45.72383516132144" lon="4.821884273483624"><ele>164.0</ele><time>2026-04-24T16:41:07Z</time></trkpt><trkpt lat="45.72372307089575" lon="4.8218302396035915"><ele>164.0</ele><time>2026-04-24T16:41:09Z</time></trkpt><trkpt lat="45.723641315143674" lon="4.821781399253067"><ele>164.0</ele><time>2026-04-24T16:41:11Z</time></trkpt><trkpt lat="45.72357718473062" lon="4.821754743742078"><ele>163.99999999999997</ele><time>2026-04-24T16:41:13Z</time></trkpt><trkpt lat="45.72364642728012" lon="4.8218084157694845"><ele>164.0</ele><time>2026-04-24T16:49:38Z</time></trkpt><trkpt lat="45.72371737871646" lon="4.821824497299099"><ele>164.0</ele><time>2026-04-24T16:49:41Z</time></trkpt><trkpt lat="45.723777350928664" lon="4.8218586477742775"><ele>164.0</ele><time>2026-04-24T16:49:44Z</time></trkpt><trkpt lat="45.7238413025027" lon="4.821856237542164"><ele>164.0</ele><time>2026-04-24T16:49:48Z</time></trkpt><trkpt lat="45.72391772268344" lon="4.821864042622387"><ele>163.99999999999997</ele><time>2026-04-24T16:49:51Z</time></trkpt><trkpt lat="45.72400612950781" lon="4.821879296229693"><ele>164.0</ele><time>2026-04-24T16:49:54Z</time></trkpt><trkpt lat="45.7240935412955" lon="4.821876365078297"><ele>164.0</ele><time>2026-04-24T16:49:56Z</time></trkpt><trkpt lat="45.72418973961366" lon="4.8218597167590245"><ele>164.0</ele><time>2026-04-24T16:49:58Z</time></trkpt><trkpt lat="45.72428540433548" lon="4.821844118125628"><ele>164.0</ele><time>2026-04-24T16:50:00Z</time></trkpt><trkpt lat="45.72437775468292" lon="4.821827109588896"><ele>164.0</ele><time>2026-04-24T16:50:02Z</time></trkpt><trkpt lat="45.72446953755656" lon="4.821800837270176"><ele>164.0</ele><time>2026-04-24T16:50:04Z</time></trkpt><trkpt lat="45.72455680253926" lon="4.8217754174316125"><ele>164.0</ele><time>2026-04-24T16:50:06Z</time></trkpt><trkpt lat="45.72464779135073" lon="4.82173627416955"><ele>164.0</ele><time>2026-04-24T16:50:08Z</time></trkpt><trkpt lat="45.72473273316619" lon="4.821690819336931"><ele>164.0</ele><time>2026-04-24T16:50:10Z</time></trkpt><trkpt lat="45.724834549761255" lon="4.821632937410665"><ele>164.0</ele><time>2026-04-24T16:50:12Z</time></trkpt><trkpt lat="45.72494715454108" lon="4.821585328535775"><ele>164.0</ele><time>2026-04-24T16:50:14Z</time></trkpt><trkpt lat="45.72505911212745" lon="4.821476152793206"><ele>163.99999999999997</ele><time>2026-04-24T16:50:16Z</time></trkpt><trkpt lat="45.725126994759734" lon="4.82143384697334"><ele>164.0</ele><time>2026-04-24T16:50:17Z</time></trkpt><trkpt lat="45.72517161901662" lon="4.821363726432074"><ele>164.0</ele><time>2026-04-24T16:50:18Z</time></trkpt><trkpt lat="45.72522649340605" lon="4.82131796389231"><ele>164.0</ele><time>2026-04-24T16:50:19Z</time></trkpt><trkpt lat="45.72528713673264" lon="4.82127430065782"><ele>164.0</ele><time>2026-04-24T16:50:20Z</time></trkpt><trkpt lat="45.725344715876616" lon="4.821209170220704"><ele>163.99999999999997</ele><time>2026-04-24T16:50:21Z</time></trkpt><trkpt lat="45.725409631444705" lon="4.821165653886433"><ele>164.0</ele><time>2026-04-24T16:50:22Z</time></trkpt><trkpt lat="45.72546739560804" lon="4.8211222425755045"><ele>164.14285714285714</ele><time>2026-04-24T16:50:23Z</time></trkpt><trkpt lat="45.725536064920895" lon="4.821101087845153"><ele>164.28571428571428</ele><time>2026-04-24T16:50:24Z</time></trkpt><trkpt lat="45.72559764122172" lon="4.821069619141421"><ele>164.42857142857144</ele><time>2026-04-24T16:50:25Z</time></trkpt><trkpt lat="45.72566463823474" lon="4.821018335319429"><ele>164.57142857142856</ele><time>2026-04-24T16:50:26Z</time></trkpt><trkpt lat="45.725736652325644" lon="4.820994224911683"><ele>164.71428571428572</ele><time>2026-04-24T16:50:27Z</time></trkpt><trkpt lat="45.72580624636375" lon="4.820990834710048"><ele>164.85714285714286</ele><time>2026-04-24T16:50:28Z</time></trkpt><trkpt lat="45.725872322318466" lon="4.82097975503432"><ele>165.0</ele><time>2026-04-24T16:50:29Z</time></trkpt><trkpt lat="45.725938846087665" lon="4.82096749378515"><ele>165.0</ele><time>2026-04-24T16:50:30Z</time></trkpt><trkpt lat="45.72600251531518" lon="4.820957666051216"><ele>165.0</ele><time>2026-04-24T16:50:31Z</time></trkpt><trkpt lat="45.72606716323492" lon="4.820948081984935"><ele>165.0</ele><time>2026-04-24T16:50:32Z</time></trkpt><trkpt lat="45.726130865384256" lon="4.8209386381071"><ele>165.0</ele><time>2026-04-24T16:50:33Z</time></trkpt><trkpt lat="45.726246302635666" lon="4.820900196727711"><ele>165.0</ele><time>2026-04-24T16:50:35Z</time></trkpt><trkpt lat="45.72635769604629" lon="4.8208953078144985"><ele>165.0</ele><time>2026-04-24T16:50:37Z</time></trkpt><trkpt lat="45.726460763984306" lon="4.820877852328005"><ele>164.8</ele><time>2026-04-24T16:50:39Z</time></trkpt><trkpt lat="45.7265693112458" lon="4.8208659853994"><ele>164.6</ele><time>2026-04-24T16:50:41Z</time></trkpt><trkpt lat="45.726668143912775" lon="4.820856562634363"><ele>164.39999999999998</ele><time>2026-04-24T16:50:43Z</time></trkpt><trkpt lat="45.72677801803121" lon="4.820859729537381"><ele>164.2</ele><time>2026-04-24T16:50:45Z</time></trkpt><trkpt lat="45.72688624683758" lon="4.8208661512732025"><ele>164.0</ele><time>2026-04-24T16:50:47Z</time></trkpt><trkpt lat="45.72701040144254" lon="4.820874248434105"><ele>164.6</ele><time>2026-04-24T16:50:49Z</time></trkpt><trkpt lat="45.72707198208041" lon="4.820902603291781"><ele>165.2</ele><time>2026-04-24T16:50:50Z</time></trkpt><trkpt lat="45.727128888935745" lon="4.820947112607004"><ele>165.79999999999998</ele><time>2026-04-24T16:50:51Z</time></trkpt><trkpt lat="45.727235655429176" lon="4.8210345125481835"><ele>166.39999999999998</ele><time>2026-04-24T16:50:53Z</time></trkpt><trkpt lat="45.72733968560605" lon="4.821092689339051"><ele>167.0</ele><time>2026-04-24T16:50:55Z</time></trkpt><trkpt lat="45.727432180087156" lon="4.8211537629067545"><ele>167.6</ele><time>2026-04-24T16:50:57Z</time></trkpt><trkpt lat="45.7275853443557" lon="4.821064623909086"><ele>168.2</ele><time>2026-04-24T16:50:59Z</time></trkpt><trkpt lat="45.72770098303639" lon="4.821085154377687"><ele>168.8</ele><time>2026-04-24T16:51:01Z</time></trkpt><trkpt lat="45.72776637655947" lon="4.821116255181131"><ele>169.4</ele><time>2026-04-24T16:51:02Z</time></trkpt><trkpt lat="45.72782743821681" lon="4.821143605610023"><ele>170.0</ele><time>2026-04-24T16:51:03Z</time></trkpt><trkpt lat="45.72793676756098" lon="4.821194047622633"><ele>170.33333333333331</ele><time>2026-04-24T16:51:05Z</time></trkpt><trkpt lat="45.728043360401855" lon="4.821262852203316"><ele>170.66666666666666</ele><time>2026-04-24T16:51:07Z</time></trkpt><trkpt lat="45.72816214851658" lon="4.821262052524445"><ele>171.0</ele><time>2026-04-24T16:51:09Z</time></trkpt><trkpt lat="45.728225908454064" lon="4.821250738274656"><ele>171.33333333333334</ele><time>2026-04-24T16:51:10Z</time></trkpt><trkpt lat="45.728292568316895" lon="4.821233573479935"><ele>171.66666666666669</ele><time>2026-04-24T16:51:11Z</time></trkpt><trkpt lat="45.72835680513808" lon="4.821218950860693"><ele>172.0</ele><time>2026-04-24T16:51:12Z</time></trkpt><trkpt lat="45.72842482804044" lon="4.821203491746892"><ele>172.0</ele><time>2026-04-24T16:51:13Z</time></trkpt><trkpt lat="45.72855187533284" lon="4.821165579032925"><ele>172.0</ele><time>2026-04-24T16:51:15Z</time></trkpt><trkpt lat="45.72865997783887" lon="4.821150504300132"><ele>172.0</ele><time>2026-04-24T16:51:17Z</time></trkpt><trkpt lat="45.72874053475514" lon="4.821145717847107"><ele>172.0</ele><time>2026-04-24T16:51:18Z</time></trkpt><trkpt lat="45.72886334906512" lon="4.821156506440537"><ele>172.0</ele><time>2026-04-24T16:51:20Z</time></trkpt><trkpt lat="45.72899045141062" lon="4.821171841844605"><ele>171.16666666666669</ele><time>2026-04-24T16:51:22Z</time></trkpt><trkpt lat="45.72905620537326" lon="4.821177587427792"><ele>170.33333333333334</ele><time>2026-04-24T16:51:23Z</time></trkpt><trkpt lat="45.72918029677857" lon="4.821208181109128"><ele>169.5</ele><time>2026-04-24T16:51:25Z</time></trkpt><trkpt lat="45.72924611849788" lon="4.821237944976315"><ele>168.66666666666666</ele><time>2026-04-24T16:51:26Z</time></trkpt><trkpt lat="45.72930243720844" lon="4.821283764233725"><ele>167.83333333333331</ele><time>2026-04-24T16:51:27Z</time></trkpt><trkpt lat="45.729355114093025" lon="4.82133479962036"><ele>167.0</ele><time>2026-04-24T16:51:28Z</time></trkpt><trkpt lat="45.72939787248702" lon="4.8214010389616595"><ele>167.0</ele><time>2026-04-24T16:51:29Z</time></trkpt><trkpt lat="45.72944767330794" lon="4.821467407850665"><ele>167.0</ele><time>2026-04-24T16:51:30Z</time></trkpt><trkpt lat="45.72950263657433" lon="4.821523317260337"><ele>167.0</ele><time>2026-04-24T16:51:31Z</time></trkpt><trkpt lat="45.7295588351679" lon="4.821570702550239"><ele>167.0</ele><time>2026-04-24T16:51:32Z</time></trkpt><trkpt lat="45.729621672723816" lon="4.821610974168583"><ele>167.0</ele><time>2026-04-24T16:51:33Z</time></trkpt><trkpt lat="45.72968640904517" lon="4.821648213888758"><ele>167.0</ele><time>2026-04-24T16:51:34Z</time></trkpt><trkpt lat="45.729752501510646" lon="4.821680122680999"><ele>167.0</ele><time>2026-04-24T16:51:35Z</time></trkpt><trkpt lat="45.72981912990464" lon="4.821701393368585"><ele>167.0</ele><time>2026-04-24T16:51:36Z</time></trkpt><trkpt lat="45.7298828308958" lon="4.821712911498231"><ele>167.0</ele><time>2026-04-24T16:51:37Z</time></trkpt><trkpt lat="45.729950218808064" lon="4.821718065660706"><ele>167.0</ele><time>2026-04-24T16:51:38Z</time></trkpt><trkpt lat="45.73001782036192" lon="4.821710360877755"><ele>167.0</ele><time>2026-04-24T16:51:39Z</time></trkpt><trkpt lat="45.730081944485335" lon="4.821699471097006"><ele>167.0</ele><time>2026-04-24T16:51:40Z</time></trkpt><trkpt lat="45.73015199502801" lon="4.82167575227763"><ele>167.0</ele><time>2026-04-24T16:51:41Z</time></trkpt><trkpt lat="45.730223815899016" lon="4.821650981793835"><ele>167.0</ele><time>2026-04-24T16:51:42Z</time></trkpt><trkpt lat="45.730299620633836" lon="4.821630649066583"><ele>166.85714285714286</ele><time>2026-04-24T16:51:43Z</time></trkpt><trkpt lat="45.73036767265952" lon="4.8216151108308045"><ele>166.71428571428572</ele><time>2026-04-24T16:51:44Z</time></trkpt><trkpt lat="45.73043109020912" lon="4.821597360342715"><ele>166.57142857142856</ele><time>2026-04-24T16:51:45Z</time></trkpt><trkpt lat="45.73049405056647" lon="4.821561368485656"><ele>166.42857142857144</ele><time>2026-04-24T16:51:46Z</time></trkpt><trkpt lat="45.7305546636044" lon="4.821520351469492"><ele>166.2857142857143</ele><time>2026-04-24T16:51:47Z</time></trkpt><trkpt lat="45.730620772663414" lon="4.8214880829522695"><ele>166.14285714285714</ele><time>2026-04-24T16:51:48Z</time></trkpt><trkpt lat="45.73069204982072" lon="4.821445388758138"><ele>166.0</ele><time>2026-04-24T16:51:49Z</time></trkpt><trkpt lat="45.73076563324667" lon="4.821403753064253"><ele>166.0</ele><time>2026-04-24T16:51:50Z</time></trkpt><trkpt lat="45.730839044054036" lon="4.821356022279981"><ele>166.0</ele><time>2026-04-24T16:51:51Z</time></trkpt><trkpt lat="45.73091811352859" lon="4.821321139371141"><ele>166.0</ele><time>2026-04-24T16:51:52Z</time></trkpt><trkpt lat="45.73099788125179" lon="4.821290429734801"><ele>166.0</ele><time>2026-04-24T16:51:53Z</time></trkpt><trkpt lat="45.73108193788631" lon="4.821257023763811"><ele>166.0</ele><time>2026-04-24T16:51:54Z</time></trkpt><trkpt lat="45.731159620048786" lon="4.821228601408817"><ele>166.0</ele><time>2026-04-24T16:51:55Z</time></trkpt><trkpt lat="45.73123901069916" lon="4.821216943811349"><ele>166.0</ele><time>2026-04-24T16:51:56Z</time></trkpt><trkpt lat="45.73131558070832" lon="4.821211135629147"><ele>166.0</ele><time>2026-04-24T16:51:57Z</time></trkpt><trkpt lat="45.73139122660095" lon="4.821209135207691"><ele>166.0</ele><time>2026-04-24T16:51:58Z</time></trkpt><trkpt lat="45.73147046040257" lon="4.821219629757463"><ele>166.0</ele><time>2026-04-24T16:51:59Z</time></trkpt><trkpt lat="45.731545182526375" lon="4.821234028150907"><ele>166.0</ele><time>2026-04-24T16:52:00Z</time></trkpt><trkpt lat="45.731618883766004" lon="4.821248449807493"><ele>166.0</ele><time>2026-04-24T16:52:01Z</time></trkpt><trkpt lat="45.731692216289844" lon="4.821262830902528"><ele>166.0</ele><time>2026-04-24T16:52:02Z</time></trkpt><trkpt lat="45.73175981956701" lon="4.821271072648068"><ele>166.0</ele><time>2026-04-24T16:52:03Z</time></trkpt><trkpt lat="45.73182760047536" lon="4.821288936774012"><ele>166.0</ele><time>2026-04-24T16:52:04Z</time></trkpt><trkpt lat="45.731894134159155" lon="4.821320398183868"><ele>166.0</ele><time>2026-04-24T16:52:05Z</time></trkpt><trkpt lat="45.73196325516158" lon="4.821344455274904"><ele>166.0</ele><time>2026-04-24T16:52:06Z</time></trkpt><trkpt lat="45.73203218414248" lon="4.821371341855155"><ele>166.0</ele><time>2026-04-24T16:52:07Z</time></trkpt><trkpt lat="45.732096656827665" lon="4.821389410380519"><ele>166.0</ele><time>2026-04-24T16:52:08Z</time></trkpt><trkpt lat="45.73216868562019" lon="4.8214172277726774"><ele>165.83333333333334</ele><time>2026-04-24T16:52:09Z</time></trkpt><trkpt lat="45.73228194320566" lon="4.82148128950758"><ele>165.66666666666669</ele><time>2026-04-24T16:52:11Z</time></trkpt><trkpt lat="45.73234053673641" lon="4.821518163816322"><ele>165.5</ele><time>2026-04-24T16:52:12Z</time></trkpt><trkpt lat="45.73246546490951" lon="4.82157134815515"><ele>165.33333333333334</ele><time>2026-04-24T16:52:14Z</time></trkpt><trkpt lat="45.73252848954164" lon="4.821605826068684"><ele>165.16666666666666</ele><time>2026-04-24T16:52:15Z</time></trkpt><trkpt lat="45.73258938059827" lon="4.821637866885986"><ele>165.0</ele><time>2026-04-24T16:52:16Z</time></trkpt><trkpt lat="45.7326499283878" lon="4.821673242326683"><ele>165.0</ele><time>2026-04-24T16:52:17Z</time></trkpt><trkpt lat="45.73276691446955" lon="4.821719398411756"><ele>165.0</ele><time>2026-04-24T16:52:19Z</time></trkpt><trkpt lat="45.73282286243517" lon="4.821767565793738"><ele>165.0</ele><time>2026-04-24T16:52:20Z</time></trkpt><trkpt lat="45.73288890712982" lon="4.821807142204367"><ele>165.0</ele><time>2026-04-24T16:52:21Z</time></trkpt><trkpt lat="45.73296189564463" lon="4.821842983140828"><ele>165.0</ele><time>2026-04-24T16:52:22Z</time></trkpt><trkpt lat="45.73303139567931" lon="4.821867599048756"><ele>165.0</ele><time>2026-04-24T16:52:23Z</time></trkpt><trkpt lat="45.73309608096236" lon="4.8218965555798645"><ele>165.16666666666666</ele><time>2026-04-24T16:52:24Z</time></trkpt><trkpt lat="45.73316176510682" lon="4.821925272137111"><ele>165.33333333333334</ele><time>2026-04-24T16:52:25Z</time></trkpt><trkpt lat="45.73322933353265" lon="4.821960870708728"><ele>165.5</ele><time>2026-04-24T16:52:26Z</time></trkpt><trkpt lat="45.73329168258165" lon="4.82189620344782"><ele>165.66666666666669</ele><time>2026-04-24T16:52:27Z</time></trkpt><trkpt lat="45.73340171614223" lon="4.821891325071561"><ele>165.83333333333334</ele><time>2026-04-24T16:52:29Z</time></trkpt><trkpt lat="45.73351903628735" lon="4.821893694849428"><ele>166.0</ele><time>2026-04-24T16:52:31Z</time></trkpt><trkpt lat="45.733585609391234" lon="4.821927179987739"><ele>166.0</ele><time>2026-04-24T16:52:32Z</time></trkpt><trkpt lat="45.7336955199437" lon="4.8219060738809345"><ele>166.0</ele><time>2026-04-24T16:52:33Z</time></trkpt><trkpt lat="45.73376450875675" lon="4.821914425814307"><ele>166.0</ele><time>2026-04-24T16:52:34Z</time></trkpt><trkpt lat="45.733829593336" lon="4.821929495598924"><ele>166.0</ele><time>2026-04-24T16:52:35Z</time></trkpt><trkpt lat="45.73389250761817" lon="4.821951874270947"><ele>166.0</ele><time>2026-04-24T16:52:36Z</time></trkpt><trkpt lat="45.733962903394094" lon="4.821966454308605"><ele>166.0</ele><time>2026-04-24T16:52:37Z</time></trkpt><trkpt lat="45.73403320966943" lon="4.821996748874547"><ele>166.0</ele><time>2026-04-24T16:52:38Z</time></trkpt><trkpt lat="45.734101303865074" lon="4.822018612319323"><ele>166.0</ele><time>2026-04-24T16:52:39Z</time></trkpt><trkpt lat="45.734166752065406" lon="4.822047452840628"><ele>166.0</ele><time>2026-04-24T16:52:40Z</time></trkpt><trkpt lat="45.734233736531316" lon="4.822061068337986"><ele>166.0</ele><time>2026-04-24T16:52:41Z</time></trkpt><trkpt lat="45.73436134883274" lon="4.822056711050742"><ele>166.0</ele><time>2026-04-24T16:52:43Z</time></trkpt><trkpt lat="45.73442555188839" lon="4.822060594283214"><ele>166.0</ele><time>2026-04-24T16:52:44Z</time></trkpt><trkpt lat="45.73449374825763" lon="4.822061082969392"><ele>165.8</ele><time>2026-04-24T16:52:45Z</time></trkpt><trkpt lat="45.73459329414101" lon="4.8220927942866565"><ele>165.60000000000002</ele><time>2026-04-24T16:52:47Z</time></trkpt><trkpt lat="45.73469569298139" lon="4.8221205238436236"><ele>165.4</ele><time>2026-04-24T16:52:49Z</time></trkpt><trkpt lat="45.73481267438914" lon="4.822206566391169"><ele>165.2</ele><time>2026-04-24T16:52:51Z</time></trkpt><trkpt lat="45.73487703683844" lon="4.822246575158258"><ele>165.0</ele><time>2026-04-24T16:52:52Z</time></trkpt><trkpt lat="45.734936290923734" lon="4.822299651153986"><ele>165.0</ele><time>2026-04-24T16:52:53Z</time></trkpt><trkpt lat="45.73499717783291" lon="4.822341984989609"><ele>165.0</ele><time>2026-04-24T16:52:54Z</time></trkpt><trkpt lat="45.735058831071875" lon="4.822393517589932"><ele>165.0</ele><time>2026-04-24T16:52:55Z</time></trkpt><trkpt lat="45.73517683338667" lon="4.8224934851296855"><ele>165.0</ele><time>2026-04-24T16:52:57Z</time></trkpt><trkpt lat="45.73525199788038" lon="4.822536479168321"><ele>165.0</ele><time>2026-04-24T16:52:58Z</time></trkpt><trkpt lat="45.73531095265583" lon="4.822579742737195"><ele>165.0</ele><time>2026-04-24T16:52:59Z</time></trkpt><trkpt lat="45.73536973506857" lon="4.822616589962647"><ele>165.2</ele><time>2026-04-24T16:53:00Z</time></trkpt><trkpt lat="45.73548152852503" lon="4.822683681725524"><ele>165.4</ele><time>2026-04-24T16:53:02Z</time></trkpt><trkpt lat="45.73556931113538" lon="4.822769157236728"><ele>165.60000000000002</ele><time>2026-04-24T16:53:04Z</time></trkpt><trkpt lat="45.73566953624754" lon="4.822856854721849"><ele>165.8</ele><time>2026-04-24T16:53:06Z</time></trkpt><trkpt lat="45.735732188938925" lon="4.822900355765452"><ele>166.0</ele><time>2026-04-24T16:53:07Z</time></trkpt><trkpt lat="45.73579326463948" lon="4.822947455097342"><ele>166.0</ele><time>2026-04-24T16:53:08Z</time></trkpt><trkpt lat="45.73586203036819" lon="4.823000606131526"><ele>166.0</ele><time>2026-04-24T16:53:09Z</time></trkpt><trkpt lat="45.73592926294835" lon="4.823059036266674"><ele>166.0</ele><time>2026-04-24T16:53:10Z</time></trkpt><trkpt lat="45.73599449740174" lon="4.8231101891704675"><ele>166.0</ele><time>2026-04-24T16:53:11Z</time></trkpt><trkpt lat="45.73605623853783" lon="4.823169198636983"><ele>166.0</ele><time>2026-04-24T16:53:12Z</time></trkpt><trkpt lat="45.73611515489853" lon="4.8232143443925155"><ele>166.0</ele><time>2026-04-24T16:53:13Z</time></trkpt><trkpt lat="45.736177962440095" lon="4.82325507285916"><ele>166.0</ele><time>2026-04-24T16:53:14Z</time></trkpt><trkpt lat="45.73624264678893" lon="4.823298380705663"><ele>165.83333333333334</ele><time>2026-04-24T16:53:15Z</time></trkpt><trkpt lat="45.7363041202955" lon="4.823344029793519"><ele>165.66666666666669</ele><time>2026-04-24T16:53:16Z</time></trkpt><trkpt lat="45.7363629469665" lon="4.823384221995242"><ele>165.5</ele><time>2026-04-24T16:53:17Z</time></trkpt><trkpt lat="45.736427031179204" lon="4.8234243973462645"><ele>165.33333333333334</ele><time>2026-04-24T16:53:18Z</time></trkpt><trkpt lat="45.73649011389047" lon="4.823470277638443"><ele>165.16666666666666</ele><time>2026-04-24T16:53:19Z</time></trkpt><trkpt lat="45.73661399933726" lon="4.823519559196264"><ele>165.0</ele><time>2026-04-24T16:53:21Z</time></trkpt><trkpt lat="45.736672459178585" lon="4.823553957597249"><ele>165.4</ele><time>2026-04-24T16:53:22Z</time></trkpt><trkpt lat="45.736731862041765" lon="4.82359283187873"><ele>165.8</ele><time>2026-04-24T16:53:23Z</time></trkpt><trkpt lat="45.73684927789986" lon="4.823661228246991"><ele>166.2</ele><time>2026-04-24T16:53:25Z</time></trkpt><trkpt lat="45.73691421438791" lon="4.8236934972856575"><ele>166.6</ele><time>2026-04-24T16:53:26Z</time></trkpt><trkpt lat="45.73701727066436" lon="4.8237487652871645"><ele>167.0</ele><time>2026-04-24T16:53:28Z</time></trkpt><trkpt lat="45.737104499931746" lon="4.82381166016858"><ele>167.0</ele><time>2026-04-24T16:53:30Z</time></trkpt><trkpt lat="45.73719161636773" lon="4.823873971018075"><ele>167.0</ele><time>2026-04-24T16:53:32Z</time></trkpt><trkpt lat="45.73729775656213" lon="4.823955672973163"><ele>167.0</ele><time>2026-04-24T16:53:34Z</time></trkpt><trkpt lat="45.73735401100222" lon="4.823999992324236"><ele>167.0</ele><time>2026-04-24T16:53:35Z</time></trkpt><trkpt lat="45.73740809632842" lon="4.824051545036278"><ele>167.0</ele><time>2026-04-24T16:53:36Z</time></trkpt><trkpt lat="45.73747083322102" lon="4.824097852784703"><ele>167.0</ele><time>2026-04-24T16:53:37Z</time></trkpt><trkpt lat="45.73753458735505" lon="4.824149518307665"><ele>167.0</ele><time>2026-04-24T16:53:38Z</time></trkpt><trkpt lat="45.737591068425374" lon="4.824201583115289"><ele>167.0</ele><time>2026-04-24T16:53:39Z</time></trkpt><trkpt lat="45.737699303240625" lon="4.824309588993596"><ele>167.0</ele><time>2026-04-24T16:53:41Z</time></trkpt><trkpt lat="45.73775594870772" lon="4.824354368528776"><ele>167.0</ele><time>2026-04-24T16:53:42Z</time></trkpt><trkpt lat="45.737811070349096" lon="4.824400722023773"><ele>167.0</ele><time>2026-04-24T16:53:43Z</time></trkpt><trkpt lat="45.73792001403624" lon="4.82448345233426"><ele>167.0</ele><time>2026-04-24T16:53:45Z</time></trkpt><trkpt lat="45.73802432492576" lon="4.82456346333207"><ele>167.0</ele><time>2026-04-24T16:53:47Z</time></trkpt><trkpt lat="45.73807705844215" lon="4.824629218273214"><ele>167.0</ele><time>2026-04-24T16:53:48Z</time></trkpt><trkpt lat="45.73818164809349" lon="4.824722961926784"><ele>167.0</ele><time>2026-04-24T16:53:50Z</time></trkpt><trkpt lat="45.73829109607981" lon="4.824815576427642"><ele>167.0</ele><time>2026-04-24T16:53:52Z</time></trkpt><trkpt lat="45.73835027599247" lon="4.824862613776064"><ele>167.0</ele><time>2026-04-24T16:53:53Z</time></trkpt><trkpt lat="45.73840343488593" lon="4.8249177225310795"><ele>167.0</ele><time>2026-04-24T16:53:54Z</time></trkpt><trkpt lat="45.73845837904106" lon="4.824977372364027"><ele>167.0</ele><time>2026-04-24T16:53:55Z</time></trkpt><trkpt lat="45.738512559049305" lon="4.825034932489199"><ele>167.0</ele><time>2026-04-24T16:53:56Z</time></trkpt><trkpt lat="45.73856577630325" lon="4.8250961807924275"><ele>167.0</ele><time>2026-04-24T16:53:57Z</time></trkpt><trkpt lat="45.73862084590467" lon="4.825150131265124"><ele>167.0</ele><time>2026-04-24T16:53:58Z</time></trkpt><trkpt lat="45.738677977207885" lon="4.825207898541267"><ele>167.0</ele><time>2026-04-24T16:53:59Z</time></trkpt><trkpt lat="45.73873176099718" lon="4.825257878687202"><ele>166.85714285714286</ele><time>2026-04-24T16:54:00Z</time></trkpt><trkpt lat="45.73879231129287" lon="4.825313442850862"><ele>166.71428571428572</ele><time>2026-04-24T16:54:01Z</time></trkpt><trkpt lat="45.73885335496655" lon="4.825366806571001"><ele>166.57142857142856</ele><time>2026-04-24T16:54:02Z</time></trkpt><trkpt lat="45.73891397944376" lon="4.8254147963368705"><ele>166.42857142857144</ele><time>2026-04-24T16:54:03Z</time></trkpt><trkpt lat="45.73897088152338" lon="4.8254642696456775"><ele>166.2857142857143</ele><time>2026-04-24T16:54:04Z</time></trkpt><trkpt lat="45.739038868106576" lon="4.8255183062050575"><ele>166.14285714285714</ele><time>2026-04-24T16:54:05Z</time></trkpt><trkpt lat="45.73909538027355" lon="4.8255638999372925"><ele>166.0</ele><time>2026-04-24T16:54:06Z</time></trkpt><trkpt lat="45.739154822675054" lon="4.825618938947723"><ele>166.0</ele><time>2026-04-24T16:54:07Z</time></trkpt><trkpt lat="45.739219796842264" lon="4.825675347718127"><ele>166.0</ele><time>2026-04-24T16:54:08Z</time></trkpt><trkpt lat="45.73927924991528" lon="4.825721928537823"><ele>166.0</ele><time>2026-04-24T16:54:09Z</time></trkpt><trkpt lat="45.73933501155143" lon="4.8257671289128785"><ele>166.0</ele><time>2026-04-24T16:54:10Z</time></trkpt><trkpt lat="45.73939337570547" lon="4.825828148361854"><ele>166.0</ele><time>2026-04-24T16:54:11Z</time></trkpt><trkpt lat="45.73945252353386" lon="4.825877027134692"><ele>166.0</ele><time>2026-04-24T16:54:12Z</time></trkpt><trkpt lat="45.73951781987722" lon="4.82592822250559"><ele>166.0</ele><time>2026-04-24T16:54:13Z</time></trkpt><trkpt lat="45.73958019645185" lon="4.825975611615808"><ele>165.85714285714286</ele><time>2026-04-24T16:54:14Z</time></trkpt><trkpt lat="45.739647115076885" lon="4.8260327374744065"><ele>165.71428571428572</ele><time>2026-04-24T16:54:15Z</time></trkpt><trkpt lat="45.73970301828154" lon="4.826086691605073"><ele>165.57142857142858</ele><time>2026-04-24T16:54:16Z</time></trkpt><trkpt lat="45.73976545639737" lon="4.82613199239651"><ele>165.42857142857144</ele><time>2026-04-24T16:54:17Z</time></trkpt><trkpt lat="45.73982925643545" lon="4.826179139242154"><ele>165.28571428571428</ele><time>2026-04-24T16:54:18Z</time></trkpt><trkpt lat="45.739892442563466" lon="4.826234300283459"><ele>165.14285714285717</ele><time>2026-04-24T16:54:19Z</time></trkpt><trkpt lat="45.73994669991496" lon="4.826280797664327"><ele>165.0</ele><time>2026-04-24T16:54:20Z</time></trkpt><trkpt lat="45.74000519957101" lon="4.82633188766207"><ele>165.0</ele><time>2026-04-24T16:54:21Z</time></trkpt><trkpt lat="45.74006458607653" lon="4.826379929463811"><ele>165.0</ele><time>2026-04-24T16:54:22Z</time></trkpt><trkpt lat="45.74012059595098" lon="4.8264290851127685"><ele>165.0</ele><time>2026-04-24T16:54:23Z</time></trkpt><trkpt lat="45.74023096709461" lon="4.826517342825424"><ele>165.0</ele><time>2026-04-24T16:54:25Z</time></trkpt><trkpt lat="45.74028973100671" lon="4.826565899284996"><ele>165.0</ele><time>2026-04-24T16:54:26Z</time></trkpt><trkpt lat="45.74040023784166" lon="4.826658187710593"><ele>165.00000000000003</ele><time>2026-04-24T16:54:28Z</time></trkpt><trkpt lat="45.74045764375295" lon="4.826703415200146"><ele>165.0</ele><time>2026-04-24T16:54:29Z</time></trkpt><trkpt lat="45.74051131600985" lon="4.826750940746283"><ele>165.0</ele><time>2026-04-24T16:54:30Z</time></trkpt><trkpt lat="45.74056715757552" lon="4.826794144341188"><ele>165.0</ele><time>2026-04-24T16:54:31Z</time></trkpt><trkpt lat="45.740629561782924" lon="4.826835813797468"><ele>165.0</ele><time>2026-04-24T16:54:32Z</time></trkpt><trkpt lat="45.74068750760587" lon="4.826876801498919"><ele>165.00000000000003</ele><time>2026-04-24T16:54:33Z</time></trkpt><trkpt lat="45.74074845077593" lon="4.826925891078126"><ele>165.0</ele><time>2026-04-24T16:54:34Z</time></trkpt><trkpt lat="45.74080670094668" lon="4.826964752214135"><ele>165.0</ele><time>2026-04-24T16:54:35Z</time></trkpt><trkpt lat="45.740863058116155" lon="4.827012404599041"><ele>165.0</ele><time>2026-04-24T16:54:36Z</time></trkpt><trkpt lat="45.74092059063792" lon="4.827063738395018"><ele>165.0</ele><time>2026-04-24T16:54:37Z</time></trkpt><trkpt lat="45.74097939989922" lon="4.827106512310919"><ele>165.0</ele><time>2026-04-24T16:54:38Z</time></trkpt><trkpt lat="45.74105184922187" lon="4.8271584144087"><ele>165.0</ele><time>2026-04-24T16:54:39Z</time></trkpt><trkpt lat="45.74111225259354" lon="4.827205087956583"><ele>165.0</ele><time>2026-04-24T16:54:40Z</time></trkpt><trkpt lat="45.74122137813026" lon="4.827297686755874"><ele>165.00000000000003</ele><time>2026-04-24T16:54:42Z</time></trkpt><trkpt lat="45.741288515265666" lon="4.827346554955993"><ele>165.0</ele><time>2026-04-24T16:54:43Z</time></trkpt><trkpt lat="45.7413478259979" lon="4.827390716914839"><ele>165.0</ele><time>2026-04-24T16:54:44Z</time></trkpt><trkpt lat="45.741411175441606" lon="4.827438920524217"><ele>165.0</ele><time>2026-04-24T16:54:45Z</time></trkpt><trkpt lat="45.741468574285015" lon="4.827487141510521"><ele>165.0</ele><time>2026-04-24T16:54:46Z</time></trkpt><trkpt lat="45.74152527861328" lon="4.827537732314942"><ele>165.00000000000003</ele><time>2026-04-24T16:54:47Z</time></trkpt><trkpt lat="45.74158464877798" lon="4.827585808956954"><ele>165.0</ele><time>2026-04-24T16:54:48Z</time></trkpt><trkpt lat="45.741700462272476" lon="4.827683162954919"><ele>165.14285714285717</ele><time>2026-04-24T16:54:50Z</time></trkpt><trkpt lat="45.74176006428386" lon="4.827733880138727"><ele>165.28571428571428</ele><time>2026-04-24T16:54:51Z</time></trkpt><trkpt lat="45.741821571797935" lon="4.827785877097729"><ele>165.42857142857144</ele><time>2026-04-24T16:54:52Z</time></trkpt><trkpt lat="45.74188464585525" lon="4.827833183005553"><ele>165.57142857142858</ele><time>2026-04-24T16:54:53Z</time></trkpt><trkpt lat="45.74194293130601" lon="4.827886622971639"><ele>165.71428571428572</ele><time>2026-04-24T16:54:54Z</time></trkpt><trkpt lat="45.74200125206705" lon="4.827940429827552"><ele>165.85714285714286</ele><time>2026-04-24T16:54:55Z</time></trkpt><trkpt lat="45.74205818775008" lon="4.827992505776434"><ele>166.0</ele><time>2026-04-24T16:54:56Z</time></trkpt><trkpt lat="45.74211832928435" lon="4.828044027509272"><ele>166.0</ele><time>2026-04-24T16:54:57Z</time></trkpt><trkpt lat="45.742176958531005" lon="4.828093554629598"><ele>166.0</ele><time>2026-04-24T16:54:58Z</time></trkpt><trkpt lat="45.7422312220945" lon="4.8281438268297725"><ele>166.0</ele><time>2026-04-24T16:54:59Z</time></trkpt><trkpt lat="45.74228765288859" lon="4.828188038944992"><ele>166.0</ele><time>2026-04-24T16:55:00Z</time></trkpt><trkpt lat="45.742393961634136" lon="4.8282760668108615"><ele>166.0</ele><time>2026-04-24T16:55:02Z</time></trkpt><trkpt lat="45.74249643031157" lon="4.828373911804314"><ele>166.0</ele><time>2026-04-24T16:55:04Z</time></trkpt><trkpt lat="45.742553341522004" lon="4.828425700543325"><ele>165.85714285714286</ele><time>2026-04-24T16:55:05Z</time></trkpt><trkpt lat="45.74261079662922" lon="4.828478079287813"><ele>165.71428571428572</ele><time>2026-04-24T16:55:06Z</time></trkpt><trkpt lat="45.742669577573395" lon="4.828524412103365"><ele>165.57142857142858</ele><time>2026-04-24T16:55:07Z</time></trkpt><trkpt lat="45.742726373878355" lon="4.828584176377266"><ele>165.42857142857144</ele><time>2026-04-24T16:55:08Z</time></trkpt><trkpt lat="45.74278616418358" lon="4.828638674115604"><ele>165.28571428571428</ele><time>2026-04-24T16:55:09Z</time></trkpt><trkpt lat="45.742849470305266" lon="4.828690397505123"><ele>165.14285714285717</ele><time>2026-04-24T16:55:10Z</time></trkpt><trkpt lat="45.742907723307475" lon="4.8287434169166925"><ele>165.0</ele><time>2026-04-24T16:55:10.999Z</time></trkpt><trkpt lat="45.74297138259247" lon="4.828791069596673"><ele>165.00000000000003</ele><time>2026-04-24T16:55:11.999Z</time></trkpt><trkpt lat="45.74303969358119" lon="4.828841905593986"><ele>165.0</ele><time>2026-04-24T16:55:12.999Z</time></trkpt><trkpt lat="45.74310100793808" lon="4.828897254001755"><ele>165.0</ele><time>2026-04-24T16:55:13.999Z</time></trkpt><trkpt lat="45.74316094476472" lon="4.828955216751146"><ele>165.0</ele><time>2026-04-24T16:55:14.999Z</time></trkpt><trkpt lat="45.743221592107936" lon="4.829014779347706"><ele>165.0</ele><time>2026-04-24T16:55:15.999Z</time></trkpt><trkpt lat="45.74328582227991" lon="4.829071514081923"><ele>165.00000000000003</ele><time>2026-04-24T16:55:16.999Z</time></trkpt><trkpt lat="45.74334704729039" lon="4.82912776918032"><ele>165.0</ele><time>2026-04-24T16:55:18Z</time></trkpt><trkpt lat="45.74341337904807" lon="4.82917964439463"><ele>165.0</ele><time>2026-04-24T16:55:19Z</time></trkpt><trkpt lat="45.74347611896964" lon="4.829231800908291"><ele>165.0</ele><time>2026-04-24T16:55:20Z</time></trkpt><trkpt lat="45.74354653254764" lon="4.829282110417942"><ele>165.0</ele><time>2026-04-24T16:55:21Z</time></trkpt><trkpt lat="45.74360849550666" lon="4.829340700207454"><ele>165.0</ele><time>2026-04-24T16:55:22Z</time></trkpt><trkpt lat="45.74367005730238" lon="4.82940198197173"><ele>165.0</ele><time>2026-04-24T16:55:23Z</time></trkpt><trkpt lat="45.74373929108564" lon="4.8294541820681465"><ele>165.0</ele><time>2026-04-24T16:55:24Z</time></trkpt><trkpt lat="45.743803443348924" lon="4.8295091259839085"><ele>165.0</ele><time>2026-04-24T16:55:25Z</time></trkpt><trkpt lat="45.74386984307802" lon="4.829555647903501"><ele>165.0</ele><time>2026-04-24T16:55:26Z</time></trkpt><trkpt lat="45.7439434156136" lon="4.829600010560001"><ele>165.0</ele><time>2026-04-24T16:55:27Z</time></trkpt><trkpt lat="45.74400988489668" lon="4.829653564660292"><ele>165.0</ele><time>2026-04-24T16:55:28Z</time></trkpt><trkpt lat="45.744080151394236" lon="4.829704114381609"><ele>165.0</ele><time>2026-04-24T16:55:29Z</time></trkpt><trkpt lat="45.74414897896351" lon="4.829761763734228"><ele>165.0</ele><time>2026-04-24T16:55:30Z</time></trkpt><trkpt lat="45.744212310662604" lon="4.829824069202283"><ele>165.0</ele><time>2026-04-24T16:55:31Z</time></trkpt><trkpt lat="45.74427476814531" lon="4.829885695045899"><ele>165.0</ele><time>2026-04-24T16:55:32Z</time></trkpt><trkpt lat="45.74433996294358" lon="4.829946997994315"><ele>165.0</ele><time>2026-04-24T16:55:33Z</time></trkpt><trkpt lat="45.74440497981456" lon="4.83000574249784"><ele>165.0</ele><time>2026-04-24T16:55:34Z</time></trkpt><trkpt lat="45.744472017239055" lon="4.830068484370283"><ele>165.0</ele><time>2026-04-24T16:55:35Z</time></trkpt><trkpt lat="45.74453384329268" lon="4.830137245979537"><ele>165.0</ele><time>2026-04-24T16:55:36Z</time></trkpt><trkpt lat="45.74459519466358" lon="4.830204841892305"><ele>165.0</ele><time>2026-04-24T16:55:37Z</time></trkpt><trkpt lat="45.74465590616686" lon="4.830273943922147"><ele>165.0</ele><time>2026-04-24T16:55:38Z</time></trkpt><trkpt lat="45.74471629691804" lon="4.8303426663184"><ele>165.0</ele><time>2026-04-24T16:55:39Z</time></trkpt><trkpt lat="45.7447813362074" lon="4.830410517351245"><ele>165.0</ele><time>2026-04-24T16:55:40Z</time></trkpt><trkpt lat="45.74484324178472" lon="4.830477468758734"><ele>165.0</ele><time>2026-04-24T16:55:41Z</time></trkpt><trkpt lat="45.744903679950895" lon="4.830543377862851"><ele>165.0</ele><time>2026-04-24T16:55:42Z</time></trkpt><trkpt lat="45.74496180505371" lon="4.830612461384304"><ele>165.00000000000003</ele><time>2026-04-24T16:55:43Z</time></trkpt><trkpt lat="45.74502256952749" lon="4.8306826339457"><ele>165.0</ele><time>2026-04-24T16:55:44Z</time></trkpt><trkpt lat="45.74507636317346" lon="4.830752179125113"><ele>165.0</ele><time>2026-04-24T16:55:45Z</time></trkpt><trkpt lat="45.74513255067157" lon="4.830819073567177"><ele>165.0</ele><time>2026-04-24T16:55:46Z</time></trkpt><trkpt lat="45.74518822927945" lon="4.83088519733885"><ele>165.0</ele><time>2026-04-24T16:55:47Z</time></trkpt><trkpt lat="45.74524884922182" lon="4.83095223288945"><ele>165.00000000000003</ele><time>2026-04-24T16:55:48Z</time></trkpt><trkpt lat="45.74530362410526" lon="4.831016721640624"><ele>165.0</ele><time>2026-04-24T16:55:49Z</time></trkpt><trkpt lat="45.745365282483576" lon="4.831083684736469"><ele>165.42857142857144</ele><time>2026-04-24T16:55:50Z</time></trkpt><trkpt lat="45.74541900786503" lon="4.831148996063069"><ele>165.85714285714286</ele><time>2026-04-24T16:55:51Z</time></trkpt><trkpt lat="45.74547737289751" lon="4.831216047476676"><ele>166.28571428571428</ele><time>2026-04-24T16:55:52Z</time></trkpt><trkpt lat="45.74553563179727" lon="4.831276481451815"><ele>166.71428571428572</ele><time>2026-04-24T16:55:53Z</time></trkpt><trkpt lat="45.74559179706337" lon="4.831345468415228"><ele>167.14285714285714</ele><time>2026-04-24T16:55:54Z</time></trkpt><trkpt lat="45.745641102175384" lon="4.831404518403448"><ele>167.57142857142858</ele><time>2026-04-24T16:55:55Z</time></trkpt><trkpt lat="45.74570042139446" lon="4.831466647661783"><ele>168.0</ele><time>2026-04-24T16:55:56Z</time></trkpt><trkpt lat="45.745757367507565" lon="4.831528907755283"><ele>168.0</ele><time>2026-04-24T16:55:57Z</time></trkpt><trkpt lat="45.74581837453233" lon="4.8315819300461635"><ele>168.0</ele><time>2026-04-24T16:55:58Z</time></trkpt><trkpt lat="45.74587800338012" lon="4.831631773520435"><ele>168.0</ele><time>2026-04-24T16:55:59Z</time></trkpt><trkpt lat="45.745944235569354" lon="4.831672711090844"><ele>168.0</ele><time>2026-04-24T16:56:00Z</time></trkpt><trkpt lat="45.74601035774948" lon="4.831713808115128"><ele>168.0</ele><time>2026-04-24T16:56:01Z</time></trkpt><trkpt lat="45.74607276206906" lon="4.831753567388392"><ele>168.0</ele><time>2026-04-24T16:56:02Z</time></trkpt><trkpt lat="45.746134269355245" lon="4.831791962572426"><ele>168.0</ele><time>2026-04-24T16:56:03Z</time></trkpt><trkpt lat="45.746193502830636" lon="4.831832712203114"><ele>167.83333333333334</ele><time>2026-04-24T16:56:04Z</time></trkpt><trkpt lat="45.746301614401254" lon="4.831931108438362"><ele>167.66666666666666</ele><time>2026-04-24T16:56:06Z</time></trkpt><trkpt lat="45.74636206018414" lon="4.831983176566162"><ele>167.5</ele><time>2026-04-24T16:56:07Z</time></trkpt><trkpt lat="45.74642521259699" lon="4.832042242760047"><ele>167.33333333333331</ele><time>2026-04-24T16:56:08Z</time></trkpt><trkpt lat="45.746489153950115" lon="4.832105295892298"><ele>167.16666666666666</ele><time>2026-04-24T16:56:09Z</time></trkpt><trkpt lat="45.74655004817461" lon="4.832161530429698"><ele>167.0</ele><time>2026-04-24T16:56:10Z</time></trkpt><trkpt lat="45.74661968367948" lon="4.832209883856972"><ele>167.0</ele><time>2026-04-24T16:56:11Z</time></trkpt><trkpt lat="45.746681495073325" lon="4.832264662815972"><ele>167.0</ele><time>2026-04-24T16:56:12Z</time></trkpt><trkpt lat="45.746746168563874" lon="4.832319801036545"><ele>167.0</ele><time>2026-04-24T16:56:13Z</time></trkpt><trkpt lat="45.746811073898066" lon="4.8323757519982555"><ele>167.0</ele><time>2026-04-24T16:56:14Z</time></trkpt><trkpt lat="45.74687363991904" lon="4.832434518809697"><ele>167.0</ele><time>2026-04-24T16:56:15Z</time></trkpt><trkpt lat="45.746933873548286" lon="4.832492288440046"><ele>167.0</ele><time>2026-04-24T16:56:16Z</time></trkpt><trkpt lat="45.74699425508694" lon="4.832538522505803"><ele>167.0</ele><time>2026-04-24T16:56:17Z</time></trkpt><trkpt lat="45.74706061772072" lon="4.832594757516329"><ele>167.85714285714286</ele><time>2026-04-24T16:56:18Z</time></trkpt><trkpt lat="45.74712519077017" lon="4.832648060845896"><ele>168.71428571428572</ele><time>2026-04-24T16:56:19Z</time></trkpt><trkpt lat="45.74718965470828" lon="4.8326966188992735"><ele>169.57142857142856</ele><time>2026-04-24T16:56:20Z</time></trkpt><trkpt lat="45.74725581251674" lon="4.832751669536728"><ele>170.42857142857144</ele><time>2026-04-24T16:56:21Z</time></trkpt><trkpt lat="45.74732766521914" lon="4.832805644795724"><ele>171.2857142857143</ele><time>2026-04-24T16:56:22Z</time></trkpt><trkpt lat="45.74739422608021" lon="4.832852003544226"><ele>172.14285714285714</ele><time>2026-04-24T16:56:23Z</time></trkpt><trkpt lat="45.74745654583805" lon="4.832892947975574"><ele>173.0</ele><time>2026-04-24T16:56:24Z</time></trkpt><trkpt lat="45.74752391130939" lon="4.8329382796127405"><ele>173.0</ele><time>2026-04-24T16:56:25Z</time></trkpt><trkpt lat="45.74758997573277" lon="4.832978769792029"><ele>173.0</ele><time>2026-04-24T16:56:26Z</time></trkpt><trkpt lat="45.74765760447584" lon="4.833021267656097"><ele>173.0</ele><time>2026-04-24T16:56:27Z</time></trkpt><trkpt lat="45.74772296278912" lon="4.833068117703982"><ele>173.0</ele><time>2026-04-24T16:56:28Z</time></trkpt><trkpt lat="45.747793222752925" lon="4.833116389648353"><ele>173.0</ele><time>2026-04-24T16:56:29Z</time></trkpt><trkpt lat="45.74786081336268" lon="4.833170641550253"><ele>173.0</ele><time>2026-04-24T16:56:30Z</time></trkpt><trkpt lat="45.747924091680055" lon="4.833225294133019"><ele>173.0</ele><time>2026-04-24T16:56:31Z</time></trkpt><trkpt lat="45.74798760212773" lon="4.8332857104885605"><ele>172.57142857142856</ele><time>2026-04-24T16:56:32Z</time></trkpt><trkpt lat="45.74805241521695" lon="4.833340369697739"><ele>172.14285714285717</ele><time>2026-04-24T16:56:33Z</time></trkpt><trkpt lat="45.74811375149803" lon="4.8333897535767445"><ele>171.71428571428572</ele><time>2026-04-24T16:56:34Z</time></trkpt><trkpt lat="45.748165638957765" lon="4.833444347854285"><ele>171.28571428571428</ele><time>2026-04-24T16:56:35Z</time></trkpt><trkpt lat="45.74824601520206" lon="4.833479885302399"><ele>170.85714285714283</ele><time>2026-04-24T16:56:36Z</time></trkpt><trkpt lat="45.74830503391544" lon="4.833524499268427"><ele>170.42857142857144</ele><time>2026-04-24T16:56:37Z</time></trkpt><trkpt lat="45.74836408282602" lon="4.833575109857948"><ele>170.0</ele><time>2026-04-24T16:56:38Z</time></trkpt><trkpt lat="45.74841960424909" lon="4.833626240318695"><ele>170.0</ele><time>2026-04-24T16:56:39Z</time></trkpt><trkpt lat="45.748478955212995" lon="4.833669710523896"><ele>170.0</ele><time>2026-04-24T16:56:40Z</time></trkpt><trkpt lat="45.748536145885524" lon="4.8337142321186315"><ele>170.0</ele><time>2026-04-24T16:56:41Z</time></trkpt><trkpt lat="45.748594296243304" lon="4.833752624301927"><ele>170.0</ele><time>2026-04-24T16:56:42Z</time></trkpt><trkpt lat="45.7487047931688" lon="4.833829860102594"><ele>170.0</ele><time>2026-04-24T16:56:44Z</time></trkpt><trkpt lat="45.748811960305" lon="4.833901622072323"><ele>170.0</ele><time>2026-04-24T16:56:46Z</time></trkpt><trkpt lat="45.74887271776263" lon="4.833940705866075"><ele>169.85714285714286</ele><time>2026-04-24T16:56:47Z</time></trkpt><trkpt lat="45.74892863631665" lon="4.833992391392582"><ele>169.7142857142857</ele><time>2026-04-24T16:56:48Z</time></trkpt><trkpt lat="45.74899115720823" lon="4.834046462414059"><ele>169.57142857142856</ele><time>2026-04-24T16:56:49Z</time></trkpt><trkpt lat="45.74905569397411" lon="4.834099948408408"><ele>169.42857142857144</ele><time>2026-04-24T16:56:50Z</time></trkpt><trkpt lat="45.74912869527672" lon="4.834152949647919"><ele>169.28571428571428</ele><time>2026-04-24T16:56:51Z</time></trkpt><trkpt lat="45.7491897608563" lon="4.8342147331222876"><ele>169.14285714285714</ele><time>2026-04-24T16:56:52Z</time></trkpt><trkpt lat="45.749243148568354" lon="4.834290707471487"><ele>169.0</ele><time>2026-04-24T16:56:53Z</time></trkpt><trkpt lat="45.74930740480939" lon="4.83433939695962"><ele>169.0</ele><time>2026-04-24T16:56:54Z</time></trkpt><trkpt lat="45.749372679158945" lon="4.83439039126873"><ele>169.0</ele><time>2026-04-24T16:56:55Z</time></trkpt><trkpt lat="45.74943725618619" lon="4.834442753042826"><ele>169.0</ele><time>2026-04-24T16:56:56Z</time></trkpt><trkpt lat="45.74949774635172" lon="4.834491801062644"><ele>169.0</ele><time>2026-04-24T16:56:57Z</time></trkpt><trkpt lat="45.74956207474556" lon="4.8345439612160845"><ele>169.0</ele><time>2026-04-24T16:56:58Z</time></trkpt><trkpt lat="45.74962720596622" lon="4.834595675976075"><ele>169.0</ele><time>2026-04-24T16:56:59Z</time></trkpt><trkpt lat="45.749690557991414" lon="4.834644469470732"><ele>169.0</ele><time>2026-04-24T16:57:00Z</time></trkpt><trkpt lat="45.74975490757157" lon="4.834695167738115"><ele>168.42857142857144</ele><time>2026-04-24T16:57:01Z</time></trkpt><trkpt lat="45.74981879365668" lon="4.83474604900911"><ele>167.85714285714286</ele><time>2026-04-24T16:57:02Z</time></trkpt><trkpt lat="45.74987926996777" lon="4.834794560355615"><ele>167.28571428571428</ele><time>2026-04-24T16:57:03Z</time></trkpt><trkpt lat="45.74994249781804" lon="4.834844694488973"><ele>166.71428571428572</ele><time>2026-04-24T16:57:04Z</time></trkpt><trkpt lat="45.75000049300622" lon="4.834888289285323"><ele>166.14285714285714</ele><time>2026-04-24T16:57:05Z</time></trkpt><trkpt lat="45.75006796016797" lon="4.834914444589296"><ele>165.57142857142858</ele><time>2026-04-24T16:57:05.999Z</time></trkpt><trkpt lat="45.75012357260451" lon="4.834975627536654"><ele>165.0</ele><time>2026-04-24T16:57:06.999Z</time></trkpt><trkpt lat="45.75018288180557" lon="4.835014123665275"><ele>165.0</ele><time>2026-04-24T16:57:07.999Z</time></trkpt><trkpt lat="45.75024325050485" lon="4.835069036772624"><ele>165.0</ele><time>2026-04-24T16:57:08.999Z</time></trkpt><trkpt lat="45.75029736454288" lon="4.835124657439427"><ele>165.0</ele><time>2026-04-24T16:57:09.999Z</time></trkpt><trkpt lat="45.75035257350826" lon="4.835179545245364"><ele>165.0</ele><time>2026-04-24T16:57:10.999Z</time></trkpt><trkpt lat="45.75040185924514" lon="4.835243200302731"><ele>165.0</ele><time>2026-04-24T16:57:11.999Z</time></trkpt><trkpt lat="45.75046635602285" lon="4.835269546135419"><ele>165.0</ele><time>2026-04-24T16:57:12.999Z</time></trkpt><trkpt lat="45.75057906888405" lon="4.835346832651366"><ele>165.16666666666666</ele><time>2026-04-24T16:57:14.999Z</time></trkpt><trkpt lat="45.75069511259554" lon="4.83542557839922"><ele>165.33333333333334</ele><time>2026-04-24T16:57:16.999Z</time></trkpt><trkpt lat="45.75075551746458" lon="4.835466568191614"><ele>165.5</ele><time>2026-04-24T16:57:17.999Z</time></trkpt><trkpt lat="45.75081497107111" lon="4.835503384490483"><ele>165.66666666666669</ele><time>2026-04-24T16:57:18.999Z</time></trkpt><trkpt lat="45.750880724158826" lon="4.8355422395857115"><ele>165.83333333333334</ele><time>2026-04-24T16:57:19.999Z</time></trkpt><trkpt lat="45.75093993730701" lon="4.835588215107466"><ele>166.0</ele><time>2026-04-24T16:57:20.999Z</time></trkpt><trkpt lat="45.75099563980446" lon="4.835631465225366"><ele>165.83333333333334</ele><time>2026-04-24T16:57:21.999Z</time></trkpt><trkpt lat="45.75105352769905" lon="4.8356777361831025"><ele>165.66666666666669</ele><time>2026-04-24T16:57:22.999Z</time></trkpt><trkpt lat="45.75110945657275" lon="4.83572243117421"><ele>165.5</ele><time>2026-04-24T16:57:24Z</time></trkpt><trkpt lat="45.75116651602212" lon="4.835768124069785"><ele>165.33333333333334</ele><time>2026-04-24T16:57:25Z</time></trkpt><trkpt lat="45.75127805022016" lon="4.835858479835666"><ele>165.16666666666666</ele><time>2026-04-24T16:57:27Z</time></trkpt><trkpt lat="45.75133318346053" lon="4.8359031437198245"><ele>165.0</ele><time>2026-04-24T16:57:28Z</time></trkpt><trkpt lat="45.75138931093193" lon="4.835948613195744"><ele>165.2857142857143</ele><time>2026-04-24T16:57:29Z</time></trkpt><trkpt lat="45.751445647838466" lon="4.835994252310585"><ele>165.57142857142858</ele><time>2026-04-24T16:57:30Z</time></trkpt><trkpt lat="45.751502023050975" lon="4.836039922477395"><ele>165.85714285714286</ele><time>2026-04-24T16:57:31Z</time></trkpt><trkpt lat="45.75155824436991" lon="4.836085468164676"><ele>166.14285714285717</ele><time>2026-04-24T16:57:32Z</time></trkpt><trkpt lat="45.75161560547557" lon="4.836131936690802"><ele>166.42857142857144</ele><time>2026-04-24T16:57:33Z</time></trkpt><trkpt lat="45.75167176062428" lon="4.836177428577868"><ele>166.71428571428572</ele><time>2026-04-24T16:57:34Z</time></trkpt><trkpt lat="45.751730806772805" lon="4.8362252623909505"><ele>167.0</ele><time>2026-04-24T16:57:35Z</time></trkpt><trkpt lat="45.751787364283295" lon="4.8362714096284005"><ele>167.0</ele><time>2026-04-24T16:57:36Z</time></trkpt><trkpt lat="45.75184593645767" lon="4.8363198146925175"><ele>167.0</ele><time>2026-04-24T16:57:37Z</time></trkpt><trkpt lat="45.75195272520405" lon="4.836404204988389"><ele>167.0</ele><time>2026-04-24T16:57:39Z</time></trkpt><trkpt lat="45.7519338207201" lon="4.836649602672282"><ele>167.0</ele><time>2026-04-24T16:57:40Z</time></trkpt><trkpt lat="45.75199103788113" lon="4.836687241808667"><ele>167.0</ele><time>2026-04-24T16:57:41Z</time></trkpt><trkpt lat="45.7520478985617" lon="4.836726271641715"><ele>166.83333333333331</ele><time>2026-04-24T16:57:42Z</time></trkpt><trkpt lat="45.75216445304653" lon="4.836786661089301"><ele>166.66666666666666</ele><time>2026-04-24T16:57:44Z</time></trkpt><trkpt lat="45.752233372982005" lon="4.8367988067912915"><ele>166.5</ele><time>2026-04-24T16:57:45Z</time></trkpt><trkpt lat="45.752295469068734" lon="4.836770385768518"><ele>166.33333333333334</ele><time>2026-04-24T16:57:46Z</time></trkpt><trkpt lat="45.75235283038212" lon="4.836724284620001"><ele>166.16666666666669</ele><time>2026-04-24T16:57:47Z</time></trkpt><trkpt lat="45.75247267805222" lon="4.836702380112713"><ele>166.0</ele><time>2026-04-24T16:57:49Z</time></trkpt><trkpt lat="45.75253604527058" lon="4.836711979874914"><ele>166.0</ele><time>2026-04-24T16:57:50Z</time></trkpt><trkpt lat="45.75259967751743" lon="4.836732619070778"><ele>166.0</ele><time>2026-04-24T16:57:51Z</time></trkpt><trkpt lat="45.75265854576085" lon="4.836768975083156"><ele>166.0</ele><time>2026-04-24T16:57:52Z</time></trkpt><trkpt lat="45.75271484266159" lon="4.836817447046635"><ele>166.0</ele><time>2026-04-24T16:57:53Z</time></trkpt><trkpt lat="45.752770783652245" lon="4.836865900738034"><ele>166.0</ele><time>2026-04-24T16:57:54Z</time></trkpt><trkpt lat="45.75282654356784" lon="4.836911250743993"><ele>166.0</ele><time>2026-04-24T16:57:55Z</time></trkpt><trkpt lat="45.75288308232718" lon="4.836957481024788"><ele>166.0</ele><time>2026-04-24T16:57:56Z</time></trkpt><trkpt lat="45.75294396090759" lon="4.837003802642765"><ele>166.0</ele><time>2026-04-24T16:57:57Z</time></trkpt><trkpt lat="45.75300309203015" lon="4.837051938122527"><ele>166.0</ele><time>2026-04-24T16:57:58Z</time></trkpt><trkpt lat="45.75306036672855" lon="4.8370989070396835"><ele>166.0</ele><time>2026-04-24T16:57:59Z</time></trkpt><trkpt lat="45.75311748575703" lon="4.8371425456295105"><ele>166.0</ele><time>2026-04-24T16:58:00Z</time></trkpt><trkpt lat="45.75317992292263" lon="4.8371918577525985"><ele>166.0</ele><time>2026-04-24T16:58:01Z</time></trkpt><trkpt lat="45.75323770924555" lon="4.83723616191208"><ele>166.0</ele><time>2026-04-24T16:58:02Z</time></trkpt><trkpt lat="45.753298830619585" lon="4.837280064648359"><ele>166.0</ele><time>2026-04-24T16:58:03Z</time></trkpt><trkpt lat="45.75335854739662" lon="4.837330710067768"><ele>166.0</ele><time>2026-04-24T16:58:04Z</time></trkpt><trkpt lat="45.753414745532254" lon="4.8373761679489515"><ele>166.0</ele><time>2026-04-24T16:58:05Z</time></trkpt><trkpt lat="45.753522744850585" lon="4.837463876559803"><ele>166.0</ele><time>2026-04-24T16:58:07Z</time></trkpt><trkpt lat="45.75362698512329" lon="4.8375438986703045"><ele>166.0</ele><time>2026-04-24T16:58:09Z</time></trkpt><trkpt lat="45.75373319550008" lon="4.837609211572462"><ele>166.0</ele><time>2026-04-24T16:58:11Z</time></trkpt><trkpt lat="45.753842040087996" lon="4.837691409039647"><ele>166.0</ele><time>2026-04-24T16:58:13Z</time></trkpt><trkpt lat="45.75390083402692" lon="4.837732813558793"><ele>166.0</ele><time>2026-04-24T16:58:14Z</time></trkpt><trkpt lat="45.75396491803321" lon="4.837776082299045"><ele>166.0</ele><time>2026-04-24T16:58:15Z</time></trkpt><trkpt lat="45.75402347279057" lon="4.837826162997428"><ele>166.0</ele><time>2026-04-24T16:58:16Z</time></trkpt><trkpt lat="45.754081903786755" lon="4.837865736349264"><ele>166.0</ele><time>2026-04-24T16:58:17Z</time></trkpt><trkpt lat="45.754140463821976" lon="4.837913067616007"><ele>166.0</ele><time>2026-04-24T16:58:18Z</time></trkpt><trkpt lat="45.75419961024978" lon="4.837951636558589"><ele>166.0</ele><time>2026-04-24T16:58:19Z</time></trkpt><trkpt lat="45.75430903255783" lon="4.838026816450676"><ele>166.0</ele><time>2026-04-24T16:58:21Z</time></trkpt><trkpt lat="45.7543701493799" lon="4.838074791947587"><ele>166.0</ele><time>2026-04-24T16:58:22Z</time></trkpt><trkpt lat="45.75443639154846" lon="4.838131766288821"><ele>166.0</ele><time>2026-04-24T16:58:23Z</time></trkpt><trkpt lat="45.75450380164139" lon="4.83818531021933"><ele>166.0</ele><time>2026-04-24T16:58:24Z</time></trkpt><trkpt lat="45.75457115450554" lon="4.838225438079782"><ele>166.0</ele><time>2026-04-24T16:58:25Z</time></trkpt><trkpt lat="45.754629997476435" lon="4.83826435918215"><ele>166.0</ele><time>2026-04-24T16:58:26Z</time></trkpt><trkpt lat="45.75469312781318" lon="4.8383040474801104"><ele>166.0</ele><time>2026-04-24T16:58:27Z</time></trkpt><trkpt lat="45.75475040771007" lon="4.838342932300972"><ele>165.83333333333334</ele><time>2026-04-24T16:58:28Z</time></trkpt><trkpt lat="45.754808529961714" lon="4.838381871080439"><ele>165.66666666666669</ele><time>2026-04-24T16:58:29Z</time></trkpt><trkpt lat="45.75486612393057" lon="4.838424518415275"><ele>165.5</ele><time>2026-04-24T16:58:30Z</time></trkpt><trkpt lat="45.754925997477685" lon="4.838460751045133"><ele>165.33333333333334</ele><time>2026-04-24T16:58:31Z</time></trkpt><trkpt lat="45.75498367651772" lon="4.838498551510963"><ele>165.16666666666666</ele><time>2026-04-24T16:58:32Z</time></trkpt><trkpt lat="45.755094509135226" lon="4.838567338802785"><ele>165.0</ele><time>2026-04-24T16:58:34Z</time></trkpt><trkpt lat="45.7551971206797" lon="4.8386282200763695"><ele>165.25</ele><time>2026-04-24T16:58:36Z</time></trkpt><trkpt lat="45.75530031455392" lon="4.838687423431939"><ele>165.5</ele><time>2026-04-24T16:58:38Z</time></trkpt><trkpt lat="45.75539565323408" lon="4.8387556817898085"><ele>165.75</ele><time>2026-04-24T16:58:40Z</time></trkpt><trkpt lat="45.75547866540658" lon="4.838875108207454"><ele>166.0</ele><time>2026-04-24T16:58:42Z</time></trkpt><trkpt lat="45.75557739558984" lon="4.838974543271211"><ele>166.0</ele><time>2026-04-24T16:58:44Z</time></trkpt><trkpt lat="45.75569414102542" lon="4.839047225790264"><ele>166.0</ele><time>2026-04-24T16:58:46Z</time></trkpt><trkpt lat="45.75575713951772" lon="4.839082080215526"><ele>166.0</ele><time>2026-04-24T16:58:47Z</time></trkpt><trkpt lat="45.75581986237224" lon="4.839112654905119"><ele>166.0</ele><time>2026-04-24T16:58:48Z</time></trkpt><trkpt lat="45.755880998706736" lon="4.839148778134658"><ele>166.0</ele><time>2026-04-24T16:58:49Z</time></trkpt><trkpt lat="45.755939470788796" lon="4.839183959834753"><ele>166.0</ele><time>2026-04-24T16:58:50Z</time></trkpt><trkpt lat="45.75600134704033" lon="4.839216221379072"><ele>165.85714285714286</ele><time>2026-04-24T16:58:51Z</time></trkpt><trkpt lat="45.75606401524374" lon="4.839245247105412"><ele>165.71428571428572</ele><time>2026-04-24T16:58:52Z</time></trkpt><trkpt lat="45.756181217588725" lon="4.839305420754221"><ele>165.57142857142858</ele><time>2026-04-24T16:58:53.999Z</time></trkpt><trkpt lat="45.75624120963596" lon="4.839336192912406"><ele>165.42857142857144</ele><time>2026-04-24T16:58:54.999Z</time></trkpt><trkpt lat="45.75630086459197" lon="4.839369793738624"><ele>165.28571428571428</ele><time>2026-04-24T16:58:55.999Z</time></trkpt><trkpt lat="45.75636051978484" lon="4.839405669080243"><ele>165.14285714285717</ele><time>2026-04-24T16:58:56.999Z</time></trkpt><trkpt lat="45.75642143650936" lon="4.839436994666344"><ele>165.0</ele><time>2026-04-24T16:58:57.999Z</time></trkpt><trkpt lat="45.756482828614516" lon="4.839464407425332"><ele>165.2</ele><time>2026-04-24T16:58:58.999Z</time></trkpt><trkpt lat="45.756578864315884" lon="4.839530452822779"><ele>165.4</ele><time>2026-04-24T16:59:00.999Z</time></trkpt><trkpt lat="45.756645781261355" lon="4.839578122335371"><ele>165.60000000000002</ele><time>2026-04-24T16:59:01.999Z</time></trkpt><trkpt lat="45.756772722420386" lon="4.839637087560633"><ele>165.8</ele><time>2026-04-24T16:59:03.999Z</time></trkpt><trkpt lat="45.75683340495284" lon="4.839670123400911"><ele>166.0</ele><time>2026-04-24T16:59:04.999Z</time></trkpt><trkpt lat="45.756950661737456" lon="4.839730660583709"><ele>166.0</ele><time>2026-04-24T16:59:06.999Z</time></trkpt><trkpt lat="45.75701223811903" lon="4.83975811063972"><ele>166.0</ele><time>2026-04-24T16:59:07.999Z</time></trkpt><trkpt lat="45.75707443788717" lon="4.839786923884598"><ele>166.0</ele><time>2026-04-24T16:59:08.999Z</time></trkpt><trkpt lat="45.757194188590255" lon="4.8398427024275446"><ele>166.0</ele><time>2026-04-24T16:59:10.999Z</time></trkpt><trkpt lat="45.75731454469814" lon="4.839900981272903"><ele>166.0</ele><time>2026-04-24T16:59:12.999Z</time></trkpt><trkpt lat="45.75742909273712" lon="4.839946073814843"><ele>166.0</ele><time>2026-04-24T16:59:14.999Z</time></trkpt><trkpt lat="45.75754099644548" lon="4.83999724893888"><ele>166.0</ele><time>2026-04-24T16:59:16.999Z</time></trkpt><trkpt lat="45.75765570525013" lon="4.840057437584664"><ele>166.0</ele><time>2026-04-24T16:59:18.999Z</time></trkpt><trkpt lat="45.75777183625517" lon="4.840106215151521"><ele>166.0</ele><time>2026-04-24T16:59:20.999Z</time></trkpt><trkpt lat="45.75789337774142" lon="4.840156808652232"><ele>166.7142857142857</ele><time>2026-04-24T16:59:22.999Z</time></trkpt><trkpt lat="45.75795597197582" lon="4.840180448956578"><ele>167.42857142857144</ele><time>2026-04-24T16:59:23.999Z</time></trkpt><trkpt lat="45.758018281364166" lon="4.840204872211071"><ele>168.14285714285714</ele><time>2026-04-24T16:59:24.999Z</time></trkpt><trkpt lat="45.758140968389505" lon="4.840252156218687"><ele>168.85714285714283</ele><time>2026-04-24T16:59:26.999Z</time></trkpt><trkpt lat="45.7582040368944" lon="4.840272720885171"><ele>169.57142857142856</ele><time>2026-04-24T16:59:27.999Z</time></trkpt><trkpt lat="45.758266172646714" lon="4.84029457695071"><ele>170.28571428571428</ele><time>2026-04-24T16:59:28.999Z</time></trkpt><trkpt lat="45.758329157011374" lon="4.840313256640874"><ele>171.0</ele><time>2026-04-24T16:59:30Z</time></trkpt><trkpt lat="45.75839007019036" lon="4.840337633527052"><ele>171.0</ele><time>2026-04-24T16:59:31Z</time></trkpt><trkpt lat="45.758514006070754" lon="4.840376276965035"><ele>171.0</ele><time>2026-04-24T16:59:33Z</time></trkpt><trkpt lat="45.758577426027024" lon="4.840396341017992"><ele>171.0</ele><time>2026-04-24T16:59:34Z</time></trkpt><trkpt lat="45.758639670770464" lon="4.8404158085338445"><ele>171.0</ele><time>2026-04-24T16:59:35Z</time></trkpt><trkpt lat="45.75876288138039" lon="4.840451652346319"><ele>171.0</ele><time>2026-04-24T16:59:37Z</time></trkpt><trkpt lat="45.758826482734584" lon="4.840469564458801"><ele>171.0</ele><time>2026-04-24T16:59:38Z</time></trkpt><trkpt lat="45.758891231216225" lon="4.840487635991016"><ele>170.8</ele><time>2026-04-24T16:59:39Z</time></trkpt><trkpt lat="45.7589572939004" lon="4.840501034243255"><ele>170.60000000000002</ele><time>2026-04-24T16:59:40Z</time></trkpt><trkpt lat="45.75907872807232" lon="4.840538476320924"><ele>170.4</ele><time>2026-04-24T16:59:42Z</time></trkpt><trkpt lat="45.75914420404943" lon="4.840555598649971"><ele>170.2</ele><time>2026-04-24T16:59:43Z</time></trkpt><trkpt lat="45.75926562978594" lon="4.84058222614194"><ele>170.0</ele><time>2026-04-24T16:59:45Z</time></trkpt><trkpt lat="45.75939002232191" lon="4.8406040803635"><ele>170.0</ele><time>2026-04-24T16:59:47Z</time></trkpt><trkpt lat="45.75945516123506" lon="4.840613771473828"><ele>170.0</ele><time>2026-04-24T16:59:48Z</time></trkpt><trkpt lat="45.759518077933045" lon="4.840626274778344"><ele>170.0</ele><time>2026-04-24T16:59:49Z</time></trkpt><trkpt lat="45.75958267787245" lon="4.840637083070054"><ele>170.0</ele><time>2026-04-24T16:59:50Z</time></trkpt><trkpt lat="45.75964860232408" lon="4.840646654684075"><ele>170.0</ele><time>2026-04-24T16:59:51Z</time></trkpt><trkpt lat="45.759713843535216" lon="4.84066059184097"><ele>170.0</ele><time>2026-04-24T16:59:52Z</time></trkpt><trkpt lat="45.75978139501294" lon="4.8406612008177605"><ele>170.0</ele><time>2026-04-24T16:59:53Z</time></trkpt><trkpt lat="45.75985573228308" lon="4.840662599554584"><ele>170.0</ele><time>2026-04-24T16:59:54Z</time></trkpt><trkpt lat="45.759926120666734" lon="4.840674517419331"><ele>170.0</ele><time>2026-04-24T16:59:55Z</time></trkpt><trkpt lat="45.75998891362571" lon="4.84069901952514"><ele>170.0</ele><time>2026-04-24T16:59:56Z</time></trkpt><trkpt lat="45.76005959675091" lon="4.840718780419398"><ele>170.0</ele><time>2026-04-24T16:59:57Z</time></trkpt><trkpt lat="45.76013188892026" lon="4.840736327286081"><ele>170.0</ele><time>2026-04-24T16:59:58Z</time></trkpt><trkpt lat="45.760211588953446" lon="4.840729497765014"><ele>170.0</ele><time>2026-04-24T16:59:59Z</time></trkpt><trkpt lat="45.76027456467702" lon="4.8407313098143785"><ele>170.0</ele><time>2026-04-24T17:00:00Z</time></trkpt><trkpt lat="45.76034010818318" lon="4.840733890886079"><ele>169.8</ele><time>2026-04-24T17:00:01Z</time></trkpt><trkpt lat="45.76046393611822" lon="4.8407402797200225"><ele>169.6</ele><time>2026-04-24T17:00:03Z</time></trkpt><trkpt lat="45.760530585727665" lon="4.840736948699946"><ele>169.39999999999998</ele><time>2026-04-24T17:00:04Z</time></trkpt><trkpt lat="45.76065409660718" lon="4.84073502075137"><ele>169.2</ele><time>2026-04-24T17:00:06Z</time></trkpt><trkpt lat="45.76077616053076" lon="4.840748534303855"><ele>169.0</ele><time>2026-04-24T17:00:08Z</time></trkpt><trkpt lat="45.76088432415865" lon="4.840754882683524"><ele>169.0</ele><time>2026-04-24T17:00:10Z</time></trkpt><trkpt lat="45.76101021825509" lon="4.840764694261895"><ele>169.0</ele><time>2026-04-24T17:00:12Z</time></trkpt><trkpt lat="45.76107781165084" lon="4.840772256839499"><ele>169.0</ele><time>2026-04-24T17:00:13Z</time></trkpt><trkpt lat="45.76115407681321" lon="4.840778467484007"><ele>169.0</ele><time>2026-04-24T17:00:14Z</time></trkpt><trkpt lat="45.76122979493533" lon="4.840785994613362"><ele>169.0</ele><time>2026-04-24T17:00:15Z</time></trkpt><trkpt lat="45.761308287865305" lon="4.84078944207822"><ele>169.0</ele><time>2026-04-24T17:00:16Z</time></trkpt><trkpt lat="45.761379784245364" lon="4.840796388950462"><ele>168.85714285714286</ele><time>2026-04-24T17:00:17Z</time></trkpt><trkpt lat="45.76145212077611" lon="4.840802715101668"><ele>168.71428571428572</ele><time>2026-04-24T17:00:18Z</time></trkpt><trkpt lat="45.761521984931576" lon="4.840811253012931"><ele>168.57142857142856</ele><time>2026-04-24T17:00:19Z</time></trkpt><trkpt lat="45.76159308551957" lon="4.840821716717035"><ele>168.42857142857144</ele><time>2026-04-24T17:00:20Z</time></trkpt><trkpt lat="45.76166673940262" lon="4.840839183375315"><ele>168.28571428571428</ele><time>2026-04-24T17:00:21Z</time></trkpt><trkpt lat="45.761737663079515" lon="4.8408474623466535"><ele>168.14285714285714</ele><time>2026-04-24T17:00:22Z</time></trkpt><trkpt lat="45.76181489276921" lon="4.840857152642723"><ele>168.0</ele><time>2026-04-24T17:00:23Z</time></trkpt><trkpt lat="45.761881786783846" lon="4.84086399520239"><ele>167.85714285714286</ele><time>2026-04-24T17:00:24Z</time></trkpt><trkpt lat="45.76195098922636" lon="4.84087070036968"><ele>167.71428571428572</ele><time>2026-04-24T17:00:25Z</time></trkpt><trkpt lat="45.7620196053628" lon="4.8408753467955306"><ele>167.57142857142856</ele><time>2026-04-24T17:00:26Z</time></trkpt><trkpt lat="45.762087906168595" lon="4.8408822900019866"><ele>167.42857142857144</ele><time>2026-04-24T17:00:27Z</time></trkpt><trkpt lat="45.76215412619916" lon="4.84089252719521"><ele>167.28571428571428</ele><time>2026-04-24T17:00:28Z</time></trkpt><trkpt lat="45.762221998196395" lon="4.840898211085342"><ele>167.14285714285714</ele><time>2026-04-24T17:00:29Z</time></trkpt><trkpt lat="45.76229247792628" lon="4.840903657993491"><ele>167.0</ele><time>2026-04-24T17:00:30Z</time></trkpt><trkpt lat="45.762362854866176" lon="4.84091237931211"><ele>167.0</ele><time>2026-04-24T17:00:31Z</time></trkpt><trkpt lat="45.76243363598395" lon="4.840926704469822"><ele>167.0</ele><time>2026-04-24T17:00:32Z</time></trkpt><trkpt lat="45.762506441653905" lon="4.8409271637211235"><ele>167.0</ele><time>2026-04-24T17:00:33Z</time></trkpt><trkpt lat="45.762578096095375" lon="4.840927886333865"><ele>167.0</ele><time>2026-04-24T17:00:34Z</time></trkpt><trkpt lat="45.7626461144681" lon="4.840936946805644"><ele>167.0</ele><time>2026-04-24T17:00:35Z</time></trkpt><trkpt lat="45.76271360012024" lon="4.8409424724646675"><ele>167.0</ele><time>2026-04-24T17:00:36Z</time></trkpt><trkpt lat="45.76277777494078" lon="4.840945242905542"><ele>167.0</ele><time>2026-04-24T17:00:37Z</time></trkpt><trkpt lat="45.76284163443077" lon="4.840952084632688"><ele>167.85714285714286</ele><time>2026-04-24T17:00:38Z</time></trkpt><trkpt lat="45.76290570001741" lon="4.8409671830644"><ele>168.71428571428572</ele><time>2026-04-24T17:00:39Z</time></trkpt><trkpt lat="45.762970193247156" lon="4.840979612674887"><ele>169.57142857142856</ele><time>2026-04-24T17:00:40Z</time></trkpt><trkpt lat="45.763036685930025" lon="4.840986814767855"><ele>170.42857142857144</ele><time>2026-04-24T17:00:40.999Z</time></trkpt><trkpt lat="45.7631075288682" lon="4.840989959289531"><ele>171.2857142857143</ele><time>2026-04-24T17:00:41.999Z</time></trkpt><trkpt lat="45.763177977481874" lon="4.840991678039926"><ele>172.14285714285714</ele><time>2026-04-24T17:00:42.999Z</time></trkpt><trkpt lat="45.76324155844695" lon="4.840996115543411"><ele>173.0</ele><time>2026-04-24T17:00:43.999Z</time></trkpt><trkpt lat="45.76331016754565" lon="4.840992681571421"><ele>173.0</ele><time>2026-04-24T17:00:44.999Z</time></trkpt><trkpt lat="45.763380541821185" lon="4.840984092547077"><ele>173.0</ele><time>2026-04-24T17:00:45.999Z</time></trkpt><trkpt lat="45.76345596987546" lon="4.840981311510602"><ele>173.0</ele><time>2026-04-24T17:00:46.999Z</time></trkpt><trkpt lat="45.76352354649813" lon="4.840983858256349"><ele>173.0</ele><time>2026-04-24T17:00:47.999Z</time></trkpt><trkpt lat="45.76359062670447" lon="4.840996254172602"><ele>173.0</ele><time>2026-04-24T17:00:48.999Z</time></trkpt><trkpt lat="45.763661205952125" lon="4.841013040619832"><ele>173.0</ele><time>2026-04-24T17:00:49.999Z</time></trkpt><trkpt lat="45.763724661503176" lon="4.841022262584526"><ele>173.0</ele><time>2026-04-24T17:00:50.999Z</time></trkpt><trkpt lat="45.76380196049238" lon="4.841031183886128"><ele>173.16666666666666</ele><time>2026-04-24T17:00:51.999Z</time></trkpt><trkpt lat="45.763871277997666" lon="4.841028073293254"><ele>173.33333333333331</ele><time>2026-04-24T17:00:52.999Z</time></trkpt><trkpt lat="45.76393771383423" lon="4.841040814582125"><ele>173.5</ele><time>2026-04-24T17:00:53.999Z</time></trkpt><trkpt lat="45.76399981011803" lon="4.841056341208051"><ele>173.66666666666666</ele><time>2026-04-24T17:00:54.999Z</time></trkpt><trkpt lat="45.76406413250369" lon="4.841067333532064"><ele>173.83333333333334</ele><time>2026-04-24T17:00:55.999Z</time></trkpt><trkpt lat="45.76418886970399" lon="4.841080720855182"><ele>174.0</ele><time>2026-04-24T17:00:57.999Z</time></trkpt><trkpt lat="45.76431245189014" lon="4.841093453941393"><ele>174.0</ele><time>2026-04-24T17:00:59.999Z</time></trkpt><trkpt lat="45.76443458386648" lon="4.841095805281129"><ele>174.0</ele><time>2026-04-24T17:01:01.999Z</time></trkpt><trkpt lat="45.76449888154115" lon="4.84109309968903"><ele>174.0</ele><time>2026-04-24T17:01:02.999Z</time></trkpt><trkpt lat="45.76456193751179" lon="4.841096485221033"><ele>174.0</ele><time>2026-04-24T17:01:03.999Z</time></trkpt><trkpt lat="45.764624905180035" lon="4.841098560006639"><ele>174.0</ele><time>2026-04-24T17:01:04.999Z</time></trkpt><trkpt lat="45.76469071984839" lon="4.841099542421752"><ele>174.0</ele><time>2026-04-24T17:01:05.999Z</time></trkpt><trkpt lat="45.76475541413352" lon="4.841102510306628"><ele>174.0</ele><time>2026-04-24T17:01:06.999Z</time></trkpt><trkpt lat="45.76482075186402" lon="4.841106373308261"><ele>174.0</ele><time>2026-04-24T17:01:07.999Z</time></trkpt><trkpt lat="45.764947450277305" lon="4.841099039148353"><ele>174.0</ele><time>2026-04-24T17:01:09.999Z</time></trkpt><trkpt lat="45.7650106240474" lon="4.841097224947542"><ele>174.0</ele><time>2026-04-24T17:01:10.999Z</time></trkpt><trkpt lat="45.76513717731407" lon="4.841089661837568"><ele>174.0</ele><time>2026-04-24T17:01:12.999Z</time></trkpt><trkpt lat="45.76520337250377" lon="4.8410830415760735"><ele>174.0</ele><time>2026-04-24T17:01:13.999Z</time></trkpt><trkpt lat="45.76527049445782" lon="4.841078282013121"><ele>174.28571428571428</ele><time>2026-04-24T17:01:14.999Z</time></trkpt><trkpt lat="45.76533724096512" lon="4.841071989450595"><ele>174.57142857142858</ele><time>2026-04-24T17:01:15.999Z</time></trkpt><trkpt lat="45.765402927402086" lon="4.84106403751664"><ele>174.85714285714286</ele><time>2026-04-24T17:01:16.999Z</time></trkpt><trkpt lat="45.76546816119548" lon="4.841055336214509"><ele>175.14285714285714</ele><time>2026-04-24T17:01:17.999Z</time></trkpt><trkpt lat="45.765536724109225" lon="4.841050286901731"><ele>175.42857142857142</ele><time>2026-04-24T17:01:18.999Z</time></trkpt><trkpt lat="45.76560431212532" lon="4.841038447183448"><ele>175.71428571428572</ele><time>2026-04-24T17:01:19.999Z</time></trkpt><trkpt lat="45.765671906218344" lon="4.8410247076815995"><ele>176.0</ele><time>2026-04-24T17:01:20.999Z</time></trkpt><trkpt lat="45.76574035809263" lon="4.841022356870364"><ele>176.0</ele><time>2026-04-24T17:01:21.999Z</time></trkpt><trkpt lat="45.76580707230783" lon="4.841011565247269"><ele>176.0</ele><time>2026-04-24T17:01:22.999Z</time></trkpt><trkpt lat="45.76587760766518" lon="4.841012167260295"><ele>176.0</ele><time>2026-04-24T17:01:23.999Z</time></trkpt><trkpt lat="45.7659491001211" lon="4.841007108905876"><ele>176.0</ele><time>2026-04-24T17:01:24.999Z</time></trkpt><trkpt lat="45.766019555134946" lon="4.8410078941517956"><ele>176.0</ele><time>2026-04-24T17:01:25.999Z</time></trkpt><trkpt lat="45.766087950903305" lon="4.8410096577535775"><ele>176.0</ele><time>2026-04-24T17:01:26.999Z</time></trkpt><trkpt lat="45.76615156391203" lon="4.841011520861115"><ele>176.0</ele><time>2026-04-24T17:01:27.999Z</time></trkpt><trkpt lat="45.76627421939615" lon="4.841000301568865"><ele>176.4</ele><time>2026-04-24T17:01:29.999Z</time></trkpt><trkpt lat="45.766393025407574" lon="4.840996776039553"><ele>176.8</ele><time>2026-04-24T17:01:31.999Z</time></trkpt><trkpt lat="45.766456774832534" lon="4.840988697422845"><ele>177.20000000000002</ele><time>2026-04-24T17:01:32.999Z</time></trkpt><trkpt lat="45.7665940697116" lon="4.840978446713551"><ele>177.60000000000002</ele><time>2026-04-24T17:01:34.999Z</time></trkpt><trkpt lat="45.766669177591304" lon="4.840968370176998"><ele>178.0</ele><time>2026-04-24T17:01:36Z</time></trkpt><trkpt lat="45.766750642895" lon="4.840966588798955"><ele>176.0</ele><time>2026-04-24T17:01:37Z</time></trkpt><trkpt lat="45.7668254850738" lon="4.840956371992467"><ele>174.0</ele><time>2026-04-24T17:01:38Z</time></trkpt><trkpt lat="45.766894213742106" lon="4.840935683724182"><ele>172.0</ele><time>2026-04-24T17:01:39Z</time></trkpt><trkpt lat="45.766958906958976" lon="4.840926417300388"><ele>170.0</ele><time>2026-04-24T17:01:40Z</time></trkpt><trkpt lat="45.76708731146099" lon="4.840905609997496"><ele>168.0</ele><time>2026-04-24T17:01:42Z</time></trkpt><trkpt lat="45.767209429093384" lon="4.840893268040169"><ele>168.0</ele><time>2026-04-24T17:01:44Z</time></trkpt><trkpt lat="45.76732930385496" lon="4.840869183461521"><ele>168.0</ele><time>2026-04-24T17:01:46Z</time></trkpt><trkpt lat="45.767450032284074" lon="4.84084978789145"><ele>168.0</ele><time>2026-04-24T17:01:48Z</time></trkpt><trkpt lat="45.76751375077887" lon="4.840835958960957"><ele>168.0</ele><time>2026-04-24T17:01:49Z</time></trkpt><trkpt lat="45.7675768059193" lon="4.840823474846776"><ele>168.0</ele><time>2026-04-24T17:01:50Z</time></trkpt><trkpt lat="45.76769316329984" lon="4.840797498995723"><ele>167.66666666666666</ele><time>2026-04-24T17:01:52Z</time></trkpt><trkpt lat="45.76781598042647" lon="4.840764812735083"><ele>167.33333333333334</ele><time>2026-04-24T17:01:54Z</time></trkpt><trkpt lat="45.7678833182671" lon="4.840751164940492"><ele>167.0</ele><time>2026-04-24T17:01:55Z</time></trkpt><trkpt lat="45.7679529361561" lon="4.840738557912989"><ele>166.66666666666669</ele><time>2026-04-24T17:01:56Z</time></trkpt><trkpt lat="45.76802471386734" lon="4.840730587115193"><ele>166.33333333333334</ele><time>2026-04-24T17:01:57Z</time></trkpt><trkpt lat="45.76810127827653" lon="4.840729514570062"><ele>166.0</ele><time>2026-04-24T17:01:58Z</time></trkpt><trkpt lat="45.76817699130916" lon="4.840734348116228"><ele>166.0</ele><time>2026-04-24T17:01:59Z</time></trkpt><trkpt lat="45.768254269686935" lon="4.840735965791133"><ele>166.0</ele><time>2026-04-24T17:02:00Z</time></trkpt><trkpt lat="45.76833141345712" lon="4.840730091584873"><ele>166.0</ele><time>2026-04-24T17:02:01Z</time></trkpt><trkpt lat="45.7684105612186" lon="4.840722526756327"><ele>166.0</ele><time>2026-04-24T17:02:02Z</time></trkpt><trkpt lat="45.76848980412725" lon="4.840716552786089"><ele>166.0</ele><time>2026-04-24T17:02:03Z</time></trkpt><trkpt lat="45.76856756221774" lon="4.84070287834497"><ele>166.0</ele><time>2026-04-24T17:02:04Z</time></trkpt><trkpt lat="45.76864181211111" lon="4.840697108933767"><ele>166.83333333333334</ele><time>2026-04-24T17:02:05Z</time></trkpt><trkpt lat="45.76871884853351" lon="4.8406824581743715"><ele>167.66666666666669</ele><time>2026-04-24T17:02:06Z</time></trkpt><trkpt lat="45.76880465428203" lon="4.840674493095326"><ele>168.5</ele><time>2026-04-24T17:02:07Z</time></trkpt><trkpt lat="45.76887805208505" lon="4.840692504024393"><ele>169.33333333333334</ele><time>2026-04-24T17:02:08Z</time></trkpt><trkpt lat="45.76894867287038" lon="4.8406893112382345"><ele>170.16666666666666</ele><time>2026-04-24T17:02:09Z</time></trkpt><trkpt lat="45.76902131860433" lon="4.840685740079891"><ele>171.0</ele><time>2026-04-24T17:02:10Z</time></trkpt><trkpt lat="45.769092959397305" lon="4.840682277497261"><ele>171.0</ele><time>2026-04-24T17:02:11Z</time></trkpt><trkpt lat="45.76916646735296" lon="4.840673377852988"><ele>171.0</ele><time>2026-04-24T17:02:12Z</time></trkpt><trkpt lat="45.76923845639343" lon="4.84066602927134"><ele>171.0</ele><time>2026-04-24T17:02:13Z</time></trkpt><trkpt lat="45.76930449990494" lon="4.84066041044032"><ele>171.0</ele><time>2026-04-24T17:02:14Z</time></trkpt><trkpt lat="45.76937411021786" lon="4.840663196729399"><ele>171.0</ele><time>2026-04-24T17:02:15Z</time></trkpt><trkpt lat="45.769498766965214" lon="4.840659642980877"><ele>171.0</ele><time>2026-04-24T17:02:17Z</time></trkpt><trkpt lat="45.76956453885008" lon="4.840658412539922"><ele>171.4</ele><time>2026-04-24T17:02:18Z</time></trkpt><trkpt lat="45.76968611867007" lon="4.840659849068183"><ele>171.8</ele><time>2026-04-24T17:02:20Z</time></trkpt><trkpt lat="45.76975127622349" lon="4.840661435101494"><ele>172.20000000000002</ele><time>2026-04-24T17:02:21Z</time></trkpt><trkpt lat="45.76986718527905" lon="4.8406659531173695"><ele>172.60000000000002</ele><time>2026-04-24T17:02:23Z</time></trkpt><trkpt lat="45.769989316210754" lon="4.840675424189037"><ele>173.0</ele><time>2026-04-24T17:02:25Z</time></trkpt><trkpt lat="45.77009670177312" lon="4.840693191857781"><ele>172.8</ele><time>2026-04-24T17:02:27Z</time></trkpt><trkpt lat="45.7702002559728" lon="4.840694743382273"><ele>172.60000000000002</ele><time>2026-04-24T17:02:29Z</time></trkpt><trkpt lat="45.77031552498781" lon="4.840703564745216"><ele>172.39999999999998</ele><time>2026-04-24T17:02:31Z</time></trkpt><trkpt lat="45.770435979691115" lon="4.840699556750005"><ele>172.2</ele><time>2026-04-24T17:02:33Z</time></trkpt><trkpt lat="45.77049895701526" lon="4.840701192436416"><ele>172.0</ele><time>2026-04-24T17:02:34Z</time></trkpt><trkpt lat="45.77062342973087" lon="4.840707189066765"><ele>172.0</ele><time>2026-04-24T17:02:36Z</time></trkpt><trkpt lat="45.770749159422" lon="4.840713751978654"><ele>172.0</ele><time>2026-04-24T17:02:38Z</time></trkpt><trkpt lat="45.770812817826204" lon="4.840718294878877"><ele>172.0</ele><time>2026-04-24T17:02:39Z</time></trkpt><trkpt lat="45.77088185665829" lon="4.840731004401967"><ele>172.0</ele><time>2026-04-24T17:02:40Z</time></trkpt><trkpt lat="45.77099313518239" lon="4.84073100861712"><ele>172.0</ele><time>2026-04-24T17:02:42Z</time></trkpt><trkpt lat="45.771064502486986" lon="4.840733782323563"><ele>172.0</ele><time>2026-04-24T17:02:43Z</time></trkpt><trkpt lat="45.771129565088046" lon="4.840730246690085"><ele>171.2</ele><time>2026-04-24T17:02:44Z</time></trkpt><trkpt lat="45.77125498785241" lon="4.840731877248375"><ele>170.39999999999998</ele><time>2026-04-24T17:02:46Z</time></trkpt><trkpt lat="45.77131915650752" lon="4.840734052417373"><ele>169.60000000000002</ele><time>2026-04-24T17:02:46.999Z</time></trkpt><trkpt lat="45.77143977826632" lon="4.840739840340389"><ele>168.8</ele><time>2026-04-24T17:02:48.999Z</time></trkpt><trkpt lat="45.77155559192926" lon="4.840737115877181"><ele>168.0</ele><time>2026-04-24T17:02:50.999Z</time></trkpt><trkpt lat="45.77167403764638" lon="4.840729508199296"><ele>168.0</ele><time>2026-04-24T17:02:52.999Z</time></trkpt><trkpt lat="45.77179563799818" lon="4.840740283912885"><ele>168.0</ele><time>2026-04-24T17:02:54.999Z</time></trkpt><trkpt lat="45.77191965488488" lon="4.840742276934393"><ele>168.0</ele><time>2026-04-24T17:02:56.999Z</time></trkpt><trkpt lat="45.772044391155084" lon="4.84072966290967"><ele>168.0</ele><time>2026-04-24T17:02:58.999Z</time></trkpt><trkpt lat="45.77216725621663" lon="4.840732409836502"><ele>168.60000000000002</ele><time>2026-04-24T17:03:00.999Z</time></trkpt><trkpt lat="45.77226575891139" lon="4.840739025699499"><ele>169.20000000000002</ele><time>2026-04-24T17:03:02.999Z</time></trkpt><trkpt lat="45.772341866233546" lon="4.8407854670506865"><ele>169.8</ele><time>2026-04-24T17:03:04.999Z</time></trkpt><trkpt lat="45.77242069485384" lon="4.840816179343427"><ele>170.4</ele><time>2026-04-24T17:03:06.999Z</time></trkpt><trkpt lat="45.77255027989467" lon="4.840823041600586"><ele>171.0</ele><time>2026-04-24T17:03:08.999Z</time></trkpt><trkpt lat="45.77264062998952" lon="4.840845859611261"><ele>171.5</ele><time>2026-04-24T17:03:09.999Z</time></trkpt><trkpt lat="45.77272441748324" lon="4.840876489986343"><ele>172.0</ele><time>2026-04-24T17:03:10.999Z</time></trkpt><trkpt lat="45.772785560335066" lon="4.840900789248537"><ele>172.5</ele><time>2026-04-24T17:03:11.999Z</time></trkpt><trkpt lat="45.77284469084111" lon="4.840932300555104"><ele>173.0</ele><time>2026-04-24T17:03:12.999Z</time></trkpt><trkpt lat="45.772939979602015" lon="4.8409899706723"><ele>173.5</ele><time>2026-04-24T17:03:14.999Z</time></trkpt><trkpt lat="45.77302026381955" lon="4.841047130523906"><ele>174.0</ele><time>2026-04-24T17:03:16.999Z</time></trkpt><trkpt lat="45.77309696638711" lon="4.841097866192466"><ele>174.0</ele><time>2026-04-24T17:03:18.999Z</time></trkpt><trkpt lat="45.77316840082845" lon="4.841144082299764"><ele>174.0</ele><time>2026-04-24T17:03:20.999Z</time></trkpt><trkpt lat="45.77322644994332" lon="4.841192158201025"><ele>174.0</ele><time>2026-04-24T17:03:22.999Z</time></trkpt><trkpt lat="45.773299107324995" lon="4.841229214189957"><ele>174.0</ele><time>2026-04-24T17:03:25.999Z</time></trkpt><trkpt lat="45.77336886404711" lon="4.841294481958659"><ele>174.0</ele><time>2026-04-24T17:03:28.999Z</time></trkpt><trkpt lat="45.7733639598555" lon="4.841389875464946"><ele>174.0</ele><time>2026-04-24T17:03:33.999Z</time></trkpt><trkpt lat="45.7732831467374" lon="4.841353707594299"><ele>174.0</ele><time>2026-04-24T17:03:35.999Z</time></trkpt><trkpt lat="45.773232888194244" lon="4.841295970928977"><ele>174.0</ele><time>2026-04-24T17:03:37.999Z</time></trkpt><trkpt lat="45.773154611345944" lon="4.84131677003766"><ele>174.0</ele><time>2026-04-24T17:03:39.999Z</time></trkpt><trkpt lat="45.7730445549638" lon="4.841249964658471"><ele>174.0</ele><time>2026-04-24T17:03:42Z</time></trkpt><trkpt lat="45.77298305061273" lon="4.8412187998868745"><ele>174.0</ele><time>2026-04-24T17:03:43Z</time></trkpt><trkpt lat="45.77286393400462" lon="4.841179611300666"><ele>174.0</ele><time>2026-04-24T17:03:45Z</time></trkpt><trkpt lat="45.77274319609612" lon="4.841130252914212"><ele>174.0</ele><time>2026-04-24T17:03:47Z</time></trkpt><trkpt lat="45.77261988017803" lon="4.841099621017317"><ele>174.0</ele><time>2026-04-24T17:03:49Z</time></trkpt><trkpt lat="45.77250053845656" lon="4.841095673108733"><ele>174.0</ele><time>2026-04-24T17:03:51Z</time></trkpt><trkpt lat="45.772417841961605" lon="4.840995371192134"><ele>173.39999999999998</ele><time>2026-04-24T17:03:53Z</time></trkpt><trkpt lat="45.77243067535018" lon="4.840849887567433"><ele>172.8</ele><time>2026-04-24T17:03:55Z</time></trkpt><trkpt lat="45.77245322760218" lon="4.840695876010845"><ele>172.2</ele><time>2026-04-24T17:03:57Z</time></trkpt><trkpt lat="45.772461101317624" lon="4.8405267921683475"><ele>171.60000000000002</ele><time>2026-04-24T17:03:59Z</time></trkpt><trkpt lat="45.77247201350888" lon="4.840434438735755"><ele>171.0</ele><time>2026-04-24T17:04:00Z</time></trkpt><trkpt lat="45.77248155128902" lon="4.8403341696103555"><ele>171.0</ele><time>2026-04-24T17:04:01Z</time></trkpt><trkpt lat="45.77249051307114" lon="4.84016861648013"><ele>171.0</ele><time>2026-04-24T17:04:03Z</time></trkpt><trkpt lat="45.77250362279747" lon="4.8400083042574575"><ele>171.0</ele><time>2026-04-24T17:04:05Z</time></trkpt><trkpt lat="45.77251335834999" lon="4.839852443942467"><ele>171.0</ele><time>2026-04-24T17:04:07Z</time></trkpt><trkpt lat="45.7725254009712" lon="4.839710152300755"><ele>171.0</ele><time>2026-04-24T17:04:09Z</time></trkpt><trkpt lat="45.77253394963813" lon="4.839561049052863"><ele>170.20000000000002</ele><time>2026-04-24T17:04:11Z</time></trkpt><trkpt lat="45.77254154242342" lon="4.839410110501942"><ele>169.4</ele><time>2026-04-24T17:04:13Z</time></trkpt><trkpt lat="45.77255807051494" lon="4.839253657326871"><ele>168.6</ele><time>2026-04-24T17:04:15Z</time></trkpt><trkpt lat="45.77257780603175" lon="4.83910251563342"><ele>167.8</ele><time>2026-04-24T17:04:17Z</time></trkpt><trkpt lat="45.77258044388834" lon="4.838960162006486"><ele>167.0</ele><time>2026-04-24T17:04:19Z</time></trkpt><trkpt lat="45.772597473155166" lon="4.838827273258751"><ele>167.0</ele><time>2026-04-24T17:04:21Z</time></trkpt><trkpt lat="45.77260334259541" lon="4.8386868968519785"><ele>167.0</ele><time>2026-04-24T17:04:23Z</time></trkpt><trkpt lat="45.77264812824896" lon="4.838589793937329"><ele>167.0</ele><time>2026-04-24T17:04:25Z</time></trkpt><trkpt lat="45.77271982008835" lon="4.838560336833081"><ele>167.0</ele><time>2026-04-24T17:04:27Z</time></trkpt><trkpt lat="45.77274644963473" lon="4.838456100651868"><ele>167.0</ele><time>2026-04-24T17:04:30Z</time></trkpt><trkpt lat="45.77275512026932" lon="4.838330097386483"><ele>167.0</ele><time>2026-04-24T17:04:32Z</time></trkpt><trkpt lat="45.77276653059694" lon="4.838174842984783"><ele>168.16666666666666</ele><time>2026-04-24T17:04:34Z</time></trkpt><trkpt lat="45.77280180314193" lon="4.838017111331598"><ele>169.33333333333331</ele><time>2026-04-24T17:04:36Z</time></trkpt><trkpt lat="45.772811666491684" lon="4.837848616417913"><ele>170.5</ele><time>2026-04-24T17:04:38Z</time></trkpt><trkpt lat="45.7728147805433" lon="4.837755347883639"><ele>171.66666666666666</ele><time>2026-04-24T17:04:39Z</time></trkpt><trkpt lat="45.77281636449395" lon="4.837662491393976"><ele>172.83333333333334</ele><time>2026-04-24T17:04:40Z</time></trkpt><trkpt lat="45.77281265082242" lon="4.837569179372727"><ele>174.0</ele><time>2026-04-24T17:04:41Z</time></trkpt><trkpt lat="45.772802505306736" lon="4.837467915381805"><ele>176.0</ele><time>2026-04-24T17:04:42Z</time></trkpt><trkpt lat="45.772788003449435" lon="4.837373682074425"><ele>178.0</ele><time>2026-04-24T17:04:43Z</time></trkpt><trkpt lat="45.772787559714885" lon="4.837267188326114"><ele>180.0</ele><time>2026-04-24T17:04:44Z</time></trkpt><trkpt lat="45.77279398018117" lon="4.837169634873647"><ele>182.0</ele><time>2026-04-24T17:04:45Z</time></trkpt><trkpt lat="45.772809304840855" lon="4.837066954209741"><ele>184.0</ele><time>2026-04-24T17:04:46Z</time></trkpt><trkpt lat="45.77293782898951" lon="4.836934188832606"><ele>186.0</ele><time>2026-04-24T17:04:47Z</time></trkpt><trkpt lat="45.77294954143051" lon="4.836805866800708"><ele>188.57142857142858</ele><time>2026-04-24T17:04:48Z</time></trkpt><trkpt lat="45.77295031404063" lon="4.836707739768165"><ele>191.14285714285714</ele><time>2026-04-24T17:04:49Z</time></trkpt><trkpt lat="45.77295065807208" lon="4.836603283365052"><ele>193.71428571428572</ele><time>2026-04-24T17:04:50Z</time></trkpt><trkpt lat="45.772950662080525" lon="4.83649926149199"><ele>196.28571428571428</ele><time>2026-04-24T17:04:51.015Z</time></trkpt><trkpt lat="45.772951385037" lon="4.836393406165549"><ele>198.85714285714286</ele><time>2026-04-24T17:04:52.021Z</time></trkpt><trkpt lat="45.772953548785566" lon="4.836287084328882"><ele>201.42857142857144</ele><time>2026-04-24T17:04:53.019Z</time></trkpt><trkpt lat="45.77295562376898" lon="4.836180381150291"><ele>204.0</ele><time>2026-04-24T17:04:54.019Z</time></trkpt><trkpt lat="45.772960030532786" lon="4.83607410973614"><ele>217.0</ele><time>2026-04-24T17:04:55.019Z</time></trkpt><trkpt lat="45.772961842785655" lon="4.835968456807383"><ele>230.0</ele><time>2026-04-24T17:04:56.02Z</time></trkpt><trkpt lat="45.77244549370907" lon="4.838922904443125"><ele>188.0</ele><time>2026-04-24T17:05:43.941Z</time></trkpt><trkpt lat="45.77466060411723" lon="4.814026979734017"><ele>188.0</ele><time>2026-04-24T17:08:10.998Z</time></trkpt><trkpt lat="45.77465273916157" lon="4.81383049336869"><ele>188.0</ele><time>2026-04-24T17:08:12.998Z</time></trkpt><trkpt lat="45.77465874184234" lon="4.813733271676409"><ele>188.0</ele><time>2026-04-24T17:08:13.998Z</time></trkpt><trkpt lat="45.77466935538996" lon="4.813638931518821"><ele>188.0</ele><time>2026-04-24T17:08:14.998Z</time></trkpt><trkpt lat="45.774679197246535" lon="4.813548795671131"><ele>188.0</ele><time>2026-04-24T17:08:15.998Z</time></trkpt><trkpt lat="45.77468751839996" lon="4.813371112493468"><ele>185.25</ele><time>2026-04-24T17:08:18.001Z</time></trkpt><trkpt lat="45.774705301173036" lon="4.813197892899463"><ele>182.5</ele><time>2026-04-24T17:08:20.001Z</time></trkpt><trkpt lat="45.774631898787" lon="4.813007143182876"><ele>179.75</ele><time>2026-04-24T17:08:22.001Z</time></trkpt><trkpt lat="45.77464699017706" lon="4.812840357491523"><ele>177.0</ele><time>2026-04-24T17:08:24.001Z</time></trkpt><trkpt lat="45.77466189581956" lon="4.8126742574375285"><ele>176.5</ele><time>2026-04-24T17:08:26.001Z</time></trkpt><trkpt lat="45.7746759777275" lon="4.812507865474864"><ele>176.0</ele><time>2026-04-24T17:08:28.001Z</time></trkpt><trkpt lat="45.774684999529185" lon="4.812410575876837"><ele>175.5</ele><time>2026-04-24T17:08:29.001Z</time></trkpt><trkpt lat="45.77469552969529" lon="4.812297334491102"><ele>175.0</ele><time>2026-04-24T17:08:30.001Z</time></trkpt><trkpt lat="45.77470616797622" lon="4.812182930612207"><ele>174.5</ele><time>2026-04-24T17:08:31.001Z</time></trkpt><trkpt lat="45.77471832238338" lon="4.812052222374318"><ele>174.0</ele><time>2026-04-24T17:08:32.001Z</time></trkpt><trkpt lat="45.77472943594722" lon="4.811929569987426"><ele>174.33333333333334</ele><time>2026-04-24T17:08:33.001Z</time></trkpt><trkpt lat="45.77473998795049" lon="4.811811756510745"><ele>174.66666666666666</ele><time>2026-04-24T17:08:34Z</time></trkpt><trkpt lat="45.7747496882443" lon="4.811703452265201"><ele>175.0</ele><time>2026-04-24T17:08:35Z</time></trkpt><trkpt lat="45.77475944811269" lon="4.811594482722333"><ele>175.33333333333331</ele><time>2026-04-24T17:08:36Z</time></trkpt><trkpt lat="45.77476976583951" lon="4.811479843311784"><ele>175.66666666666666</ele><time>2026-04-24T17:08:37Z</time></trkpt><trkpt lat="45.774779143785615" lon="4.811375913205262"><ele>176.0</ele><time>2026-04-24T17:08:38Z</time></trkpt><trkpt lat="45.774787865975775" lon="4.811279250494076"><ele>176.0</ele><time>2026-04-24T17:08:39Z</time></trkpt><trkpt lat="45.77479658718514" lon="4.8111825983005945"><ele>176.0</ele><time>2026-04-24T17:08:40Z</time></trkpt><trkpt lat="45.77481035563426" lon="4.811025125113234"><ele>176.0</ele><time>2026-04-24T17:08:42Z</time></trkpt><trkpt lat="45.77482076004273" lon="4.81088887687143"><ele>176.0</ele><time>2026-04-24T17:08:44Z</time></trkpt><trkpt lat="45.77482909573919" lon="4.810777728388007"><ele>176.0</ele><time>2026-04-24T17:08:46Z</time></trkpt><trkpt lat="45.774976500311546" lon="4.810635125960467"><ele>175.0</ele><time>2026-04-24T17:08:50Z</time></trkpt><trkpt lat="45.77506744063113" lon="4.8105927574087195"><ele>174.0</ele><time>2026-04-24T17:08:53Z</time></trkpt><trkpt lat="45.77517729424452" lon="4.810546858484497"><ele>173.0</ele><time>2026-04-24T17:08:55Z</time></trkpt><trkpt lat="45.775290087560634" lon="4.810508023624918"><ele>172.0</ele><time>2026-04-24T17:08:57Z</time></trkpt><trkpt lat="45.775393532148826" lon="4.810480430684936"><ele>171.0</ele><time>2026-04-24T17:08:59Z</time></trkpt><trkpt lat="45.775469151363076" lon="4.8104650412860686"><ele>171.0</ele><time>2026-04-24T17:09:01Z</time></trkpt><trkpt lat="45.775326868841304" lon="4.810294924919441"><ele>171.0</ele><time>2026-04-24T17:09:38Z</time></trkpt><trkpt lat="45.775226315330336" lon="4.810311432463875"><ele>171.0</ele><time>2026-04-24T17:09:40Z</time></trkpt><trkpt lat="45.775106034765116" lon="4.810349169809145"><ele>171.0</ele><time>2026-04-24T17:09:42Z</time></trkpt><trkpt lat="45.775033257219015" lon="4.810369970396104"><ele>170.8</ele><time>2026-04-24T17:09:43Z</time></trkpt><trkpt lat="45.774961168242676" lon="4.810399623095015"><ele>170.60000000000002</ele><time>2026-04-24T17:09:44Z</time></trkpt><trkpt lat="45.77488288969451" lon="4.810437878545589"><ele>170.4</ele><time>2026-04-24T17:09:45Z</time></trkpt><trkpt lat="45.77476295470851" lon="4.810476654833884"><ele>170.2</ele><time>2026-04-24T17:09:46.999Z</time></trkpt><trkpt lat="45.774630942413154" lon="4.810618757981617"><ele>170.0</ele><time>2026-04-24T17:09:48.999Z</time></trkpt><trkpt lat="45.774480402446265" lon="4.81068459353153"><ele>170.0</ele><time>2026-04-24T17:09:49.999Z</time></trkpt><trkpt lat="45.77439850784233" lon="4.810751419588716"><ele>170.0</ele><time>2026-04-24T17:09:50.999Z</time></trkpt><trkpt lat="45.77432107861703" lon="4.810812672374788"><ele>170.0</ele><time>2026-04-24T17:09:51.999Z</time></trkpt><trkpt lat="45.77424452100591" lon="4.810877780137151"><ele>170.0</ele><time>2026-04-24T17:09:52.999Z</time></trkpt><trkpt lat="45.77417719604704" lon="4.810950550385586"><ele>170.0</ele><time>2026-04-24T17:09:53.999Z</time></trkpt><trkpt lat="45.774106810118276" lon="4.811019945212288"><ele>170.0</ele><time>2026-04-24T17:09:54.999Z</time></trkpt><trkpt lat="45.77404866224944" lon="4.811094397282958"><ele>170.0</ele><time>2026-04-24T17:09:55.999Z</time></trkpt><trkpt lat="45.77399558431814" lon="4.8111712959758695"><ele>170.0</ele><time>2026-04-24T17:09:56.999Z</time></trkpt><trkpt lat="45.773948974857056" lon="4.811258202740311"><ele>170.0</ele><time>2026-04-24T17:09:57.999Z</time></trkpt><trkpt lat="45.77390175489309" lon="4.8113397106721765"><ele>170.0</ele><time>2026-04-24T17:09:58.999Z</time></trkpt><trkpt lat="45.773858187756176" lon="4.811424772037698"><ele>170.0</ele><time>2026-04-24T17:09:59.999Z</time></trkpt><trkpt lat="45.773819998441816" lon="4.811509446129142"><ele>170.0</ele><time>2026-04-24T17:10:00.999Z</time></trkpt><trkpt lat="45.77378387977021" lon="4.811592235181051"><ele>170.0</ele><time>2026-04-24T17:10:01.999Z</time></trkpt><trkpt lat="45.77374594010637" lon="4.811672922279968"><ele>170.0</ele><time>2026-04-24T17:10:02.999Z</time></trkpt><trkpt lat="45.77370732828621" lon="4.811749222083886"><ele>170.0</ele><time>2026-04-24T17:10:03.999Z</time></trkpt><trkpt lat="45.773645252014774" lon="4.811883314814643"><ele>170.0</ele><time>2026-04-24T17:10:05.999Z</time></trkpt><trkpt lat="45.773602388107165" lon="4.8119940327490625"><ele>170.0</ele><time>2026-04-24T17:10:07.999Z</time></trkpt><trkpt lat="45.773561438987606" lon="4.8121063917095"><ele>170.0</ele><time>2026-04-24T17:10:09.999Z</time></trkpt><trkpt lat="45.7735163251797" lon="4.812178960844117"><ele>170.0</ele><time>2026-04-24T17:10:11.999Z</time></trkpt><trkpt lat="45.77345895032532" lon="4.8122747459809325"><ele>172.0</ele><time>2026-04-24T17:10:15.999Z</time></trkpt><trkpt lat="45.77341164428845" lon="4.812340779747675"><ele>172.0</ele><time>2026-04-24T17:10:18.999Z</time></trkpt></trkseg></trk></gpx>